<?xml version="1.0" encoding="UTF-8" standalone="no" ?>
<gpx xmlns="http://www.topografix.com/GPX/1/1" xmlns:xsi="http://www.w3.org/2001/XMLSchema-instance" xsi:schemaLocation="http://www.topografix.com/GPX/1/1 http://www.topografix.com/GPX/1/1/gpx.xsd" version="1.1" creator="VisuGPX - https://www.visugpx.com">
  <metadata>
    <name>Marche à Rouillas Bas</name>
    <desc><![CDATA[Balade dans la chaine des puys]]></desc>
  </metadata>
  <trk>
    <name><![CDATA[Rouillat bas]]></name>
    <trkseg>
      <trkpt lat="45.67171" lon="3.00606">
        <ele>817</ele>
        <time>2012-02-25T12:52:24.000Z</time>
      </trkpt>
      <trkpt lat="45.67173" lon="3.00606">
        <ele>817</ele>
        <time>2012-02-25T12:52:29.000Z</time>
      </trkpt>
      <trkpt lat="45.67174" lon="3.00602">
        <ele>817</ele>
        <time>2012-02-25T12:52:36.000Z</time>
      </trkpt>
      <trkpt lat="45.67177" lon="3.00595">
        <ele>817.20001220703</ele>
        <time>2012-02-25T12:52:43.000Z</time>
      </trkpt>
      <trkpt lat="45.67181" lon="3.00592">
        <ele>817.20001220703</ele>
        <time>2012-02-25T12:52:48.000Z</time>
      </trkpt>
      <trkpt lat="45.67182" lon="3.00592">
        <ele>817.20001220703</ele>
        <time>2012-02-25T12:52:49.000Z</time>
      </trkpt>
      <trkpt lat="45.67185" lon="3.00586">
        <ele>817.20001220703</ele>
        <time>2012-02-25T12:52:57.000Z</time>
      </trkpt>
      <trkpt lat="45.67186" lon="3.00583">
        <ele>817.20001220703</ele>
        <time>2012-02-25T12:52:59.000Z</time>
      </trkpt>
      <trkpt lat="45.67191" lon="3.00578">
        <ele>817.40002441406</ele>
        <time>2012-02-25T12:53:07.000Z</time>
      </trkpt>
      <trkpt lat="45.67194" lon="3.00577">
        <ele>817.40002441406</ele>
        <time>2012-02-25T12:53:11.000Z</time>
      </trkpt>
      <trkpt lat="45.672" lon="3.00576">
        <ele>817.40002441406</ele>
        <time>2012-02-25T12:53:19.000Z</time>
      </trkpt>
      <trkpt lat="45.67207" lon="3.00577">
        <ele>817.40002441406</ele>
        <time>2012-02-25T12:53:27.000Z</time>
      </trkpt>
      <trkpt lat="45.67213" lon="3.0058">
        <ele>817.59997558594</ele>
        <time>2012-02-25T12:53:34.000Z</time>
      </trkpt>
      <trkpt lat="45.6722" lon="3.00584">
        <ele>817.59997558594</ele>
        <time>2012-02-25T12:53:40.000Z</time>
      </trkpt>
      <trkpt lat="45.67227" lon="3.00591">
        <ele>817.59997558594</ele>
        <time>2012-02-25T12:53:48.000Z</time>
      </trkpt>
      <trkpt lat="45.6723" lon="3.00592">
        <ele>817.59997558594</ele>
        <time>2012-02-25T12:53:50.000Z</time>
      </trkpt>
      <trkpt lat="45.67233" lon="3.00596">
        <ele>817.59997558594</ele>
        <time>2012-02-25T12:53:55.000Z</time>
      </trkpt>
      <trkpt lat="45.67235" lon="3.00597">
        <ele>817.59997558594</ele>
        <time>2012-02-25T12:53:57.000Z</time>
      </trkpt>
      <trkpt lat="45.6724" lon="3.00602">
        <ele>817.59997558594</ele>
        <time>2012-02-25T12:54:03.000Z</time>
      </trkpt>
      <trkpt lat="45.67247" lon="3.00609">
        <ele>817.59997558594</ele>
        <time>2012-02-25T12:54:11.000Z</time>
      </trkpt>
      <trkpt lat="45.67255" lon="3.00615">
        <ele>817.79998779297</ele>
        <time>2012-02-25T12:54:19.000Z</time>
      </trkpt>
      <trkpt lat="45.67267" lon="3.00625">
        <ele>818</ele>
        <time>2012-02-25T12:54:29.000Z</time>
      </trkpt>
      <trkpt lat="45.67277" lon="3.00635">
        <ele>818</ele>
        <time>2012-02-25T12:54:39.000Z</time>
      </trkpt>
      <trkpt lat="45.67285" lon="3.00643">
        <ele>818</ele>
        <time>2012-02-25T12:54:46.000Z</time>
      </trkpt>
      <trkpt lat="45.67294" lon="3.00653">
        <ele>818</ele>
        <time>2012-02-25T12:54:56.000Z</time>
      </trkpt>
      <trkpt lat="45.673" lon="3.00662">
        <ele>817.79998779297</ele>
        <time>2012-02-25T12:55:04.000Z</time>
      </trkpt>
      <trkpt lat="45.67301" lon="3.00663">
        <ele>817.79998779297</ele>
        <time>2012-02-25T12:55:05.000Z</time>
      </trkpt>
      <trkpt lat="45.67309" lon="3.00672">
        <ele>817.59997558594</ele>
        <time>2012-02-25T12:55:15.000Z</time>
      </trkpt>
      <trkpt lat="45.67315" lon="3.0068">
        <ele>817.40002441406</ele>
        <time>2012-02-25T12:55:22.000Z</time>
      </trkpt>
      <trkpt lat="45.67323" lon="3.00693">
        <ele>817.20001220703</ele>
        <time>2012-02-25T12:55:33.000Z</time>
      </trkpt>
      <trkpt lat="45.67326" lon="3.00699">
        <ele>817.20001220703</ele>
        <time>2012-02-25T12:55:39.000Z</time>
      </trkpt>
      <trkpt lat="45.67331" lon="3.00707">
        <ele>817</ele>
        <time>2012-02-25T12:55:47.000Z</time>
      </trkpt>
      <trkpt lat="45.67337" lon="3.00713">
        <ele>817.20001220703</ele>
        <time>2012-02-25T12:55:54.000Z</time>
      </trkpt>
      <trkpt lat="45.67343" lon="3.00721">
        <ele>817.59997558594</ele>
        <time>2012-02-25T12:56:03.000Z</time>
      </trkpt>
      <trkpt lat="45.67345" lon="3.00723">
        <ele>817.59997558594</ele>
        <time>2012-02-25T12:56:05.000Z</time>
      </trkpt>
      <trkpt lat="45.67352" lon="3.0073">
        <ele>818.20001220703</ele>
        <time>2012-02-25T12:56:13.000Z</time>
      </trkpt>
      <trkpt lat="45.67358" lon="3.00734">
        <ele>818.59997558594</ele>
        <time>2012-02-25T12:56:19.000Z</time>
      </trkpt>
      <trkpt lat="45.67364" lon="3.00738">
        <ele>819.20001220703</ele>
        <time>2012-02-25T12:56:26.000Z</time>
      </trkpt>
      <trkpt lat="45.67369" lon="3.0074">
        <ele>819.59997558594</ele>
        <time>2012-02-25T12:56:31.000Z</time>
      </trkpt>
      <trkpt lat="45.67373" lon="3.00741">
        <ele>820</ele>
        <time>2012-02-25T12:56:38.000Z</time>
      </trkpt>
      <trkpt lat="45.67378" lon="3.00742">
        <ele>820.40002441406</ele>
        <time>2012-02-25T12:56:42.000Z</time>
      </trkpt>
      <trkpt lat="45.67384" lon="3.00741">
        <ele>820.79998779297</ele>
        <time>2012-02-25T12:56:48.000Z</time>
      </trkpt>
      <trkpt lat="45.67385" lon="3.0074">
        <ele>821</ele>
        <time>2012-02-25T12:56:50.000Z</time>
      </trkpt>
      <trkpt lat="45.67392" lon="3.00737">
        <ele>821.59997558594</ele>
        <time>2012-02-25T12:56:58.000Z</time>
      </trkpt>
      <trkpt lat="45.67393" lon="3.00737">
        <ele>821.79998779297</ele>
        <time>2012-02-25T12:56:59.000Z</time>
      </trkpt>
      <trkpt lat="45.67398" lon="3.00731">
        <ele>822.20001220703</ele>
        <time>2012-02-25T12:57:06.000Z</time>
      </trkpt>
      <trkpt lat="45.67402" lon="3.00725">
        <ele>822.40002441406</ele>
        <time>2012-02-25T12:57:12.000Z</time>
      </trkpt>
      <trkpt lat="45.67408" lon="3.00719">
        <ele>822.79998779297</ele>
        <time>2012-02-25T12:57:19.000Z</time>
      </trkpt>
      <trkpt lat="45.67412" lon="3.00714">
        <ele>823.20001220703</ele>
        <time>2012-02-25T12:57:25.000Z</time>
      </trkpt>
      <trkpt lat="45.67417" lon="3.00709">
        <ele>823.59997558594</ele>
        <time>2012-02-25T12:57:32.000Z</time>
      </trkpt>
      <trkpt lat="45.67417" lon="3.00708">
        <ele>823.59997558594</ele>
        <time>2012-02-25T12:57:33.000Z</time>
      </trkpt>
      <trkpt lat="45.67418" lon="3.00706">
        <ele>823.79998779297</ele>
        <time>2012-02-25T12:57:36.000Z</time>
      </trkpt>
      <trkpt lat="45.67428" lon="3.00704">
        <ele>825.40002441406</ele>
        <time>2012-02-25T12:57:45.000Z</time>
      </trkpt>
      <trkpt lat="45.67435" lon="3.00704">
        <ele>826.59997558594</ele>
        <time>2012-02-25T12:57:50.000Z</time>
      </trkpt>
      <trkpt lat="45.67444" lon="3.00707">
        <ele>828.20001220703</ele>
        <time>2012-02-25T12:57:58.000Z</time>
      </trkpt>
      <trkpt lat="45.67446" lon="3.00708">
        <ele>828.40002441406</ele>
        <time>2012-02-25T12:57:59.000Z</time>
      </trkpt>
      <trkpt lat="45.67454" lon="3.00713">
        <ele>830</ele>
        <time>2012-02-25T12:58:07.000Z</time>
      </trkpt>
      <trkpt lat="45.67462" lon="3.00722">
        <ele>831.40002441406</ele>
        <time>2012-02-25T12:58:15.000Z</time>
      </trkpt>
      <trkpt lat="45.67465" lon="3.00732">
        <ele>832.20001220703</ele>
        <time>2012-02-25T12:58:22.000Z</time>
      </trkpt>
      <trkpt lat="45.67466" lon="3.00742">
        <ele>832.59997558594</ele>
        <time>2012-02-25T12:58:29.000Z</time>
      </trkpt>
      <trkpt lat="45.67465" lon="3.0075">
        <ele>832.59997558594</ele>
        <time>2012-02-25T12:58:34.000Z</time>
      </trkpt>
      <trkpt lat="45.67463" lon="3.00755">
        <ele>832.40002441406</ele>
        <time>2012-02-25T12:58:39.000Z</time>
      </trkpt>
      <trkpt lat="45.6746" lon="3.00766">
        <ele>831.59997558594</ele>
        <time>2012-02-25T12:58:48.000Z</time>
      </trkpt>
      <trkpt lat="45.67458" lon="3.00775">
        <ele>831.20001220703</ele>
        <time>2012-02-25T12:58:55.000Z</time>
      </trkpt>
      <trkpt lat="45.67457" lon="3.00779">
        <ele>831</ele>
        <time>2012-02-25T12:58:58.000Z</time>
      </trkpt>
      <trkpt lat="45.67459" lon="3.00792">
        <ele>831.40002441406</ele>
        <time>2012-02-25T12:59:07.000Z</time>
      </trkpt>
      <trkpt lat="45.67465" lon="3.00801">
        <ele>832.40002441406</ele>
        <time>2012-02-25T12:59:14.000Z</time>
      </trkpt>
      <trkpt lat="45.67467" lon="3.00805">
        <ele>832.79998779297</ele>
        <time>2012-02-25T12:59:22.000Z</time>
      </trkpt>
      <trkpt lat="45.6747" lon="3.00815">
        <ele>833.40002441406</ele>
        <time>2012-02-25T12:59:28.000Z</time>
      </trkpt>
      <trkpt lat="45.67475" lon="3.00827">
        <ele>834.40002441406</ele>
        <time>2012-02-25T12:59:36.000Z</time>
      </trkpt>
      <trkpt lat="45.67476" lon="3.00828">
        <ele>834.40002441406</ele>
        <time>2012-02-25T12:59:37.000Z</time>
      </trkpt>
      <trkpt lat="45.6748" lon="3.00836">
        <ele>834.79998779297</ele>
        <time>2012-02-25T12:59:43.000Z</time>
      </trkpt>
      <trkpt lat="45.6748" lon="3.00838">
        <ele>834.79998779297</ele>
        <time>2012-02-25T12:59:44.000Z</time>
      </trkpt>
      <trkpt lat="45.67482" lon="3.00845">
        <ele>834.59997558594</ele>
        <time>2012-02-25T12:59:49.000Z</time>
      </trkpt>
      <trkpt lat="45.67487" lon="3.00854">
        <ele>834.59997558594</ele>
        <time>2012-02-25T12:59:57.000Z</time>
      </trkpt>
      <trkpt lat="45.67488" lon="3.00856">
        <ele>834.59997558594</ele>
        <time>2012-02-25T12:59:59.000Z</time>
      </trkpt>
      <trkpt lat="45.67496" lon="3.00867">
        <ele>835</ele>
        <time>2012-02-25T13:00:08.000Z</time>
      </trkpt>
      <trkpt lat="45.67502" lon="3.00875">
        <ele>835.40002441406</ele>
        <time>2012-02-25T13:00:16.000Z</time>
      </trkpt>
      <trkpt lat="45.67508" lon="3.00882">
        <ele>836</ele>
        <time>2012-02-25T13:00:24.000Z</time>
      </trkpt>
      <trkpt lat="45.67515" lon="3.00889">
        <ele>836.59997558594</ele>
        <time>2012-02-25T13:00:32.000Z</time>
      </trkpt>
      <trkpt lat="45.6752" lon="3.00896">
        <ele>837.20001220703</ele>
        <time>2012-02-25T13:00:39.000Z</time>
      </trkpt>
      <trkpt lat="45.67527" lon="3.00905">
        <ele>837.79998779297</ele>
        <time>2012-02-25T13:00:47.000Z</time>
      </trkpt>
      <trkpt lat="45.67533" lon="3.00912">
        <ele>838.59997558594</ele>
        <time>2012-02-25T13:00:54.000Z</time>
      </trkpt>
      <trkpt lat="45.67541" lon="3.0092">
        <ele>839.40002441406</ele>
        <time>2012-02-25T13:01:02.000Z</time>
      </trkpt>
      <trkpt lat="45.67549" lon="3.00929">
        <ele>840.40002441406</ele>
        <time>2012-02-25T13:01:12.000Z</time>
      </trkpt>
      <trkpt lat="45.67557" lon="3.00936">
        <ele>841.20001220703</ele>
        <time>2012-02-25T13:01:21.000Z</time>
      </trkpt>
      <trkpt lat="45.67563" lon="3.00941">
        <ele>841.79998779297</ele>
        <time>2012-02-25T13:01:28.000Z</time>
      </trkpt>
      <trkpt lat="45.67572" lon="3.00949">
        <ele>842.79998779297</ele>
        <time>2012-02-25T13:01:38.000Z</time>
      </trkpt>
      <trkpt lat="45.67582" lon="3.00958">
        <ele>843.79998779297</ele>
        <time>2012-02-25T13:01:48.000Z</time>
      </trkpt>
      <trkpt lat="45.6759" lon="3.00964">
        <ele>844.20001220703</ele>
        <time>2012-02-25T13:01:56.000Z</time>
      </trkpt>
      <trkpt lat="45.67598" lon="3.00971">
        <ele>844.79998779297</ele>
        <time>2012-02-25T13:02:05.000Z</time>
      </trkpt>
      <trkpt lat="45.67607" lon="3.00977">
        <ele>845.40002441406</ele>
        <time>2012-02-25T13:02:14.000Z</time>
      </trkpt>
      <trkpt lat="45.67616" lon="3.00983">
        <ele>846</ele>
        <time>2012-02-25T13:02:22.000Z</time>
      </trkpt>
      <trkpt lat="45.67623" lon="3.00988">
        <ele>846.59997558594</ele>
        <time>2012-02-25T13:02:30.000Z</time>
      </trkpt>
      <trkpt lat="45.67624" lon="3.00989">
        <ele>846.59997558594</ele>
        <time>2012-02-25T13:02:32.000Z</time>
      </trkpt>
      <trkpt lat="45.67625" lon="3.00991">
        <ele>846.59997558594</ele>
        <time>2012-02-25T13:02:34.000Z</time>
      </trkpt>
      <trkpt lat="45.67632" lon="3.00994">
        <ele>847.40002441406</ele>
        <time>2012-02-25T13:02:41.000Z</time>
      </trkpt>
      <trkpt lat="45.67634" lon="3.00994">
        <ele>847.40002441406</ele>
        <time>2012-02-25T13:02:42.000Z</time>
      </trkpt>
      <trkpt lat="45.67644" lon="3.01">
        <ele>848.59997558594</ele>
        <time>2012-02-25T13:02:52.000Z</time>
      </trkpt>
      <trkpt lat="45.67647" lon="3.01002">
        <ele>848.79998779297</ele>
        <time>2012-02-25T13:02:55.000Z</time>
      </trkpt>
      <trkpt lat="45.67651" lon="3.01005">
        <ele>848.79998779297</ele>
        <time>2012-02-25T13:02:59.000Z</time>
      </trkpt>
      <trkpt lat="45.6766" lon="3.0101">
        <ele>849.40002441406</ele>
        <time>2012-02-25T13:03:08.000Z</time>
      </trkpt>
      <trkpt lat="45.67666" lon="3.01014">
        <ele>849.79998779297</ele>
        <time>2012-02-25T13:03:14.000Z</time>
      </trkpt>
      <trkpt lat="45.67676" lon="3.01017">
        <ele>850.20001220703</ele>
        <time>2012-02-25T13:03:23.000Z</time>
      </trkpt>
      <trkpt lat="45.67686" lon="3.01019">
        <ele>850.79998779297</ele>
        <time>2012-02-25T13:03:32.000Z</time>
      </trkpt>
      <trkpt lat="45.67695" lon="3.01019">
        <ele>851.59997558594</ele>
        <time>2012-02-25T13:03:41.000Z</time>
      </trkpt>
      <trkpt lat="45.67701" lon="3.01018">
        <ele>852.20001220703</ele>
        <time>2012-02-25T13:03:48.000Z</time>
      </trkpt>
      <trkpt lat="45.67705" lon="3.01018">
        <ele>852.59997558594</ele>
        <time>2012-02-25T13:03:53.000Z</time>
      </trkpt>
      <trkpt lat="45.67712" lon="3.01016">
        <ele>853.40002441406</ele>
        <time>2012-02-25T13:04:01.000Z</time>
      </trkpt>
      <trkpt lat="45.67725" lon="3.01012">
        <ele>855</ele>
        <time>2012-02-25T13:04:16.000Z</time>
      </trkpt>
      <trkpt lat="45.67729" lon="3.0101">
        <ele>855.40002441406</ele>
        <time>2012-02-25T13:04:21.000Z</time>
      </trkpt>
      <trkpt lat="45.67737" lon="3.01006">
        <ele>856.40002441406</ele>
        <time>2012-02-25T13:04:28.000Z</time>
      </trkpt>
      <trkpt lat="45.67737" lon="3.01006">
        <ele>856.59997558594</ele>
        <time>2012-02-25T13:04:29.000Z</time>
      </trkpt>
      <trkpt lat="45.67744" lon="3.01002">
        <ele>857.40002441406</ele>
        <time>2012-02-25T13:04:36.000Z</time>
      </trkpt>
      <trkpt lat="45.67748" lon="3.00998">
        <ele>858</ele>
        <time>2012-02-25T13:04:41.000Z</time>
      </trkpt>
      <trkpt lat="45.67752" lon="3.00995">
        <ele>858.79998779297</ele>
        <time>2012-02-25T13:04:45.000Z</time>
      </trkpt>
      <trkpt lat="45.67756" lon="3.0099">
        <ele>859.59997558594</ele>
        <time>2012-02-25T13:04:50.000Z</time>
      </trkpt>
      <trkpt lat="45.67762" lon="3.00984">
        <ele>860.79998779297</ele>
        <time>2012-02-25T13:04:57.000Z</time>
      </trkpt>
      <trkpt lat="45.67766" lon="3.00978">
        <ele>861.79998779297</ele>
        <time>2012-02-25T13:05:03.000Z</time>
      </trkpt>
      <trkpt lat="45.67767" lon="3.00976">
        <ele>862</ele>
        <time>2012-02-25T13:05:05.000Z</time>
      </trkpt>
      <trkpt lat="45.6777" lon="3.00974">
        <ele>862.59997558594</ele>
        <time>2012-02-25T13:05:09.000Z</time>
      </trkpt>
      <trkpt lat="45.67777" lon="3.0097">
        <ele>863.59997558594</ele>
        <time>2012-02-25T13:05:25.000Z</time>
      </trkpt>
      <trkpt lat="45.67779" lon="3.00969">
        <ele>864</ele>
        <time>2012-02-25T13:05:36.000Z</time>
      </trkpt>
      <trkpt lat="45.67784" lon="3.00966">
        <ele>864.59997558594</ele>
        <time>2012-02-25T13:05:58.000Z</time>
      </trkpt>
      <trkpt lat="45.67786" lon="3.00967">
        <ele>864.79998779297</ele>
        <time>2012-02-25T13:06:03.000Z</time>
      </trkpt>
      <trkpt lat="45.67788" lon="3.00967">
        <ele>865</ele>
        <time>2012-02-25T13:06:05.000Z</time>
      </trkpt>
      <trkpt lat="45.67794" lon="3.0097">
        <ele>865.40002441406</ele>
        <time>2012-02-25T13:06:11.000Z</time>
      </trkpt>
      <trkpt lat="45.67803" lon="3.00973">
        <ele>866.20001220703</ele>
        <time>2012-02-25T13:06:19.000Z</time>
      </trkpt>
      <trkpt lat="45.67805" lon="3.00974">
        <ele>866.20001220703</ele>
        <time>2012-02-25T13:06:21.000Z</time>
      </trkpt>
      <trkpt lat="45.67809" lon="3.00976">
        <ele>866.59997558594</ele>
        <time>2012-02-25T13:06:26.000Z</time>
      </trkpt>
      <trkpt lat="45.67814" lon="3.00978">
        <ele>867</ele>
        <time>2012-02-25T13:06:32.000Z</time>
      </trkpt>
      <trkpt lat="45.6782" lon="3.00981">
        <ele>867.59997558594</ele>
        <time>2012-02-25T13:06:39.000Z</time>
      </trkpt>
      <trkpt lat="45.67823" lon="3.00983">
        <ele>867.79998779297</ele>
        <time>2012-02-25T13:06:46.000Z</time>
      </trkpt>
      <trkpt lat="45.67826" lon="3.00983">
        <ele>868</ele>
        <time>2012-02-25T13:06:49.000Z</time>
      </trkpt>
      <trkpt lat="45.67833" lon="3.00988">
        <ele>868.59997558594</ele>
        <time>2012-02-25T13:06:57.000Z</time>
      </trkpt>
      <trkpt lat="45.67838" lon="3.00994">
        <ele>869.20001220703</ele>
        <time>2012-02-25T13:07:05.000Z</time>
      </trkpt>
      <trkpt lat="45.67839" lon="3.00995">
        <ele>869.40002441406</ele>
        <time>2012-02-25T13:07:06.000Z</time>
      </trkpt>
      <trkpt lat="45.67841" lon="3.01">
        <ele>869.59997558594</ele>
        <time>2012-02-25T13:07:11.000Z</time>
      </trkpt>
      <trkpt lat="45.67843" lon="3.01005">
        <ele>869.79998779297</ele>
        <time>2012-02-25T13:07:16.000Z</time>
      </trkpt>
      <trkpt lat="45.67844" lon="3.01007">
        <ele>869.79998779297</ele>
        <time>2012-02-25T13:07:17.000Z</time>
      </trkpt>
      <trkpt lat="45.67846" lon="3.01019">
        <ele>870</ele>
        <time>2012-02-25T13:07:25.000Z</time>
      </trkpt>
      <trkpt lat="45.67847" lon="3.01022">
        <ele>870.20001220703</ele>
        <time>2012-02-25T13:07:27.000Z</time>
      </trkpt>
      <trkpt lat="45.67852" lon="3.01034">
        <ele>870.59997558594</ele>
        <time>2012-02-25T13:07:35.000Z</time>
      </trkpt>
      <trkpt lat="45.67854" lon="3.0104">
        <ele>870.79998779297</ele>
        <time>2012-02-25T13:07:39.000Z</time>
      </trkpt>
      <trkpt lat="45.67856" lon="3.01045">
        <ele>871</ele>
        <time>2012-02-25T13:07:42.000Z</time>
      </trkpt>
      <trkpt lat="45.6786" lon="3.01053">
        <ele>871.59997558594</ele>
        <time>2012-02-25T13:07:50.000Z</time>
      </trkpt>
      <trkpt lat="45.6786" lon="3.01054">
        <ele>871.59997558594</ele>
        <time>2012-02-25T13:07:51.000Z</time>
      </trkpt>
      <trkpt lat="45.67862" lon="3.01055">
        <ele>872</ele>
        <time>2012-02-25T13:07:53.000Z</time>
      </trkpt>
      <trkpt lat="45.67863" lon="3.01057">
        <ele>872.20001220703</ele>
        <time>2012-02-25T13:07:56.000Z</time>
      </trkpt>
      <trkpt lat="45.67869" lon="3.01059">
        <ele>873.20001220703</ele>
        <time>2012-02-25T13:08:02.000Z</time>
      </trkpt>
      <trkpt lat="45.67871" lon="3.0106">
        <ele>873.40002441406</ele>
        <time>2012-02-25T13:08:04.000Z</time>
      </trkpt>
      <trkpt lat="45.67875" lon="3.01062">
        <ele>874.20001220703</ele>
        <time>2012-02-25T13:08:09.000Z</time>
      </trkpt>
      <trkpt lat="45.67882" lon="3.01063">
        <ele>875.40002441406</ele>
        <time>2012-02-25T13:08:16.000Z</time>
      </trkpt>
      <trkpt lat="45.67883" lon="3.01063">
        <ele>875.59997558594</ele>
        <time>2012-02-25T13:08:17.000Z</time>
      </trkpt>
      <trkpt lat="45.67887" lon="3.01061">
        <ele>876.40002441406</ele>
        <time>2012-02-25T13:08:26.000Z</time>
      </trkpt>
      <trkpt lat="45.67889" lon="3.01055">
        <ele>877</ele>
        <time>2012-02-25T13:08:31.000Z</time>
      </trkpt>
      <trkpt lat="45.67891" lon="3.01052">
        <ele>877.40002441406</ele>
        <time>2012-02-25T13:08:37.000Z</time>
      </trkpt>
      <trkpt lat="45.67894" lon="3.01063">
        <ele>877.59997558594</ele>
        <time>2012-02-25T13:08:54.000Z</time>
      </trkpt>
      <trkpt lat="45.67894" lon="3.01065">
        <ele>877.59997558594</ele>
        <time>2012-02-25T13:08:55.000Z</time>
      </trkpt>
      <trkpt lat="45.67895" lon="3.01071">
        <ele>877.59997558594</ele>
        <time>2012-02-25T13:08:59.000Z</time>
      </trkpt>
      <trkpt lat="45.67897" lon="3.01074">
        <ele>877.79998779297</ele>
        <time>2012-02-25T13:09:08.000Z</time>
      </trkpt>
      <trkpt lat="45.67898" lon="3.01081">
        <ele>877.79998779297</ele>
        <time>2012-02-25T13:09:13.000Z</time>
      </trkpt>
      <trkpt lat="45.67901" lon="3.01086">
        <ele>878.20001220703</ele>
        <time>2012-02-25T13:09:18.000Z</time>
      </trkpt>
      <trkpt lat="45.67902" lon="3.01091">
        <ele>878.20001220703</ele>
        <time>2012-02-25T13:09:22.000Z</time>
      </trkpt>
      <trkpt lat="45.67904" lon="3.011">
        <ele>878.40002441406</ele>
        <time>2012-02-25T13:09:27.000Z</time>
      </trkpt>
      <trkpt lat="45.67907" lon="3.01105">
        <ele>878.79998779297</ele>
        <time>2012-02-25T13:09:33.000Z</time>
      </trkpt>
      <trkpt lat="45.6791" lon="3.0111">
        <ele>879.20001220703</ele>
        <time>2012-02-25T13:09:44.000Z</time>
      </trkpt>
      <trkpt lat="45.67916" lon="3.01114">
        <ele>880.20001220703</ele>
        <time>2012-02-25T13:09:50.000Z</time>
      </trkpt>
      <trkpt lat="45.67917" lon="3.01114">
        <ele>880.40002441406</ele>
        <time>2012-02-25T13:09:51.000Z</time>
      </trkpt>
      <trkpt lat="45.67919" lon="3.01116">
        <ele>880.59997558594</ele>
        <time>2012-02-25T13:09:53.000Z</time>
      </trkpt>
      <trkpt lat="45.67921" lon="3.0112">
        <ele>880.79998779297</ele>
        <time>2012-02-25T13:09:56.000Z</time>
      </trkpt>
      <trkpt lat="45.67922" lon="3.01121">
        <ele>881</ele>
        <time>2012-02-25T13:09:58.000Z</time>
      </trkpt>
      <trkpt lat="45.67923" lon="3.01119">
        <ele>881.20001220703</ele>
        <time>2012-02-25T13:10:06.000Z</time>
      </trkpt>
      <trkpt lat="45.67923" lon="3.01108">
        <ele>881.40002441406</ele>
        <time>2012-02-25T13:10:12.000Z</time>
      </trkpt>
      <trkpt lat="45.67925" lon="3.01103">
        <ele>881.79998779297</ele>
        <time>2012-02-25T13:10:17.000Z</time>
      </trkpt>
      <trkpt lat="45.67928" lon="3.01108">
        <ele>882.20001220703</ele>
        <time>2012-02-25T13:10:25.000Z</time>
      </trkpt>
      <trkpt lat="45.67927" lon="3.01102">
        <ele>882.20001220703</ele>
        <time>2012-02-25T13:10:43.000Z</time>
      </trkpt>
      <trkpt lat="45.67927" lon="3.01101">
        <ele>882.20001220703</ele>
        <time>2012-02-25T13:10:44.000Z</time>
      </trkpt>
      <trkpt lat="45.67927" lon="3.01089">
        <ele>882.40002441406</ele>
        <time>2012-02-25T13:10:50.000Z</time>
      </trkpt>
      <trkpt lat="45.67928" lon="3.01072">
        <ele>883.20001220703</ele>
        <time>2012-02-25T13:10:59.000Z</time>
      </trkpt>
      <trkpt lat="45.67928" lon="3.01067">
        <ele>883.40002441406</ele>
        <time>2012-02-25T13:11:03.000Z</time>
      </trkpt>
      <trkpt lat="45.67929" lon="3.01062">
        <ele>883.79998779297</ele>
        <time>2012-02-25T13:11:05.000Z</time>
      </trkpt>
      <trkpt lat="45.6793" lon="3.01056">
        <ele>884.20001220703</ele>
        <time>2012-02-25T13:11:09.000Z</time>
      </trkpt>
      <trkpt lat="45.6793" lon="3.01054">
        <ele>884.20001220703</ele>
        <time>2012-02-25T13:11:11.000Z</time>
      </trkpt>
      <trkpt lat="45.67927" lon="3.01047">
        <ele>884</ele>
        <time>2012-02-25T13:11:19.000Z</time>
      </trkpt>
      <trkpt lat="45.67927" lon="3.01049">
        <ele>884</ele>
        <time>2012-02-25T13:11:26.000Z</time>
      </trkpt>
      <trkpt lat="45.6793" lon="3.0104">
        <ele>884.59997558594</ele>
        <time>2012-02-25T13:11:36.000Z</time>
      </trkpt>
      <trkpt lat="45.6793" lon="3.01038">
        <ele>884.79998779297</ele>
        <time>2012-02-25T13:11:37.000Z</time>
      </trkpt>
      <trkpt lat="45.67931" lon="3.01024">
        <ele>885.40002441406</ele>
        <time>2012-02-25T13:11:46.000Z</time>
      </trkpt>
      <trkpt lat="45.67931" lon="3.0102">
        <ele>885.59997558594</ele>
        <time>2012-02-25T13:11:49.000Z</time>
      </trkpt>
      <trkpt lat="45.67927" lon="3.01006">
        <ele>885.59997558594</ele>
        <time>2012-02-25T13:11:57.000Z</time>
      </trkpt>
      <trkpt lat="45.67926" lon="3.01003">
        <ele>885.59997558594</ele>
        <time>2012-02-25T13:11:59.000Z</time>
      </trkpt>
      <trkpt lat="45.67925" lon="3.00992">
        <ele>885.40002441406</ele>
        <time>2012-02-25T13:12:06.000Z</time>
      </trkpt>
      <trkpt lat="45.67925" lon="3.00985">
        <ele>885.20001220703</ele>
        <time>2012-02-25T13:12:11.000Z</time>
      </trkpt>
      <trkpt lat="45.67928" lon="3.00978">
        <ele>885.59997558594</ele>
        <time>2012-02-25T13:12:19.000Z</time>
      </trkpt>
      <trkpt lat="45.67926" lon="3.00977">
        <ele>885.20001220703</ele>
        <time>2012-02-25T13:12:27.000Z</time>
      </trkpt>
      <trkpt lat="45.67924" lon="3.00966">
        <ele>884.79998779297</ele>
        <time>2012-02-25T13:12:32.000Z</time>
      </trkpt>
      <trkpt lat="45.67924" lon="3.00963">
        <ele>884.79998779297</ele>
        <time>2012-02-25T13:12:34.000Z</time>
      </trkpt>
      <trkpt lat="45.67929" lon="3.0095">
        <ele>885.20001220703</ele>
        <time>2012-02-25T13:12:42.000Z</time>
      </trkpt>
      <trkpt lat="45.67935" lon="3.00941">
        <ele>886</ele>
        <time>2012-02-25T13:12:50.000Z</time>
      </trkpt>
      <trkpt lat="45.67942" lon="3.00939">
        <ele>886.79998779297</ele>
        <time>2012-02-25T13:12:58.000Z</time>
      </trkpt>
      <trkpt lat="45.67943" lon="3.00939">
        <ele>887</ele>
        <time>2012-02-25T13:12:59.000Z</time>
      </trkpt>
      <trkpt lat="45.67946" lon="3.0094">
        <ele>887.40002441406</ele>
        <time>2012-02-25T13:13:06.000Z</time>
      </trkpt>
      <trkpt lat="45.67947" lon="3.0094">
        <ele>887.59997558594</ele>
        <time>2012-02-25T13:13:07.000Z</time>
      </trkpt>
      <trkpt lat="45.67955" lon="3.00944">
        <ele>888.79998779297</ele>
        <time>2012-02-25T13:13:15.000Z</time>
      </trkpt>
      <trkpt lat="45.67954" lon="3.00945">
        <ele>888.79998779297</ele>
        <time>2012-02-25T13:13:21.000Z</time>
      </trkpt>
      <trkpt lat="45.67956" lon="3.00945">
        <ele>889</ele>
        <time>2012-02-25T13:13:28.000Z</time>
      </trkpt>
      <trkpt lat="45.67961" lon="3.00947">
        <ele>889.79998779297</ele>
        <time>2012-02-25T13:13:36.000Z</time>
      </trkpt>
      <trkpt lat="45.67959" lon="3.0095">
        <ele>889.59997558594</ele>
        <time>2012-02-25T13:13:41.000Z</time>
      </trkpt>
      <trkpt lat="45.67956" lon="3.00951">
        <ele>889.20001220703</ele>
        <time>2012-02-25T13:13:46.000Z</time>
      </trkpt>
      <trkpt lat="45.67957" lon="3.00958">
        <ele>889.59997558594</ele>
        <time>2012-02-25T13:14:03.000Z</time>
      </trkpt>
      <trkpt lat="45.67957" lon="3.0096">
        <ele>889.59997558594</ele>
        <time>2012-02-25T13:14:06.000Z</time>
      </trkpt>
      <trkpt lat="45.67963" lon="3.00966">
        <ele>890.59997558594</ele>
        <time>2012-02-25T13:14:13.000Z</time>
      </trkpt>
      <trkpt lat="45.67966" lon="3.00972">
        <ele>891.40002441406</ele>
        <time>2012-02-25T13:14:20.000Z</time>
      </trkpt>
      <trkpt lat="45.67972" lon="3.00981">
        <ele>892.59997558594</ele>
        <time>2012-02-25T13:14:28.000Z</time>
      </trkpt>
      <trkpt lat="45.67978" lon="3.0099">
        <ele>893.79998779297</ele>
        <time>2012-02-25T13:14:35.000Z</time>
      </trkpt>
      <trkpt lat="45.67985" lon="3.00998">
        <ele>895.40002441406</ele>
        <time>2012-02-25T13:14:43.000Z</time>
      </trkpt>
      <trkpt lat="45.67993" lon="3.01006">
        <ele>896.59997558594</ele>
        <time>2012-02-25T13:14:52.000Z</time>
      </trkpt>
      <trkpt lat="45.67999" lon="3.01012">
        <ele>897.20001220703</ele>
        <time>2012-02-25T13:14:59.000Z</time>
      </trkpt>
      <trkpt lat="45.68002" lon="3.01014">
        <ele>897.59997558594</ele>
        <time>2012-02-25T13:15:06.000Z</time>
      </trkpt>
      <trkpt lat="45.68003" lon="3.01015">
        <ele>897.59997558594</ele>
        <time>2012-02-25T13:15:18.000Z</time>
      </trkpt>
      <trkpt lat="45.68009" lon="3.01017">
        <ele>898</ele>
        <time>2012-02-25T13:15:36.000Z</time>
      </trkpt>
      <trkpt lat="45.68016" lon="3.01021">
        <ele>898.40002441406</ele>
        <time>2012-02-25T13:15:42.000Z</time>
      </trkpt>
      <trkpt lat="45.68021" lon="3.01023">
        <ele>898.79998779297</ele>
        <time>2012-02-25T13:15:48.000Z</time>
      </trkpt>
      <trkpt lat="45.68027" lon="3.01028">
        <ele>899.20001220703</ele>
        <time>2012-02-25T13:15:55.000Z</time>
      </trkpt>
      <trkpt lat="45.68028" lon="3.01029">
        <ele>899.20001220703</ele>
        <time>2012-02-25T13:15:57.000Z</time>
      </trkpt>
      <trkpt lat="45.68032" lon="3.01033">
        <ele>899.40002441406</ele>
        <time>2012-02-25T13:16:03.000Z</time>
      </trkpt>
      <trkpt lat="45.68039" lon="3.01037">
        <ele>900</ele>
        <time>2012-02-25T13:16:10.000Z</time>
      </trkpt>
      <trkpt lat="45.68045" lon="3.0104">
        <ele>900.40002441406</ele>
        <time>2012-02-25T13:16:15.000Z</time>
      </trkpt>
      <trkpt lat="45.68052" lon="3.01042">
        <ele>901</ele>
        <time>2012-02-25T13:16:21.000Z</time>
      </trkpt>
      <trkpt lat="45.68053" lon="3.01042">
        <ele>901</ele>
        <time>2012-02-25T13:16:22.000Z</time>
      </trkpt>
      <trkpt lat="45.68057" lon="3.01042">
        <ele>901.40002441406</ele>
        <time>2012-02-25T13:16:33.000Z</time>
      </trkpt>
      <trkpt lat="45.68063" lon="3.01046">
        <ele>902</ele>
        <time>2012-02-25T13:16:49.000Z</time>
      </trkpt>
      <trkpt lat="45.68064" lon="3.01047">
        <ele>902</ele>
        <time>2012-02-25T13:16:50.000Z</time>
      </trkpt>
      <trkpt lat="45.68074" lon="3.0105">
        <ele>902.79998779297</ele>
        <time>2012-02-25T13:16:58.000Z</time>
      </trkpt>
      <trkpt lat="45.68077" lon="3.01051">
        <ele>903.20001220703</ele>
        <time>2012-02-25T13:17:00.000Z</time>
      </trkpt>
      <trkpt lat="45.6808" lon="3.01054">
        <ele>903.40002441406</ele>
        <time>2012-02-25T13:17:03.000Z</time>
      </trkpt>
      <trkpt lat="45.68083" lon="3.01061">
        <ele>903.40002441406</ele>
        <time>2012-02-25T13:17:07.000Z</time>
      </trkpt>
      <trkpt lat="45.68088" lon="3.01073">
        <ele>904</ele>
        <time>2012-02-25T13:17:15.000Z</time>
      </trkpt>
      <trkpt lat="45.6809" lon="3.01081">
        <ele>904.20001220703</ele>
        <time>2012-02-25T13:17:20.000Z</time>
      </trkpt>
      <trkpt lat="45.68093" lon="3.01091">
        <ele>905</ele>
        <time>2012-02-25T13:17:26.000Z</time>
      </trkpt>
      <trkpt lat="45.68095" lon="3.01102">
        <ele>906</ele>
        <time>2012-02-25T13:17:35.000Z</time>
      </trkpt>
      <trkpt lat="45.68096" lon="3.01109">
        <ele>906.40002441406</ele>
        <time>2012-02-25T13:17:40.000Z</time>
      </trkpt>
      <trkpt lat="45.68096" lon="3.01116">
        <ele>906.79998779297</ele>
        <time>2012-02-25T13:17:46.000Z</time>
      </trkpt>
      <trkpt lat="45.68098" lon="3.0113">
        <ele>907.79998779297</ele>
        <time>2012-02-25T13:17:55.000Z</time>
      </trkpt>
      <trkpt lat="45.68098" lon="3.01132">
        <ele>907.79998779297</ele>
        <time>2012-02-25T13:17:58.000Z</time>
      </trkpt>
      <trkpt lat="45.681" lon="3.01137">
        <ele>908.40002441406</ele>
        <time>2012-02-25T13:18:03.000Z</time>
      </trkpt>
      <trkpt lat="45.68101" lon="3.01142">
        <ele>908.79998779297</ele>
        <time>2012-02-25T13:18:06.000Z</time>
      </trkpt>
      <trkpt lat="45.68102" lon="3.01148">
        <ele>909.40002441406</ele>
        <time>2012-02-25T13:18:14.000Z</time>
      </trkpt>
      <trkpt lat="45.68103" lon="3.01156">
        <ele>910</ele>
        <time>2012-02-25T13:18:33.000Z</time>
      </trkpt>
      <trkpt lat="45.68103" lon="3.01162">
        <ele>910.40002441406</ele>
        <time>2012-02-25T13:18:44.000Z</time>
      </trkpt>
      <trkpt lat="45.68106" lon="3.01168">
        <ele>911.40002441406</ele>
        <time>2012-02-25T13:19:16.000Z</time>
      </trkpt>
      <trkpt lat="45.68112" lon="3.01171">
        <ele>913</ele>
        <time>2012-02-25T13:19:25.000Z</time>
      </trkpt>
      <trkpt lat="45.68113" lon="3.01171">
        <ele>913.20001220703</ele>
        <time>2012-02-25T13:19:31.000Z</time>
      </trkpt>
      <trkpt lat="45.68118" lon="3.01168">
        <ele>914.20001220703</ele>
        <time>2012-02-25T13:19:36.000Z</time>
      </trkpt>
      <trkpt lat="45.68119" lon="3.01167">
        <ele>914.20001220703</ele>
        <time>2012-02-25T13:19:37.000Z</time>
      </trkpt>
      <trkpt lat="45.68124" lon="3.01164">
        <ele>915</ele>
        <time>2012-02-25T13:19:43.000Z</time>
      </trkpt>
      <trkpt lat="45.68128" lon="3.01159">
        <ele>915.59997558594</ele>
        <time>2012-02-25T13:19:51.000Z</time>
      </trkpt>
      <trkpt lat="45.68133" lon="3.01155">
        <ele>916.40002441406</ele>
        <time>2012-02-25T13:19:58.000Z</time>
      </trkpt>
      <trkpt lat="45.68137" lon="3.01152">
        <ele>917.40002441406</ele>
        <time>2012-02-25T13:20:05.000Z</time>
      </trkpt>
      <trkpt lat="45.68142" lon="3.01153">
        <ele>918.40002441406</ele>
        <time>2012-02-25T13:20:10.000Z</time>
      </trkpt>
      <trkpt lat="45.68143" lon="3.01154">
        <ele>918.79998779297</ele>
        <time>2012-02-25T13:20:15.000Z</time>
      </trkpt>
      <trkpt lat="45.68142" lon="3.01155">
        <ele>918.40002441406</ele>
        <time>2012-02-25T13:20:21.000Z</time>
      </trkpt>
      <trkpt lat="45.68139" lon="3.01163">
        <ele>918.59997558594</ele>
        <time>2012-02-25T13:20:27.000Z</time>
      </trkpt>
      <trkpt lat="45.68139" lon="3.01166">
        <ele>918.59997558594</ele>
        <time>2012-02-25T13:20:30.000Z</time>
      </trkpt>
      <trkpt lat="45.68137" lon="3.01177">
        <ele>919.59997558594</ele>
        <time>2012-02-25T13:20:38.000Z</time>
      </trkpt>
      <trkpt lat="45.68133" lon="3.0119">
        <ele>920.40002441406</ele>
        <time>2012-02-25T13:20:46.000Z</time>
      </trkpt>
      <trkpt lat="45.68132" lon="3.01192">
        <ele>920.40002441406</ele>
        <time>2012-02-25T13:20:49.000Z</time>
      </trkpt>
      <trkpt lat="45.68127" lon="3.01206">
        <ele>921</ele>
        <time>2012-02-25T13:20:58.000Z</time>
      </trkpt>
      <trkpt lat="45.68127" lon="3.01209">
        <ele>921.20001220703</ele>
        <time>2012-02-25T13:21:01.000Z</time>
      </trkpt>
      <trkpt lat="45.68123" lon="3.01216">
        <ele>921</ele>
        <time>2012-02-25T13:21:08.000Z</time>
      </trkpt>
      <trkpt lat="45.68116" lon="3.01225">
        <ele>920.40002441406</ele>
        <time>2012-02-25T13:21:15.000Z</time>
      </trkpt>
      <trkpt lat="45.68114" lon="3.01229">
        <ele>920.20001220703</ele>
        <time>2012-02-25T13:21:19.000Z</time>
      </trkpt>
      <trkpt lat="45.68112" lon="3.01237">
        <ele>920.40002441406</ele>
        <time>2012-02-25T13:21:43.000Z</time>
      </trkpt>
      <trkpt lat="45.68109" lon="3.0125">
        <ele>920.79998779297</ele>
        <time>2012-02-25T13:21:50.000Z</time>
      </trkpt>
      <trkpt lat="45.68105" lon="3.01264">
        <ele>921.40002441406</ele>
        <time>2012-02-25T13:21:58.000Z</time>
      </trkpt>
      <trkpt lat="45.68101" lon="3.01281">
        <ele>922.59997558594</ele>
        <time>2012-02-25T13:22:06.000Z</time>
      </trkpt>
      <trkpt lat="45.68099" lon="3.01295">
        <ele>923.59997558594</ele>
        <time>2012-02-25T13:22:15.000Z</time>
      </trkpt>
      <trkpt lat="45.68097" lon="3.01309">
        <ele>924.59997558594</ele>
        <time>2012-02-25T13:22:23.000Z</time>
      </trkpt>
      <trkpt lat="45.68096" lon="3.01314">
        <ele>925</ele>
        <time>2012-02-25T13:22:26.000Z</time>
      </trkpt>
      <trkpt lat="45.68094" lon="3.01328">
        <ele>926</ele>
        <time>2012-02-25T13:22:34.000Z</time>
      </trkpt>
      <trkpt lat="45.68093" lon="3.01333">
        <ele>926.40002441406</ele>
        <time>2012-02-25T13:22:38.000Z</time>
      </trkpt>
      <trkpt lat="45.68091" lon="3.01346">
        <ele>926.40002441406</ele>
        <time>2012-02-25T13:22:46.000Z</time>
      </trkpt>
      <trkpt lat="45.68092" lon="3.01346">
        <ele>926.59997558594</ele>
        <time>2012-02-25T13:22:52.000Z</time>
      </trkpt>
      <trkpt lat="45.68096" lon="3.01346">
        <ele>927.79998779297</ele>
        <time>2012-02-25T13:22:56.000Z</time>
      </trkpt>
      <trkpt lat="45.681" lon="3.0134">
        <ele>929.20001220703</ele>
        <time>2012-02-25T13:23:04.000Z</time>
      </trkpt>
      <trkpt lat="45.68105" lon="3.01331">
        <ele>930.40002441406</ele>
        <time>2012-02-25T13:23:14.000Z</time>
      </trkpt>
      <trkpt lat="45.68109" lon="3.01324">
        <ele>930.59997558594</ele>
        <time>2012-02-25T13:23:21.000Z</time>
      </trkpt>
      <trkpt lat="45.68113" lon="3.01319">
        <ele>931.40002441406</ele>
        <time>2012-02-25T13:23:27.000Z</time>
      </trkpt>
      <trkpt lat="45.68118" lon="3.01312">
        <ele>932.20001220703</ele>
        <time>2012-02-25T13:23:36.000Z</time>
      </trkpt>
      <trkpt lat="45.6812" lon="3.01307">
        <ele>932.40002441406</ele>
        <time>2012-02-25T13:23:44.000Z</time>
      </trkpt>
      <trkpt lat="45.6812" lon="3.01307">
        <ele>932.20001220703</ele>
        <time>2012-02-25T13:23:52.000Z</time>
      </trkpt>
      <trkpt lat="45.68124" lon="3.01305">
        <ele>933.40002441406</ele>
        <time>2012-02-25T13:24:04.000Z</time>
      </trkpt>
      <trkpt lat="45.68128" lon="3.01301">
        <ele>933.79998779297</ele>
        <time>2012-02-25T13:24:09.000Z</time>
      </trkpt>
      <trkpt lat="45.68129" lon="3.01298">
        <ele>933.79998779297</ele>
        <time>2012-02-25T13:24:12.000Z</time>
      </trkpt>
      <trkpt lat="45.68133" lon="3.01289">
        <ele>934.20001220703</ele>
        <time>2012-02-25T13:24:21.000Z</time>
      </trkpt>
      <trkpt lat="45.68135" lon="3.01287">
        <ele>934.20001220703</ele>
        <time>2012-02-25T13:24:28.000Z</time>
      </trkpt>
      <trkpt lat="45.68139" lon="3.01281">
        <ele>934.79998779297</ele>
        <time>2012-02-25T13:24:36.000Z</time>
      </trkpt>
      <trkpt lat="45.68143" lon="3.01277">
        <ele>935.59997558594</ele>
        <time>2012-02-25T13:24:41.000Z</time>
      </trkpt>
      <trkpt lat="45.68149" lon="3.01271">
        <ele>936.79998779297</ele>
        <time>2012-02-25T13:24:50.000Z</time>
      </trkpt>
      <trkpt lat="45.6815" lon="3.01271">
        <ele>936.79998779297</ele>
        <time>2012-02-25T13:24:51.000Z</time>
      </trkpt>
      <trkpt lat="45.68155" lon="3.01266">
        <ele>937.79998779297</ele>
        <time>2012-02-25T13:24:57.000Z</time>
      </trkpt>
      <trkpt lat="45.68158" lon="3.01265">
        <ele>938.59997558594</ele>
        <time>2012-02-25T13:25:01.000Z</time>
      </trkpt>
      <trkpt lat="45.68167" lon="3.01259">
        <ele>940.40002441406</ele>
        <time>2012-02-25T13:25:10.000Z</time>
      </trkpt>
      <trkpt lat="45.68173" lon="3.01255">
        <ele>940.79998779297</ele>
        <time>2012-02-25T13:25:19.000Z</time>
      </trkpt>
      <trkpt lat="45.68176" lon="3.01253">
        <ele>941</ele>
        <time>2012-02-25T13:25:28.000Z</time>
      </trkpt>
      <trkpt lat="45.68181" lon="3.0125">
        <ele>941.40002441406</ele>
        <time>2012-02-25T13:25:41.000Z</time>
      </trkpt>
      <trkpt lat="45.68187" lon="3.01248">
        <ele>941.79998779297</ele>
        <time>2012-02-25T13:25:48.000Z</time>
      </trkpt>
      <trkpt lat="45.68193" lon="3.01244">
        <ele>942.20001220703</ele>
        <time>2012-02-25T13:25:55.000Z</time>
      </trkpt>
      <trkpt lat="45.68195" lon="3.01244">
        <ele>942.40002441406</ele>
        <time>2012-02-25T13:25:56.000Z</time>
      </trkpt>
      <trkpt lat="45.68199" lon="3.01242">
        <ele>943</ele>
        <time>2012-02-25T13:26:01.000Z</time>
      </trkpt>
      <trkpt lat="45.68207" lon="3.0124">
        <ele>943.79998779297</ele>
        <time>2012-02-25T13:26:10.000Z</time>
      </trkpt>
      <trkpt lat="45.68211" lon="3.01239">
        <ele>944.40002441406</ele>
        <time>2012-02-25T13:26:16.000Z</time>
      </trkpt>
      <trkpt lat="45.68216" lon="3.01237">
        <ele>945</ele>
        <time>2012-02-25T13:26:23.000Z</time>
      </trkpt>
      <trkpt lat="45.68223" lon="3.01236">
        <ele>946.20001220703</ele>
        <time>2012-02-25T13:26:30.000Z</time>
      </trkpt>
      <trkpt lat="45.68229" lon="3.01236">
        <ele>947.20001220703</ele>
        <time>2012-02-25T13:26:38.000Z</time>
      </trkpt>
      <trkpt lat="45.68238" lon="3.01233">
        <ele>948.20001220703</ele>
        <time>2012-02-25T13:26:46.000Z</time>
      </trkpt>
      <trkpt lat="45.68243" lon="3.01231">
        <ele>949</ele>
        <time>2012-02-25T13:26:54.000Z</time>
      </trkpt>
      <trkpt lat="45.68247" lon="3.0123">
        <ele>949.59997558594</ele>
        <time>2012-02-25T13:27:03.000Z</time>
      </trkpt>
      <trkpt lat="45.68251" lon="3.01228">
        <ele>950</ele>
        <time>2012-02-25T13:27:10.000Z</time>
      </trkpt>
      <trkpt lat="45.68254" lon="3.01226">
        <ele>950.40002441406</ele>
        <time>2012-02-25T13:27:15.000Z</time>
      </trkpt>
      <trkpt lat="45.68255" lon="3.01226">
        <ele>950.59997558594</ele>
        <time>2012-02-25T13:27:16.000Z</time>
      </trkpt>
      <trkpt lat="45.6826" lon="3.01221">
        <ele>951</ele>
        <time>2012-02-25T13:27:24.000Z</time>
      </trkpt>
      <trkpt lat="45.68264" lon="3.01218">
        <ele>951.40002441406</ele>
        <time>2012-02-25T13:27:30.000Z</time>
      </trkpt>
      <trkpt lat="45.68266" lon="3.01217">
        <ele>951.79998779297</ele>
        <time>2012-02-25T13:27:33.000Z</time>
      </trkpt>
      <trkpt lat="45.6827" lon="3.01217">
        <ele>952.40002441406</ele>
        <time>2012-02-25T13:27:40.000Z</time>
      </trkpt>
      <trkpt lat="45.68273" lon="3.01217">
        <ele>953</ele>
        <time>2012-02-25T13:27:45.000Z</time>
      </trkpt>
      <trkpt lat="45.68278" lon="3.01216">
        <ele>953.79998779297</ele>
        <time>2012-02-25T13:27:51.000Z</time>
      </trkpt>
      <trkpt lat="45.68285" lon="3.01218">
        <ele>955.20001220703</ele>
        <time>2012-02-25T13:28:00.000Z</time>
      </trkpt>
      <trkpt lat="45.68291" lon="3.01222">
        <ele>956.59997558594</ele>
        <time>2012-02-25T13:28:08.000Z</time>
      </trkpt>
      <trkpt lat="45.68296" lon="3.0123">
        <ele>958.20001220703</ele>
        <time>2012-02-25T13:28:18.000Z</time>
      </trkpt>
      <trkpt lat="45.68298" lon="3.01236">
        <ele>959</ele>
        <time>2012-02-25T13:28:25.000Z</time>
      </trkpt>
      <trkpt lat="45.683" lon="3.01241">
        <ele>959.79998779297</ele>
        <time>2012-02-25T13:28:31.000Z</time>
      </trkpt>
      <trkpt lat="45.68302" lon="3.01247">
        <ele>960.59997558594</ele>
        <time>2012-02-25T13:28:38.000Z</time>
      </trkpt>
      <trkpt lat="45.68303" lon="3.01252">
        <ele>961.20001220703</ele>
        <time>2012-02-25T13:28:43.000Z</time>
      </trkpt>
      <trkpt lat="45.68305" lon="3.01255">
        <ele>961.79998779297</ele>
        <time>2012-02-25T13:28:51.000Z</time>
      </trkpt>
      <trkpt lat="45.68307" lon="3.01258">
        <ele>962.40002441406</ele>
        <time>2012-02-25T13:28:56.000Z</time>
      </trkpt>
      <trkpt lat="45.68309" lon="3.01264">
        <ele>963.40002441406</ele>
        <time>2012-02-25T13:29:06.000Z</time>
      </trkpt>
      <trkpt lat="45.6831" lon="3.01269">
        <ele>964</ele>
        <time>2012-02-25T13:29:10.000Z</time>
      </trkpt>
      <trkpt lat="45.68311" lon="3.01275">
        <ele>964.59997558594</ele>
        <time>2012-02-25T13:29:18.000Z</time>
      </trkpt>
      <trkpt lat="45.6831" lon="3.01284">
        <ele>965.40002441406</ele>
        <time>2012-02-25T13:29:26.000Z</time>
      </trkpt>
      <trkpt lat="45.68309" lon="3.01289">
        <ele>965.79998779297</ele>
        <time>2012-02-25T13:29:33.000Z</time>
      </trkpt>
      <trkpt lat="45.68305" lon="3.01298">
        <ele>966.40002441406</ele>
        <time>2012-02-25T13:29:43.000Z</time>
      </trkpt>
      <trkpt lat="45.68302" lon="3.01308">
        <ele>967</ele>
        <time>2012-02-25T13:29:51.000Z</time>
      </trkpt>
      <trkpt lat="45.68301" lon="3.01317">
        <ele>968</ele>
        <time>2012-02-25T13:30:01.000Z</time>
      </trkpt>
      <trkpt lat="45.68299" lon="3.0133">
        <ele>969.20001220703</ele>
        <time>2012-02-25T13:30:10.000Z</time>
      </trkpt>
      <trkpt lat="45.68299" lon="3.01338">
        <ele>969.59997558594</ele>
        <time>2012-02-25T13:30:17.000Z</time>
      </trkpt>
      <trkpt lat="45.68299" lon="3.0134">
        <ele>969.79998779297</ele>
        <time>2012-02-25T13:30:19.000Z</time>
      </trkpt>
      <trkpt lat="45.68298" lon="3.01349">
        <ele>970</ele>
        <time>2012-02-25T13:30:28.000Z</time>
      </trkpt>
      <trkpt lat="45.68298" lon="3.01357">
        <ele>970.40002441406</ele>
        <time>2012-02-25T13:30:36.000Z</time>
      </trkpt>
      <trkpt lat="45.68299" lon="3.01355">
        <ele>970.20001220703</ele>
        <time>2012-02-25T13:31:00.000Z</time>
      </trkpt>
      <trkpt lat="45.68299" lon="3.0135">
        <ele>970.20001220703</ele>
        <time>2012-02-25T13:31:06.000Z</time>
      </trkpt>
      <trkpt lat="45.68297" lon="3.01355">
        <ele>970.20001220703</ele>
        <time>2012-02-25T13:31:13.000Z</time>
      </trkpt>
      <trkpt lat="45.68298" lon="3.01362">
        <ele>970.40002441406</ele>
        <time>2012-02-25T13:31:20.000Z</time>
      </trkpt>
      <trkpt lat="45.68298" lon="3.01363">
        <ele>970.59997558594</ele>
        <time>2012-02-25T13:31:26.000Z</time>
      </trkpt>
      <trkpt lat="45.68296" lon="3.01365">
        <ele>970.40002441406</ele>
        <time>2012-02-25T13:32:25.000Z</time>
      </trkpt>
      <trkpt lat="45.68298" lon="3.01365">
        <ele>970.59997558594</ele>
        <time>2012-02-25T13:32:36.000Z</time>
      </trkpt>
      <trkpt lat="45.68297" lon="3.01366">
        <ele>970.59997558594</ele>
        <time>2012-02-25T13:32:48.000Z</time>
      </trkpt>
      <trkpt lat="45.68297" lon="3.01381">
        <ele>971.20001220703</ele>
        <time>2012-02-25T13:34:51.000Z</time>
      </trkpt>
      <trkpt lat="45.68298" lon="3.01388">
        <ele>971.40002441406</ele>
        <time>2012-02-25T13:34:59.000Z</time>
      </trkpt>
      <trkpt lat="45.68299" lon="3.01393">
        <ele>971.79998779297</ele>
        <time>2012-02-25T13:35:07.000Z</time>
      </trkpt>
      <trkpt lat="45.68299" lon="3.01395">
        <ele>971.79998779297</ele>
        <time>2012-02-25T13:35:12.000Z</time>
      </trkpt>
      <trkpt lat="45.683" lon="3.01401">
        <ele>972</ele>
        <time>2012-02-25T13:35:17.000Z</time>
      </trkpt>
      <trkpt lat="45.68302" lon="3.01413">
        <ele>972.59997558594</ele>
        <time>2012-02-25T13:35:26.000Z</time>
      </trkpt>
      <trkpt lat="45.68303" lon="3.01425">
        <ele>972.59997558594</ele>
        <time>2012-02-25T13:35:34.000Z</time>
      </trkpt>
      <trkpt lat="45.68303" lon="3.01434">
        <ele>972.59997558594</ele>
        <time>2012-02-25T13:35:40.000Z</time>
      </trkpt>
      <trkpt lat="45.68303" lon="3.01437">
        <ele>972.59997558594</ele>
        <time>2012-02-25T13:35:44.000Z</time>
      </trkpt>
      <trkpt lat="45.68305" lon="3.01447">
        <ele>972.59997558594</ele>
        <time>2012-02-25T13:35:50.000Z</time>
      </trkpt>
      <trkpt lat="45.68305" lon="3.01448">
        <ele>972.59997558594</ele>
        <time>2012-02-25T13:35:51.000Z</time>
      </trkpt>
      <trkpt lat="45.68306" lon="3.01456">
        <ele>972.59997558594</ele>
        <time>2012-02-25T13:35:58.000Z</time>
      </trkpt>
      <trkpt lat="45.68308" lon="3.0147">
        <ele>972.59997558594</ele>
        <time>2012-02-25T13:36:07.000Z</time>
      </trkpt>
      <trkpt lat="45.68308" lon="3.01472">
        <ele>972.59997558594</ele>
        <time>2012-02-25T13:36:09.000Z</time>
      </trkpt>
      <trkpt lat="45.6831" lon="3.01484">
        <ele>972.59997558594</ele>
        <time>2012-02-25T13:36:16.000Z</time>
      </trkpt>
      <trkpt lat="45.68311" lon="3.01493">
        <ele>972.59997558594</ele>
        <time>2012-02-25T13:36:22.000Z</time>
      </trkpt>
      <trkpt lat="45.68311" lon="3.01502">
        <ele>972.59997558594</ele>
        <time>2012-02-25T13:36:28.000Z</time>
      </trkpt>
      <trkpt lat="45.68313" lon="3.01515">
        <ele>972.59997558594</ele>
        <time>2012-02-25T13:36:38.000Z</time>
      </trkpt>
      <trkpt lat="45.68313" lon="3.01521">
        <ele>972.59997558594</ele>
        <time>2012-02-25T13:36:43.000Z</time>
      </trkpt>
      <trkpt lat="45.68313" lon="3.01525">
        <ele>972.40002441406</ele>
        <time>2012-02-25T13:36:46.000Z</time>
      </trkpt>
      <trkpt lat="45.68315" lon="3.01536">
        <ele>972.40002441406</ele>
        <time>2012-02-25T13:36:56.000Z</time>
      </trkpt>
      <trkpt lat="45.68317" lon="3.01544">
        <ele>972.59997558594</ele>
        <time>2012-02-25T13:37:02.000Z</time>
      </trkpt>
      <trkpt lat="45.68317" lon="3.01546">
        <ele>972.59997558594</ele>
        <time>2012-02-25T13:37:03.000Z</time>
      </trkpt>
      <trkpt lat="45.68319" lon="3.01555">
        <ele>972.59997558594</ele>
        <time>2012-02-25T13:37:09.000Z</time>
      </trkpt>
      <trkpt lat="45.68319" lon="3.01558">
        <ele>972.59997558594</ele>
        <time>2012-02-25T13:37:10.000Z</time>
      </trkpt>
      <trkpt lat="45.68321" lon="3.01565">
        <ele>972.79998779297</ele>
        <time>2012-02-25T13:37:16.000Z</time>
      </trkpt>
      <trkpt lat="45.68321" lon="3.01569">
        <ele>972.79998779297</ele>
        <time>2012-02-25T13:37:19.000Z</time>
      </trkpt>
      <trkpt lat="45.68322" lon="3.01576">
        <ele>972.79998779297</ele>
        <time>2012-02-25T13:37:24.000Z</time>
      </trkpt>
      <trkpt lat="45.68326" lon="3.01586">
        <ele>973.20001220703</ele>
        <time>2012-02-25T13:37:33.000Z</time>
      </trkpt>
      <trkpt lat="45.68327" lon="3.01589">
        <ele>973.20001220703</ele>
        <time>2012-02-25T13:37:36.000Z</time>
      </trkpt>
      <trkpt lat="45.68329" lon="3.01593">
        <ele>973.40002441406</ele>
        <time>2012-02-25T13:37:39.000Z</time>
      </trkpt>
      <trkpt lat="45.68333" lon="3.01598">
        <ele>973.79998779297</ele>
        <time>2012-02-25T13:37:43.000Z</time>
      </trkpt>
      <trkpt lat="45.68337" lon="3.01602">
        <ele>974.20001220703</ele>
        <time>2012-02-25T13:37:48.000Z</time>
      </trkpt>
      <trkpt lat="45.68342" lon="3.01606">
        <ele>974.59997558594</ele>
        <time>2012-02-25T13:37:54.000Z</time>
      </trkpt>
      <trkpt lat="45.68348" lon="3.0161">
        <ele>975.20001220703</ele>
        <time>2012-02-25T13:38:01.000Z</time>
      </trkpt>
      <trkpt lat="45.6835" lon="3.0161">
        <ele>975.40002441406</ele>
        <time>2012-02-25T13:38:03.000Z</time>
      </trkpt>
      <trkpt lat="45.68358" lon="3.01612">
        <ele>976.20001220703</ele>
        <time>2012-02-25T13:38:11.000Z</time>
      </trkpt>
      <trkpt lat="45.68361" lon="3.01613">
        <ele>976.40002441406</ele>
        <time>2012-02-25T13:38:15.000Z</time>
      </trkpt>
      <trkpt lat="45.68367" lon="3.01616">
        <ele>977</ele>
        <time>2012-02-25T13:38:21.000Z</time>
      </trkpt>
      <trkpt lat="45.68375" lon="3.01618">
        <ele>977.79998779297</ele>
        <time>2012-02-25T13:38:30.000Z</time>
      </trkpt>
      <trkpt lat="45.68383" lon="3.01621">
        <ele>978.59997558594</ele>
        <time>2012-02-25T13:38:38.000Z</time>
      </trkpt>
      <trkpt lat="45.68389" lon="3.01623">
        <ele>979.20001220703</ele>
        <time>2012-02-25T13:38:45.000Z</time>
      </trkpt>
      <trkpt lat="45.6839" lon="3.01623">
        <ele>979.40002441406</ele>
        <time>2012-02-25T13:38:46.000Z</time>
      </trkpt>
      <trkpt lat="45.68398" lon="3.01626">
        <ele>980</ele>
        <time>2012-02-25T13:38:54.000Z</time>
      </trkpt>
      <trkpt lat="45.68399" lon="3.01626">
        <ele>980.20001220703</ele>
        <time>2012-02-25T13:38:55.000Z</time>
      </trkpt>
      <trkpt lat="45.68406" lon="3.01627">
        <ele>981</ele>
        <time>2012-02-25T13:39:02.000Z</time>
      </trkpt>
      <trkpt lat="45.68411" lon="3.01628">
        <ele>981.40002441406</ele>
        <time>2012-02-25T13:39:08.000Z</time>
      </trkpt>
      <trkpt lat="45.68419" lon="3.0163">
        <ele>982.20001220703</ele>
        <time>2012-02-25T13:39:16.000Z</time>
      </trkpt>
      <trkpt lat="45.68428" lon="3.01631">
        <ele>982.79998779297</ele>
        <time>2012-02-25T13:39:25.000Z</time>
      </trkpt>
      <trkpt lat="45.6843" lon="3.01632">
        <ele>983</ele>
        <time>2012-02-25T13:39:26.000Z</time>
      </trkpt>
      <trkpt lat="45.68434" lon="3.01633">
        <ele>983.20001220703</ele>
        <time>2012-02-25T13:39:31.000Z</time>
      </trkpt>
      <trkpt lat="45.68437" lon="3.01636">
        <ele>983.59997558594</ele>
        <time>2012-02-25T13:39:34.000Z</time>
      </trkpt>
      <trkpt lat="45.68444" lon="3.01639">
        <ele>984</ele>
        <time>2012-02-25T13:39:42.000Z</time>
      </trkpt>
      <trkpt lat="45.68451" lon="3.0164">
        <ele>984.59997558594</ele>
        <time>2012-02-25T13:39:50.000Z</time>
      </trkpt>
      <trkpt lat="45.68459" lon="3.0164">
        <ele>985.20001220703</ele>
        <time>2012-02-25T13:39:58.000Z</time>
      </trkpt>
      <trkpt lat="45.68468" lon="3.01641">
        <ele>986</ele>
        <time>2012-02-25T13:40:06.000Z</time>
      </trkpt>
      <trkpt lat="45.68477" lon="3.01642">
        <ele>986.59997558594</ele>
        <time>2012-02-25T13:40:15.000Z</time>
      </trkpt>
      <trkpt lat="45.68484" lon="3.01642">
        <ele>987.20001220703</ele>
        <time>2012-02-25T13:40:22.000Z</time>
      </trkpt>
      <trkpt lat="45.68491" lon="3.01642">
        <ele>987.59997558594</ele>
        <time>2012-02-25T13:40:28.000Z</time>
      </trkpt>
      <trkpt lat="45.685" lon="3.01643">
        <ele>988.20001220703</ele>
        <time>2012-02-25T13:40:37.000Z</time>
      </trkpt>
      <trkpt lat="45.6851" lon="3.01645">
        <ele>989</ele>
        <time>2012-02-25T13:40:46.000Z</time>
      </trkpt>
      <trkpt lat="45.6852" lon="3.01646">
        <ele>989.79998779297</ele>
        <time>2012-02-25T13:40:55.000Z</time>
      </trkpt>
      <trkpt lat="45.68532" lon="3.01647">
        <ele>990.59997558594</ele>
        <time>2012-02-25T13:41:05.000Z</time>
      </trkpt>
      <trkpt lat="45.68543" lon="3.01649">
        <ele>991.59997558594</ele>
        <time>2012-02-25T13:41:16.000Z</time>
      </trkpt>
      <trkpt lat="45.68548" lon="3.0165">
        <ele>992</ele>
        <time>2012-02-25T13:41:23.000Z</time>
      </trkpt>
      <trkpt lat="45.68553" lon="3.01651">
        <ele>992.20001220703</ele>
        <time>2012-02-25T13:41:29.000Z</time>
      </trkpt>
      <trkpt lat="45.68557" lon="3.01652">
        <ele>992.40002441406</ele>
        <time>2012-02-25T13:41:33.000Z</time>
      </trkpt>
      <trkpt lat="45.68561" lon="3.01654">
        <ele>992.79998779297</ele>
        <time>2012-02-25T13:41:37.000Z</time>
      </trkpt>
      <trkpt lat="45.68565" lon="3.01655">
        <ele>993</ele>
        <time>2012-02-25T13:41:43.000Z</time>
      </trkpt>
      <trkpt lat="45.6857" lon="3.01655">
        <ele>993.40002441406</ele>
        <time>2012-02-25T13:41:46.000Z</time>
      </trkpt>
      <trkpt lat="45.68577" lon="3.01656">
        <ele>994</ele>
        <time>2012-02-25T13:41:54.000Z</time>
      </trkpt>
      <trkpt lat="45.68584" lon="3.01656">
        <ele>994.40002441406</ele>
        <time>2012-02-25T13:42:01.000Z</time>
      </trkpt>
      <trkpt lat="45.68593" lon="3.01658">
        <ele>995.20001220703</ele>
        <time>2012-02-25T13:42:09.000Z</time>
      </trkpt>
      <trkpt lat="45.68602" lon="3.01658">
        <ele>995.79998779297</ele>
        <time>2012-02-25T13:42:16.000Z</time>
      </trkpt>
      <trkpt lat="45.6861" lon="3.0166">
        <ele>996.40002441406</ele>
        <time>2012-02-25T13:42:25.000Z</time>
      </trkpt>
      <trkpt lat="45.68619" lon="3.0166">
        <ele>997.20001220703</ele>
        <time>2012-02-25T13:42:33.000Z</time>
      </trkpt>
      <trkpt lat="45.68629" lon="3.01661">
        <ele>998</ele>
        <time>2012-02-25T13:42:42.000Z</time>
      </trkpt>
      <trkpt lat="45.6863" lon="3.01661">
        <ele>998</ele>
        <time>2012-02-25T13:42:43.000Z</time>
      </trkpt>
      <trkpt lat="45.68638" lon="3.01662">
        <ele>998.79998779297</ele>
        <time>2012-02-25T13:42:51.000Z</time>
      </trkpt>
      <trkpt lat="45.68646" lon="3.01662">
        <ele>999.40002441406</ele>
        <time>2012-02-25T13:42:59.000Z</time>
      </trkpt>
      <trkpt lat="45.68653" lon="3.01663">
        <ele>1000</ele>
        <time>2012-02-25T13:43:06.000Z</time>
      </trkpt>
      <trkpt lat="45.68663" lon="3.01664">
        <ele>1000.799987793</ele>
        <time>2012-02-25T13:43:16.000Z</time>
      </trkpt>
      <trkpt lat="45.6867" lon="3.01664">
        <ele>1001.200012207</ele>
        <time>2012-02-25T13:43:24.000Z</time>
      </trkpt>
      <trkpt lat="45.68676" lon="3.01665">
        <ele>1001.5999755859</ele>
        <time>2012-02-25T13:43:30.000Z</time>
      </trkpt>
      <trkpt lat="45.68683" lon="3.01666">
        <ele>1002</ele>
        <time>2012-02-25T13:43:37.000Z</time>
      </trkpt>
      <trkpt lat="45.68689" lon="3.01667">
        <ele>1002.4000244141</ele>
        <time>2012-02-25T13:43:44.000Z</time>
      </trkpt>
      <trkpt lat="45.68695" lon="3.01668">
        <ele>1002.5999755859</ele>
        <time>2012-02-25T13:43:51.000Z</time>
      </trkpt>
      <trkpt lat="45.68699" lon="3.01669">
        <ele>1002.799987793</ele>
        <time>2012-02-25T13:43:56.000Z</time>
      </trkpt>
      <trkpt lat="45.68704" lon="3.01669">
        <ele>1003.200012207</ele>
        <time>2012-02-25T13:44:02.000Z</time>
      </trkpt>
      <trkpt lat="45.68709" lon="3.01669">
        <ele>1003.4000244141</ele>
        <time>2012-02-25T13:44:09.000Z</time>
      </trkpt>
      <trkpt lat="45.68715" lon="3.01669">
        <ele>1003.799987793</ele>
        <time>2012-02-25T13:44:16.000Z</time>
      </trkpt>
      <trkpt lat="45.68716" lon="3.0167">
        <ele>1003.799987793</ele>
        <time>2012-02-25T13:44:17.000Z</time>
      </trkpt>
      <trkpt lat="45.6872" lon="3.0167">
        <ele>1004.200012207</ele>
        <time>2012-02-25T13:44:24.000Z</time>
      </trkpt>
      <trkpt lat="45.68725" lon="3.01671">
        <ele>1004.4000244141</ele>
        <time>2012-02-25T13:44:29.000Z</time>
      </trkpt>
      <trkpt lat="45.68727" lon="3.01672">
        <ele>1004.4000244141</ele>
        <time>2012-02-25T13:44:35.000Z</time>
      </trkpt>
      <trkpt lat="45.68735" lon="3.01672">
        <ele>1005</ele>
        <time>2012-02-25T13:44:43.000Z</time>
      </trkpt>
      <trkpt lat="45.68745" lon="3.01673">
        <ele>1005.5999755859</ele>
        <time>2012-02-25T13:44:52.000Z</time>
      </trkpt>
      <trkpt lat="45.68746" lon="3.01673">
        <ele>1005.5999755859</ele>
        <time>2012-02-25T13:44:53.000Z</time>
      </trkpt>
      <trkpt lat="45.68754" lon="3.01675">
        <ele>1006.200012207</ele>
        <time>2012-02-25T13:45:01.000Z</time>
      </trkpt>
      <trkpt lat="45.68756" lon="3.01675">
        <ele>1006.4000244141</ele>
        <time>2012-02-25T13:45:03.000Z</time>
      </trkpt>
      <trkpt lat="45.68766" lon="3.01677">
        <ele>1007.4000244141</ele>
        <time>2012-02-25T13:45:14.000Z</time>
      </trkpt>
      <trkpt lat="45.68771" lon="3.01677">
        <ele>1007.5999755859</ele>
        <time>2012-02-25T13:45:19.000Z</time>
      </trkpt>
      <trkpt lat="45.68777" lon="3.01678">
        <ele>1008.200012207</ele>
        <time>2012-02-25T13:45:27.000Z</time>
      </trkpt>
      <trkpt lat="45.6878" lon="3.01678">
        <ele>1008.5999755859</ele>
        <time>2012-02-25T13:45:33.000Z</time>
      </trkpt>
      <trkpt lat="45.6878" lon="3.01681">
        <ele>1008.5999755859</ele>
        <time>2012-02-25T13:45:39.000Z</time>
      </trkpt>
      <trkpt lat="45.68794" lon="3.01679">
        <ele>1009.799987793</ele>
        <time>2012-02-25T13:47:04.000Z</time>
      </trkpt>
      <trkpt lat="45.68794" lon="3.01683">
        <ele>1009.799987793</ele>
        <time>2012-02-25T13:47:10.000Z</time>
      </trkpt>
      <trkpt lat="45.68791" lon="3.0169">
        <ele>1009.200012207</ele>
        <time>2012-02-25T13:47:21.000Z</time>
      </trkpt>
      <trkpt lat="45.68788" lon="3.01695">
        <ele>1008.799987793</ele>
        <time>2012-02-25T13:47:28.000Z</time>
      </trkpt>
      <trkpt lat="45.68787" lon="3.01696">
        <ele>1008.799987793</ele>
        <time>2012-02-25T13:47:32.000Z</time>
      </trkpt>
      <trkpt lat="45.68784" lon="3.01703">
        <ele>1008.200012207</ele>
        <time>2012-02-25T13:47:40.000Z</time>
      </trkpt>
      <trkpt lat="45.68781" lon="3.0171">
        <ele>1007.799987793</ele>
        <time>2012-02-25T13:47:47.000Z</time>
      </trkpt>
      <trkpt lat="45.68778" lon="3.01716">
        <ele>1007.4000244141</ele>
        <time>2012-02-25T13:47:54.000Z</time>
      </trkpt>
      <trkpt lat="45.68776" lon="3.01724">
        <ele>1006.799987793</ele>
        <time>2012-02-25T13:48:03.000Z</time>
      </trkpt>
      <trkpt lat="45.68775" lon="3.01729">
        <ele>1006.5999755859</ele>
        <time>2012-02-25T13:48:09.000Z</time>
      </trkpt>
      <trkpt lat="45.68771" lon="3.01737">
        <ele>1006.200012207</ele>
        <time>2012-02-25T13:48:17.000Z</time>
      </trkpt>
      <trkpt lat="45.6877" lon="3.01743">
        <ele>1005.799987793</ele>
        <time>2012-02-25T13:48:23.000Z</time>
      </trkpt>
      <trkpt lat="45.68768" lon="3.01751">
        <ele>1005.5999755859</ele>
        <time>2012-02-25T13:48:30.000Z</time>
      </trkpt>
      <trkpt lat="45.68768" lon="3.01752">
        <ele>1005.4000244141</ele>
        <time>2012-02-25T13:48:31.000Z</time>
      </trkpt>
      <trkpt lat="45.68767" lon="3.01761">
        <ele>1005</ele>
        <time>2012-02-25T13:48:37.000Z</time>
      </trkpt>
      <trkpt lat="45.68767" lon="3.01768">
        <ele>1004.799987793</ele>
        <time>2012-02-25T13:48:41.000Z</time>
      </trkpt>
      <trkpt lat="45.68767" lon="3.01773">
        <ele>1004.5999755859</ele>
        <time>2012-02-25T13:48:45.000Z</time>
      </trkpt>
      <trkpt lat="45.68767" lon="3.01777">
        <ele>1004.4000244141</ele>
        <time>2012-02-25T13:48:48.000Z</time>
      </trkpt>
      <trkpt lat="45.68766" lon="3.01785">
        <ele>1004</ele>
        <time>2012-02-25T13:48:54.000Z</time>
      </trkpt>
      <trkpt lat="45.68766" lon="3.0179">
        <ele>1004</ele>
        <time>2012-02-25T13:48:58.000Z</time>
      </trkpt>
      <trkpt lat="45.68765" lon="3.01796">
        <ele>1003.5999755859</ele>
        <time>2012-02-25T13:49:02.000Z</time>
      </trkpt>
      <trkpt lat="45.68765" lon="3.01805">
        <ele>1003.200012207</ele>
        <time>2012-02-25T13:49:09.000Z</time>
      </trkpt>
      <trkpt lat="45.68765" lon="3.01811">
        <ele>1003</ele>
        <time>2012-02-25T13:49:14.000Z</time>
      </trkpt>
      <trkpt lat="45.68763" lon="3.01817">
        <ele>1002.799987793</ele>
        <time>2012-02-25T13:49:19.000Z</time>
      </trkpt>
      <trkpt lat="45.68763" lon="3.01819">
        <ele>1002.5999755859</ele>
        <time>2012-02-25T13:49:20.000Z</time>
      </trkpt>
      <trkpt lat="45.68763" lon="3.01824">
        <ele>1002.4000244141</ele>
        <time>2012-02-25T13:49:25.000Z</time>
      </trkpt>
      <trkpt lat="45.68761" lon="3.01834">
        <ele>1002</ele>
        <time>2012-02-25T13:49:32.000Z</time>
      </trkpt>
      <trkpt lat="45.68761" lon="3.01836">
        <ele>1001.799987793</ele>
        <time>2012-02-25T13:49:34.000Z</time>
      </trkpt>
      <trkpt lat="45.68759" lon="3.01844">
        <ele>1001.200012207</ele>
        <time>2012-02-25T13:49:42.000Z</time>
      </trkpt>
      <trkpt lat="45.68758" lon="3.01848">
        <ele>1000.799987793</ele>
        <time>2012-02-25T13:49:47.000Z</time>
      </trkpt>
      <trkpt lat="45.68757" lon="3.01852">
        <ele>1000.4000244141</ele>
        <time>2012-02-25T13:49:52.000Z</time>
      </trkpt>
      <trkpt lat="45.68755" lon="3.01858">
        <ele>1000</ele>
        <time>2012-02-25T13:50:00.000Z</time>
      </trkpt>
      <trkpt lat="45.68754" lon="3.01865">
        <ele>999.40002441406</ele>
        <time>2012-02-25T13:50:06.000Z</time>
      </trkpt>
      <trkpt lat="45.68753" lon="3.01873">
        <ele>998.79998779297</ele>
        <time>2012-02-25T13:50:12.000Z</time>
      </trkpt>
      <trkpt lat="45.68751" lon="3.01884">
        <ele>998</ele>
        <time>2012-02-25T13:50:23.000Z</time>
      </trkpt>
      <trkpt lat="45.68751" lon="3.01891">
        <ele>997.59997558594</ele>
        <time>2012-02-25T13:50:29.000Z</time>
      </trkpt>
      <trkpt lat="45.6875" lon="3.01897">
        <ele>997.20001220703</ele>
        <time>2012-02-25T13:50:35.000Z</time>
      </trkpt>
      <trkpt lat="45.68749" lon="3.019">
        <ele>997</ele>
        <time>2012-02-25T13:50:40.000Z</time>
      </trkpt>
      <trkpt lat="45.68748" lon="3.01906">
        <ele>996.59997558594</ele>
        <time>2012-02-25T13:50:46.000Z</time>
      </trkpt>
      <trkpt lat="45.68748" lon="3.01915">
        <ele>996</ele>
        <time>2012-02-25T13:50:54.000Z</time>
      </trkpt>
      <trkpt lat="45.68748" lon="3.0192">
        <ele>995.59997558594</ele>
        <time>2012-02-25T13:51:00.000Z</time>
      </trkpt>
      <trkpt lat="45.68747" lon="3.01929">
        <ele>995.20001220703</ele>
        <time>2012-02-25T13:51:09.000Z</time>
      </trkpt>
      <trkpt lat="45.68747" lon="3.01934">
        <ele>995</ele>
        <time>2012-02-25T13:51:14.000Z</time>
      </trkpt>
      <trkpt lat="45.68747" lon="3.01935">
        <ele>994.79998779297</ele>
        <time>2012-02-25T13:51:15.000Z</time>
      </trkpt>
      <trkpt lat="45.68746" lon="3.01951">
        <ele>994</ele>
        <time>2012-02-25T13:51:25.000Z</time>
      </trkpt>
      <trkpt lat="45.68746" lon="3.01953">
        <ele>994</ele>
        <time>2012-02-25T13:51:26.000Z</time>
      </trkpt>
      <trkpt lat="45.68746" lon="3.01965">
        <ele>993.40002441406</ele>
        <time>2012-02-25T13:51:34.000Z</time>
      </trkpt>
      <trkpt lat="45.68746" lon="3.01968">
        <ele>993.40002441406</ele>
        <time>2012-02-25T13:51:36.000Z</time>
      </trkpt>
      <trkpt lat="45.68745" lon="3.01975">
        <ele>993</ele>
        <time>2012-02-25T13:51:44.000Z</time>
      </trkpt>
      <trkpt lat="45.68746" lon="3.01981">
        <ele>992.59997558594</ele>
        <time>2012-02-25T13:51:49.000Z</time>
      </trkpt>
      <trkpt lat="45.68746" lon="3.01985">
        <ele>992.40002441406</ele>
        <time>2012-02-25T13:51:52.000Z</time>
      </trkpt>
      <trkpt lat="45.68746" lon="3.01994">
        <ele>992</ele>
        <time>2012-02-25T13:51:57.000Z</time>
      </trkpt>
      <trkpt lat="45.68744" lon="3.02005">
        <ele>991.40002441406</ele>
        <time>2012-02-25T13:52:04.000Z</time>
      </trkpt>
      <trkpt lat="45.6874" lon="3.02013">
        <ele>990.79998779297</ele>
        <time>2012-02-25T13:52:09.000Z</time>
      </trkpt>
      <trkpt lat="45.68739" lon="3.02016">
        <ele>990.59997558594</ele>
        <time>2012-02-25T13:52:11.000Z</time>
      </trkpt>
      <trkpt lat="45.68738" lon="3.0202">
        <ele>990.20001220703</ele>
        <time>2012-02-25T13:52:14.000Z</time>
      </trkpt>
      <trkpt lat="45.68738" lon="3.02021">
        <ele>990.20001220703</ele>
        <time>2012-02-25T13:52:16.000Z</time>
      </trkpt>
      <trkpt lat="45.68736" lon="3.02029">
        <ele>989.79998779297</ele>
        <time>2012-02-25T13:52:21.000Z</time>
      </trkpt>
      <trkpt lat="45.68732" lon="3.02037">
        <ele>989</ele>
        <time>2012-02-25T13:52:28.000Z</time>
      </trkpt>
      <trkpt lat="45.68728" lon="3.02047">
        <ele>988.20001220703</ele>
        <time>2012-02-25T13:52:35.000Z</time>
      </trkpt>
      <trkpt lat="45.68728" lon="3.02048">
        <ele>988.20001220703</ele>
        <time>2012-02-25T13:52:36.000Z</time>
      </trkpt>
      <trkpt lat="45.68724" lon="3.02057">
        <ele>987.40002441406</ele>
        <time>2012-02-25T13:52:44.000Z</time>
      </trkpt>
      <trkpt lat="45.68723" lon="3.02058">
        <ele>987.40002441406</ele>
        <time>2012-02-25T13:52:46.000Z</time>
      </trkpt>
      <trkpt lat="45.68721" lon="3.02064">
        <ele>987</ele>
        <time>2012-02-25T13:52:50.000Z</time>
      </trkpt>
      <trkpt lat="45.68718" lon="3.02072">
        <ele>986.20001220703</ele>
        <time>2012-02-25T13:52:58.000Z</time>
      </trkpt>
      <trkpt lat="45.68715" lon="3.02079">
        <ele>985.79998779297</ele>
        <time>2012-02-25T13:53:06.000Z</time>
      </trkpt>
      <trkpt lat="45.68713" lon="3.02088">
        <ele>985.20001220703</ele>
        <time>2012-02-25T13:53:14.000Z</time>
      </trkpt>
      <trkpt lat="45.68713" lon="3.02099">
        <ele>984.59997558594</ele>
        <time>2012-02-25T13:53:23.000Z</time>
      </trkpt>
      <trkpt lat="45.68712" lon="3.0211">
        <ele>984.20001220703</ele>
        <time>2012-02-25T13:53:31.000Z</time>
      </trkpt>
      <trkpt lat="45.68712" lon="3.02115">
        <ele>984</ele>
        <time>2012-02-25T13:53:35.000Z</time>
      </trkpt>
      <trkpt lat="45.68711" lon="3.02119">
        <ele>983.79998779297</ele>
        <time>2012-02-25T13:53:39.000Z</time>
      </trkpt>
      <trkpt lat="45.68711" lon="3.02125">
        <ele>983.40002441406</ele>
        <time>2012-02-25T13:53:46.000Z</time>
      </trkpt>
      <trkpt lat="45.68709" lon="3.02134">
        <ele>983</ele>
        <time>2012-02-25T13:53:54.000Z</time>
      </trkpt>
      <trkpt lat="45.68709" lon="3.02141">
        <ele>982.59997558594</ele>
        <time>2012-02-25T13:54:02.000Z</time>
      </trkpt>
      <trkpt lat="45.68707" lon="3.02153">
        <ele>982</ele>
        <time>2012-02-25T13:54:11.000Z</time>
      </trkpt>
      <trkpt lat="45.68707" lon="3.02157">
        <ele>981.79998779297</ele>
        <time>2012-02-25T13:54:14.000Z</time>
      </trkpt>
      <trkpt lat="45.68706" lon="3.02162">
        <ele>981.40002441406</ele>
        <time>2012-02-25T13:54:18.000Z</time>
      </trkpt>
      <trkpt lat="45.68705" lon="3.02171">
        <ele>981</ele>
        <time>2012-02-25T13:54:26.000Z</time>
      </trkpt>
      <trkpt lat="45.68706" lon="3.02177">
        <ele>980.59997558594</ele>
        <time>2012-02-25T13:54:33.000Z</time>
      </trkpt>
      <trkpt lat="45.68706" lon="3.02188">
        <ele>980</ele>
        <time>2012-02-25T13:54:42.000Z</time>
      </trkpt>
      <trkpt lat="45.68705" lon="3.0219">
        <ele>980</ele>
        <time>2012-02-25T13:54:43.000Z</time>
      </trkpt>
      <trkpt lat="45.68706" lon="3.02198">
        <ele>979.59997558594</ele>
        <time>2012-02-25T13:54:49.000Z</time>
      </trkpt>
      <trkpt lat="45.68706" lon="3.02203">
        <ele>979.20001220703</ele>
        <time>2012-02-25T13:54:53.000Z</time>
      </trkpt>
      <trkpt lat="45.68706" lon="3.02209">
        <ele>979</ele>
        <time>2012-02-25T13:54:57.000Z</time>
      </trkpt>
      <trkpt lat="45.68706" lon="3.02212">
        <ele>978.79998779297</ele>
        <time>2012-02-25T13:54:59.000Z</time>
      </trkpt>
      <trkpt lat="45.68706" lon="3.02217">
        <ele>978.59997558594</ele>
        <time>2012-02-25T13:55:02.000Z</time>
      </trkpt>
      <trkpt lat="45.68705" lon="3.02221">
        <ele>978.20001220703</ele>
        <time>2012-02-25T13:55:05.000Z</time>
      </trkpt>
      <trkpt lat="45.68705" lon="3.02226">
        <ele>978</ele>
        <time>2012-02-25T13:55:08.000Z</time>
      </trkpt>
      <trkpt lat="45.68705" lon="3.02228">
        <ele>977.79998779297</ele>
        <time>2012-02-25T13:55:10.000Z</time>
      </trkpt>
      <trkpt lat="45.68704" lon="3.02236">
        <ele>977.40002441406</ele>
        <time>2012-02-25T13:55:17.000Z</time>
      </trkpt>
      <trkpt lat="45.68705" lon="3.02242">
        <ele>977.20001220703</ele>
        <time>2012-02-25T13:55:23.000Z</time>
      </trkpt>
      <trkpt lat="45.68705" lon="3.02252">
        <ele>976.59997558594</ele>
        <time>2012-02-25T13:55:29.000Z</time>
      </trkpt>
      <trkpt lat="45.68705" lon="3.02265">
        <ele>975.79998779297</ele>
        <time>2012-02-25T13:55:37.000Z</time>
      </trkpt>
      <trkpt lat="45.68706" lon="3.02276">
        <ele>975.20001220703</ele>
        <time>2012-02-25T13:55:44.000Z</time>
      </trkpt>
      <trkpt lat="45.68707" lon="3.0228">
        <ele>975</ele>
        <time>2012-02-25T13:55:49.000Z</time>
      </trkpt>
      <trkpt lat="45.68707" lon="3.02289">
        <ele>974.59997558594</ele>
        <time>2012-02-25T13:55:55.000Z</time>
      </trkpt>
      <trkpt lat="45.68708" lon="3.02295">
        <ele>974.20001220703</ele>
        <time>2012-02-25T13:56:00.000Z</time>
      </trkpt>
      <trkpt lat="45.68709" lon="3.02301">
        <ele>974</ele>
        <time>2012-02-25T13:56:05.000Z</time>
      </trkpt>
      <trkpt lat="45.6871" lon="3.02307">
        <ele>973.59997558594</ele>
        <time>2012-02-25T13:56:10.000Z</time>
      </trkpt>
      <trkpt lat="45.68711" lon="3.02319">
        <ele>973.20001220703</ele>
        <time>2012-02-25T13:56:18.000Z</time>
      </trkpt>
      <trkpt lat="45.68711" lon="3.02322">
        <ele>973</ele>
        <time>2012-02-25T13:56:20.000Z</time>
      </trkpt>
      <trkpt lat="45.68712" lon="3.02335">
        <ele>972.20001220703</ele>
        <time>2012-02-25T13:56:28.000Z</time>
      </trkpt>
      <trkpt lat="45.68712" lon="3.02336">
        <ele>972.20001220703</ele>
        <time>2012-02-25T13:56:29.000Z</time>
      </trkpt>
      <trkpt lat="45.68714" lon="3.02346">
        <ele>971.79998779297</ele>
        <time>2012-02-25T13:56:36.000Z</time>
      </trkpt>
      <trkpt lat="45.68714" lon="3.02348">
        <ele>971.79998779297</ele>
        <time>2012-02-25T13:56:37.000Z</time>
      </trkpt>
      <trkpt lat="45.68715" lon="3.02352">
        <ele>971.59997558594</ele>
        <time>2012-02-25T13:56:40.000Z</time>
      </trkpt>
      <trkpt lat="45.68718" lon="3.02366">
        <ele>971.20001220703</ele>
        <time>2012-02-25T13:56:48.000Z</time>
      </trkpt>
      <trkpt lat="45.68718" lon="3.02368">
        <ele>971.20001220703</ele>
        <time>2012-02-25T13:56:49.000Z</time>
      </trkpt>
      <trkpt lat="45.68719" lon="3.02375">
        <ele>970.79998779297</ele>
        <time>2012-02-25T13:56:53.000Z</time>
      </trkpt>
      <trkpt lat="45.6872" lon="3.02391">
        <ele>970.20001220703</ele>
        <time>2012-02-25T13:57:02.000Z</time>
      </trkpt>
      <trkpt lat="45.68721" lon="3.024">
        <ele>969.79998779297</ele>
        <time>2012-02-25T13:57:09.000Z</time>
      </trkpt>
      <trkpt lat="45.68721" lon="3.02402">
        <ele>969.79998779297</ele>
        <time>2012-02-25T13:57:10.000Z</time>
      </trkpt>
      <trkpt lat="45.68722" lon="3.02415">
        <ele>969.20001220703</ele>
        <time>2012-02-25T13:57:19.000Z</time>
      </trkpt>
      <trkpt lat="45.68723" lon="3.02423">
        <ele>968.79998779297</ele>
        <time>2012-02-25T13:57:26.000Z</time>
      </trkpt>
      <trkpt lat="45.68723" lon="3.02431">
        <ele>968.20001220703</ele>
        <time>2012-02-25T13:57:32.000Z</time>
      </trkpt>
      <trkpt lat="45.68723" lon="3.02436">
        <ele>968</ele>
        <time>2012-02-25T13:57:35.000Z</time>
      </trkpt>
      <trkpt lat="45.68723" lon="3.02441">
        <ele>967.59997558594</ele>
        <time>2012-02-25T13:57:40.000Z</time>
      </trkpt>
      <trkpt lat="45.68723" lon="3.02444">
        <ele>967.40002441406</ele>
        <time>2012-02-25T13:57:42.000Z</time>
      </trkpt>
      <trkpt lat="45.68722" lon="3.02455">
        <ele>966.79998779297</ele>
        <time>2012-02-25T13:57:50.000Z</time>
      </trkpt>
      <trkpt lat="45.68722" lon="3.02459">
        <ele>966.59997558594</ele>
        <time>2012-02-25T13:57:53.000Z</time>
      </trkpt>
      <trkpt lat="45.68721" lon="3.02467">
        <ele>966</ele>
        <time>2012-02-25T13:57:59.000Z</time>
      </trkpt>
      <trkpt lat="45.68721" lon="3.02478">
        <ele>965.40002441406</ele>
        <time>2012-02-25T13:58:06.000Z</time>
      </trkpt>
      <trkpt lat="45.6872" lon="3.0248">
        <ele>965.40002441406</ele>
        <time>2012-02-25T13:58:08.000Z</time>
      </trkpt>
      <trkpt lat="45.6872" lon="3.0249">
        <ele>964.79998779297</ele>
        <time>2012-02-25T13:58:16.000Z</time>
      </trkpt>
      <trkpt lat="45.6872" lon="3.02499">
        <ele>964.20001220703</ele>
        <time>2012-02-25T13:58:23.000Z</time>
      </trkpt>
      <trkpt lat="45.6872" lon="3.025">
        <ele>964.20001220703</ele>
        <time>2012-02-25T13:58:24.000Z</time>
      </trkpt>
      <trkpt lat="45.6872" lon="3.02509">
        <ele>963.79998779297</ele>
        <time>2012-02-25T13:58:31.000Z</time>
      </trkpt>
      <trkpt lat="45.68719" lon="3.02523">
        <ele>963.20001220703</ele>
        <time>2012-02-25T13:58:40.000Z</time>
      </trkpt>
      <trkpt lat="45.68716" lon="3.02534">
        <ele>962.59997558594</ele>
        <time>2012-02-25T13:58:47.000Z</time>
      </trkpt>
      <trkpt lat="45.68711" lon="3.0255">
        <ele>961.79998779297</ele>
        <time>2012-02-25T13:58:57.000Z</time>
      </trkpt>
      <trkpt lat="45.6871" lon="3.02553">
        <ele>961.59997558594</ele>
        <time>2012-02-25T13:59:00.000Z</time>
      </trkpt>
      <trkpt lat="45.68707" lon="3.02564">
        <ele>961.20001220703</ele>
        <time>2012-02-25T13:59:09.000Z</time>
      </trkpt>
      <trkpt lat="45.68706" lon="3.02567">
        <ele>961</ele>
        <time>2012-02-25T13:59:11.000Z</time>
      </trkpt>
      <trkpt lat="45.68705" lon="3.02567">
        <ele>961</ele>
        <time>2012-02-25T13:59:12.000Z</time>
      </trkpt>
      <trkpt lat="45.68702" lon="3.02582">
        <ele>960.40002441406</ele>
        <time>2012-02-25T13:59:21.000Z</time>
      </trkpt>
      <trkpt lat="45.68702" lon="3.02582">
        <ele>960.20001220703</ele>
        <time>2012-02-25T13:59:22.000Z</time>
      </trkpt>
      <trkpt lat="45.68701" lon="3.02589">
        <ele>959.79998779297</ele>
        <time>2012-02-25T13:59:29.000Z</time>
      </trkpt>
      <trkpt lat="45.687" lon="3.02593">
        <ele>959.59997558594</ele>
        <time>2012-02-25T13:59:33.000Z</time>
      </trkpt>
      <trkpt lat="45.687" lon="3.02598">
        <ele>959.20001220703</ele>
        <time>2012-02-25T13:59:39.000Z</time>
      </trkpt>
      <trkpt lat="45.68698" lon="3.02606">
        <ele>958.59997558594</ele>
        <time>2012-02-25T13:59:47.000Z</time>
      </trkpt>
      <trkpt lat="45.68697" lon="3.0261">
        <ele>958.40002441406</ele>
        <time>2012-02-25T13:59:51.000Z</time>
      </trkpt>
      <trkpt lat="45.68695" lon="3.02616">
        <ele>958</ele>
        <time>2012-02-25T13:59:56.000Z</time>
      </trkpt>
      <trkpt lat="45.68691" lon="3.02635">
        <ele>956.59997558594</ele>
        <time>2012-02-25T14:00:12.000Z</time>
      </trkpt>
      <trkpt lat="45.68691" lon="3.02637">
        <ele>956.40002441406</ele>
        <time>2012-02-25T14:00:14.000Z</time>
      </trkpt>
      <trkpt lat="45.6869" lon="3.02646">
        <ele>955.79998779297</ele>
        <time>2012-02-25T14:00:21.000Z</time>
      </trkpt>
      <trkpt lat="45.68689" lon="3.02647">
        <ele>955.79998779297</ele>
        <time>2012-02-25T14:00:23.000Z</time>
      </trkpt>
      <trkpt lat="45.68688" lon="3.0265">
        <ele>955.59997558594</ele>
        <time>2012-02-25T14:00:26.000Z</time>
      </trkpt>
      <trkpt lat="45.68689" lon="3.02658">
        <ele>955</ele>
        <time>2012-02-25T14:00:33.000Z</time>
      </trkpt>
      <trkpt lat="45.68689" lon="3.02656">
        <ele>955.20001220703</ele>
        <time>2012-02-25T14:00:40.000Z</time>
      </trkpt>
      <trkpt lat="45.68689" lon="3.02659">
        <ele>955</ele>
        <time>2012-02-25T14:01:00.000Z</time>
      </trkpt>
      <trkpt lat="45.68688" lon="3.02662">
        <ele>954.79998779297</ele>
        <time>2012-02-25T14:01:04.000Z</time>
      </trkpt>
      <trkpt lat="45.68687" lon="3.02662">
        <ele>954.79998779297</ele>
        <time>2012-02-25T14:01:10.000Z</time>
      </trkpt>
      <trkpt lat="45.68688" lon="3.02664">
        <ele>954.59997558594</ele>
        <time>2012-02-25T14:03:26.000Z</time>
      </trkpt>
      <trkpt lat="45.68689" lon="3.02662">
        <ele>954.79998779297</ele>
        <time>2012-02-25T14:03:32.000Z</time>
      </trkpt>
      <trkpt lat="45.68688" lon="3.02666">
        <ele>954.59997558594</ele>
        <time>2012-02-25T14:03:40.000Z</time>
      </trkpt>
      <trkpt lat="45.68689" lon="3.02669">
        <ele>954.40002441406</ele>
        <time>2012-02-25T14:03:46.000Z</time>
      </trkpt>
      <trkpt lat="45.68689" lon="3.0267">
        <ele>954.40002441406</ele>
        <time>2012-02-25T14:03:54.000Z</time>
      </trkpt>
      <trkpt lat="45.68686" lon="3.02677">
        <ele>954</ele>
        <time>2012-02-25T14:04:14.000Z</time>
      </trkpt>
      <trkpt lat="45.68685" lon="3.02682">
        <ele>953.79998779297</ele>
        <time>2012-02-25T14:04:20.000Z</time>
      </trkpt>
      <trkpt lat="45.68685" lon="3.02688">
        <ele>953.40002441406</ele>
        <time>2012-02-25T14:04:26.000Z</time>
      </trkpt>
      <trkpt lat="45.68685" lon="3.02689">
        <ele>953.40002441406</ele>
        <time>2012-02-25T14:04:33.000Z</time>
      </trkpt>
      <trkpt lat="45.68683" lon="3.02693">
        <ele>953.20001220703</ele>
        <time>2012-02-25T14:04:53.000Z</time>
      </trkpt>
      <trkpt lat="45.68681" lon="3.02699">
        <ele>953</ele>
        <time>2012-02-25T14:05:01.000Z</time>
      </trkpt>
      <trkpt lat="45.68681" lon="3.02704">
        <ele>952.79998779297</ele>
        <time>2012-02-25T14:05:08.000Z</time>
      </trkpt>
      <trkpt lat="45.68679" lon="3.02707">
        <ele>952.79998779297</ele>
        <time>2012-02-25T14:05:15.000Z</time>
      </trkpt>
      <trkpt lat="45.68677" lon="3.02713">
        <ele>952.59997558594</ele>
        <time>2012-02-25T14:05:21.000Z</time>
      </trkpt>
      <trkpt lat="45.68674" lon="3.0272">
        <ele>952.40002441406</ele>
        <time>2012-02-25T14:05:27.000Z</time>
      </trkpt>
      <trkpt lat="45.68674" lon="3.02721">
        <ele>952.40002441406</ele>
        <time>2012-02-25T14:05:28.000Z</time>
      </trkpt>
      <trkpt lat="45.68672" lon="3.02728">
        <ele>952.20001220703</ele>
        <time>2012-02-25T14:05:33.000Z</time>
      </trkpt>
      <trkpt lat="45.68671" lon="3.0273">
        <ele>952.20001220703</ele>
        <time>2012-02-25T14:05:35.000Z</time>
      </trkpt>
      <trkpt lat="45.68669" lon="3.02736">
        <ele>952.20001220703</ele>
        <time>2012-02-25T14:05:41.000Z</time>
      </trkpt>
      <trkpt lat="45.68666" lon="3.02741">
        <ele>952.20001220703</ele>
        <time>2012-02-25T14:05:45.000Z</time>
      </trkpt>
      <trkpt lat="45.68664" lon="3.02743">
        <ele>952.20001220703</ele>
        <time>2012-02-25T14:05:47.000Z</time>
      </trkpt>
      <trkpt lat="45.68662" lon="3.02746">
        <ele>952.20001220703</ele>
        <time>2012-02-25T14:05:49.000Z</time>
      </trkpt>
      <trkpt lat="45.6866" lon="3.0275">
        <ele>952</ele>
        <time>2012-02-25T14:05:53.000Z</time>
      </trkpt>
      <trkpt lat="45.68658" lon="3.02753">
        <ele>951.79998779297</ele>
        <time>2012-02-25T14:05:58.000Z</time>
      </trkpt>
      <trkpt lat="45.68654" lon="3.02759">
        <ele>951.40002441406</ele>
        <time>2012-02-25T14:06:05.000Z</time>
      </trkpt>
      <trkpt lat="45.68649" lon="3.02764">
        <ele>951</ele>
        <time>2012-02-25T14:06:13.000Z</time>
      </trkpt>
      <trkpt lat="45.68643" lon="3.02772">
        <ele>950.40002441406</ele>
        <time>2012-02-25T14:06:23.000Z</time>
      </trkpt>
      <trkpt lat="45.68639" lon="3.02777">
        <ele>950.20001220703</ele>
        <time>2012-02-25T14:06:28.000Z</time>
      </trkpt>
      <trkpt lat="45.68636" lon="3.02783">
        <ele>949.79998779297</ele>
        <time>2012-02-25T14:06:35.000Z</time>
      </trkpt>
      <trkpt lat="45.68632" lon="3.02792">
        <ele>949.20001220703</ele>
        <time>2012-02-25T14:06:42.000Z</time>
      </trkpt>
      <trkpt lat="45.68629" lon="3.02798">
        <ele>948.79998779297</ele>
        <time>2012-02-25T14:06:48.000Z</time>
      </trkpt>
      <trkpt lat="45.68627" lon="3.02803">
        <ele>948.59997558594</ele>
        <time>2012-02-25T14:06:53.000Z</time>
      </trkpt>
      <trkpt lat="45.68624" lon="3.02809">
        <ele>948.40002441406</ele>
        <time>2012-02-25T14:06:59.000Z</time>
      </trkpt>
      <trkpt lat="45.6862" lon="3.02816">
        <ele>948</ele>
        <time>2012-02-25T14:07:07.000Z</time>
      </trkpt>
      <trkpt lat="45.68618" lon="3.02821">
        <ele>947.79998779297</ele>
        <time>2012-02-25T14:07:13.000Z</time>
      </trkpt>
      <trkpt lat="45.68614" lon="3.02828">
        <ele>947.59997558594</ele>
        <time>2012-02-25T14:07:19.000Z</time>
      </trkpt>
      <trkpt lat="45.68611" lon="3.02835">
        <ele>947.20001220703</ele>
        <time>2012-02-25T14:07:26.000Z</time>
      </trkpt>
      <trkpt lat="45.68609" lon="3.02839">
        <ele>947</ele>
        <time>2012-02-25T14:07:31.000Z</time>
      </trkpt>
      <trkpt lat="45.68604" lon="3.02847">
        <ele>946.79998779297</ele>
        <time>2012-02-25T14:07:38.000Z</time>
      </trkpt>
      <trkpt lat="45.68602" lon="3.0285">
        <ele>946.59997558594</ele>
        <time>2012-02-25T14:07:40.000Z</time>
      </trkpt>
      <trkpt lat="45.686" lon="3.02856">
        <ele>946.40002441406</ele>
        <time>2012-02-25T14:07:44.000Z</time>
      </trkpt>
      <trkpt lat="45.68592" lon="3.02871">
        <ele>946</ele>
        <time>2012-02-25T14:07:53.000Z</time>
      </trkpt>
      <trkpt lat="45.68586" lon="3.02883">
        <ele>945.79998779297</ele>
        <time>2012-02-25T14:08:01.000Z</time>
      </trkpt>
      <trkpt lat="45.6858" lon="3.02894">
        <ele>945.40002441406</ele>
        <time>2012-02-25T14:08:09.000Z</time>
      </trkpt>
      <trkpt lat="45.68576" lon="3.02903">
        <ele>944.79998779297</ele>
        <time>2012-02-25T14:08:16.000Z</time>
      </trkpt>
      <trkpt lat="45.68572" lon="3.0291">
        <ele>944.59997558594</ele>
        <time>2012-02-25T14:08:24.000Z</time>
      </trkpt>
      <trkpt lat="45.68568" lon="3.0292">
        <ele>944</ele>
        <time>2012-02-25T14:08:32.000Z</time>
      </trkpt>
      <trkpt lat="45.68564" lon="3.02929">
        <ele>943.59997558594</ele>
        <time>2012-02-25T14:08:39.000Z</time>
      </trkpt>
      <trkpt lat="45.6856" lon="3.02936">
        <ele>943.40002441406</ele>
        <time>2012-02-25T14:08:46.000Z</time>
      </trkpt>
      <trkpt lat="45.68559" lon="3.0294">
        <ele>943.20001220703</ele>
        <time>2012-02-25T14:08:50.000Z</time>
      </trkpt>
      <trkpt lat="45.68557" lon="3.02945">
        <ele>943</ele>
        <time>2012-02-25T14:08:54.000Z</time>
      </trkpt>
      <trkpt lat="45.68553" lon="3.02954">
        <ele>942.59997558594</ele>
        <time>2012-02-25T14:09:01.000Z</time>
      </trkpt>
      <trkpt lat="45.68549" lon="3.02964">
        <ele>942.20001220703</ele>
        <time>2012-02-25T14:09:08.000Z</time>
      </trkpt>
      <trkpt lat="45.68543" lon="3.02975">
        <ele>942</ele>
        <time>2012-02-25T14:09:16.000Z</time>
      </trkpt>
      <trkpt lat="45.68539" lon="3.02986">
        <ele>941.79998779297</ele>
        <time>2012-02-25T14:09:24.000Z</time>
      </trkpt>
      <trkpt lat="45.68536" lon="3.02996">
        <ele>941.40002441406</ele>
        <time>2012-02-25T14:09:32.000Z</time>
      </trkpt>
      <trkpt lat="45.68536" lon="3.02997">
        <ele>941.40002441406</ele>
        <time>2012-02-25T14:09:33.000Z</time>
      </trkpt>
      <trkpt lat="45.68534" lon="3.03004">
        <ele>941.20001220703</ele>
        <time>2012-02-25T14:09:39.000Z</time>
      </trkpt>
      <trkpt lat="45.68529" lon="3.03015">
        <ele>940.79998779297</ele>
        <time>2012-02-25T14:09:46.000Z</time>
      </trkpt>
      <trkpt lat="45.68523" lon="3.03026">
        <ele>940.40002441406</ele>
        <time>2012-02-25T14:09:54.000Z</time>
      </trkpt>
      <trkpt lat="45.68522" lon="3.03029">
        <ele>940.20001220703</ele>
        <time>2012-02-25T14:09:59.000Z</time>
      </trkpt>
      <trkpt lat="45.68516" lon="3.03046">
        <ele>939.59997558594</ele>
        <time>2012-02-25T14:10:11.000Z</time>
      </trkpt>
      <trkpt lat="45.68513" lon="3.0305">
        <ele>939.40002441406</ele>
        <time>2012-02-25T14:10:16.000Z</time>
      </trkpt>
      <trkpt lat="45.6851" lon="3.03058">
        <ele>939.20001220703</ele>
        <time>2012-02-25T14:10:22.000Z</time>
      </trkpt>
      <trkpt lat="45.68508" lon="3.03062">
        <ele>939</ele>
        <time>2012-02-25T14:10:25.000Z</time>
      </trkpt>
      <trkpt lat="45.68503" lon="3.03069">
        <ele>938.79998779297</ele>
        <time>2012-02-25T14:10:32.000Z</time>
      </trkpt>
      <trkpt lat="45.685" lon="3.03074">
        <ele>938.59997558594</ele>
        <time>2012-02-25T14:10:38.000Z</time>
      </trkpt>
      <trkpt lat="45.68494" lon="3.03086">
        <ele>938.20001220703</ele>
        <time>2012-02-25T14:10:46.000Z</time>
      </trkpt>
      <trkpt lat="45.6849" lon="3.03094">
        <ele>937.79998779297</ele>
        <time>2012-02-25T14:10:53.000Z</time>
      </trkpt>
      <trkpt lat="45.68486" lon="3.03103">
        <ele>937.59997558594</ele>
        <time>2012-02-25T14:11:01.000Z</time>
      </trkpt>
      <trkpt lat="45.68481" lon="3.03114">
        <ele>937.40002441406</ele>
        <time>2012-02-25T14:11:09.000Z</time>
      </trkpt>
      <trkpt lat="45.68479" lon="3.03118">
        <ele>937.20001220703</ele>
        <time>2012-02-25T14:11:13.000Z</time>
      </trkpt>
      <trkpt lat="45.68475" lon="3.03128">
        <ele>937</ele>
        <time>2012-02-25T14:11:21.000Z</time>
      </trkpt>
      <trkpt lat="45.6847" lon="3.03136">
        <ele>937</ele>
        <time>2012-02-25T14:11:28.000Z</time>
      </trkpt>
      <trkpt lat="45.68468" lon="3.03142">
        <ele>936.79998779297</ele>
        <time>2012-02-25T14:11:33.000Z</time>
      </trkpt>
      <trkpt lat="45.68467" lon="3.03146">
        <ele>936.79998779297</ele>
        <time>2012-02-25T14:11:37.000Z</time>
      </trkpt>
      <trkpt lat="45.68466" lon="3.03148">
        <ele>936.59997558594</ele>
        <time>2012-02-25T14:11:39.000Z</time>
      </trkpt>
      <trkpt lat="45.68464" lon="3.03156">
        <ele>936.40002441406</ele>
        <time>2012-02-25T14:11:45.000Z</time>
      </trkpt>
      <trkpt lat="45.68464" lon="3.03158">
        <ele>936.40002441406</ele>
        <time>2012-02-25T14:11:46.000Z</time>
      </trkpt>
      <trkpt lat="45.68464" lon="3.03162">
        <ele>936.20001220703</ele>
        <time>2012-02-25T14:11:50.000Z</time>
      </trkpt>
      <trkpt lat="45.68463" lon="3.03166">
        <ele>936.20001220703</ele>
        <time>2012-02-25T14:11:53.000Z</time>
      </trkpt>
      <trkpt lat="45.68463" lon="3.03168">
        <ele>936</ele>
        <time>2012-02-25T14:11:55.000Z</time>
      </trkpt>
      <trkpt lat="45.68461" lon="3.03177">
        <ele>935.79998779297</ele>
        <time>2012-02-25T14:12:01.000Z</time>
      </trkpt>
      <trkpt lat="45.6846" lon="3.03179">
        <ele>935.79998779297</ele>
        <time>2012-02-25T14:12:02.000Z</time>
      </trkpt>
      <trkpt lat="45.68457" lon="3.03188">
        <ele>935.59997558594</ele>
        <time>2012-02-25T14:12:08.000Z</time>
      </trkpt>
      <trkpt lat="45.68453" lon="3.03202">
        <ele>935.40002441406</ele>
        <time>2012-02-25T14:12:22.000Z</time>
      </trkpt>
      <trkpt lat="45.68451" lon="3.03213">
        <ele>935</ele>
        <time>2012-02-25T14:12:29.000Z</time>
      </trkpt>
      <trkpt lat="45.68449" lon="3.03221">
        <ele>935</ele>
        <time>2012-02-25T14:12:34.000Z</time>
      </trkpt>
      <trkpt lat="45.68446" lon="3.03235">
        <ele>934.59997558594</ele>
        <time>2012-02-25T14:12:43.000Z</time>
      </trkpt>
      <trkpt lat="45.68443" lon="3.03245">
        <ele>934.40002441406</ele>
        <time>2012-02-25T14:12:49.000Z</time>
      </trkpt>
      <trkpt lat="45.68441" lon="3.03253">
        <ele>934</ele>
        <time>2012-02-25T14:12:56.000Z</time>
      </trkpt>
      <trkpt lat="45.68438" lon="3.03268">
        <ele>933.20001220703</ele>
        <time>2012-02-25T14:13:04.000Z</time>
      </trkpt>
      <trkpt lat="45.68437" lon="3.03271">
        <ele>933</ele>
        <time>2012-02-25T14:13:06.000Z</time>
      </trkpt>
      <trkpt lat="45.68435" lon="3.03279">
        <ele>932.40002441406</ele>
        <time>2012-02-25T14:13:12.000Z</time>
      </trkpt>
      <trkpt lat="45.68432" lon="3.03294">
        <ele>931.40002441406</ele>
        <time>2012-02-25T14:13:20.000Z</time>
      </trkpt>
      <trkpt lat="45.68431" lon="3.03304">
        <ele>930.59997558594</ele>
        <time>2012-02-25T14:13:27.000Z</time>
      </trkpt>
      <trkpt lat="45.68431" lon="3.03315">
        <ele>929.79998779297</ele>
        <time>2012-02-25T14:13:35.000Z</time>
      </trkpt>
      <trkpt lat="45.6843" lon="3.03324">
        <ele>929.20001220703</ele>
        <time>2012-02-25T14:13:41.000Z</time>
      </trkpt>
      <trkpt lat="45.68428" lon="3.03336">
        <ele>928.20001220703</ele>
        <time>2012-02-25T14:13:49.000Z</time>
      </trkpt>
      <trkpt lat="45.68427" lon="3.03341">
        <ele>928</ele>
        <time>2012-02-25T14:13:52.000Z</time>
      </trkpt>
      <trkpt lat="45.68425" lon="3.0335">
        <ele>927.40002441406</ele>
        <time>2012-02-25T14:13:59.000Z</time>
      </trkpt>
      <trkpt lat="45.68424" lon="3.03355">
        <ele>927.20001220703</ele>
        <time>2012-02-25T14:14:03.000Z</time>
      </trkpt>
      <trkpt lat="45.6842" lon="3.03371">
        <ele>926.40002441406</ele>
        <time>2012-02-25T14:14:12.000Z</time>
      </trkpt>
      <trkpt lat="45.68419" lon="3.03375">
        <ele>926.40002441406</ele>
        <time>2012-02-25T14:14:15.000Z</time>
      </trkpt>
      <trkpt lat="45.68418" lon="3.03385">
        <ele>925.79998779297</ele>
        <time>2012-02-25T14:14:22.000Z</time>
      </trkpt>
      <trkpt lat="45.68417" lon="3.03389">
        <ele>925.59997558594</ele>
        <time>2012-02-25T14:14:25.000Z</time>
      </trkpt>
      <trkpt lat="45.68416" lon="3.03398">
        <ele>925.20001220703</ele>
        <time>2012-02-25T14:14:31.000Z</time>
      </trkpt>
      <trkpt lat="45.68415" lon="3.034">
        <ele>925.20001220703</ele>
        <time>2012-02-25T14:14:33.000Z</time>
      </trkpt>
      <trkpt lat="45.68412" lon="3.03407">
        <ele>924.79998779297</ele>
        <time>2012-02-25T14:14:38.000Z</time>
      </trkpt>
      <trkpt lat="45.68412" lon="3.03409">
        <ele>924.79998779297</ele>
        <time>2012-02-25T14:14:40.000Z</time>
      </trkpt>
      <trkpt lat="45.6841" lon="3.03419">
        <ele>924.40002441406</ele>
        <time>2012-02-25T14:14:47.000Z</time>
      </trkpt>
      <trkpt lat="45.68409" lon="3.0342">
        <ele>924.40002441406</ele>
        <time>2012-02-25T14:14:48.000Z</time>
      </trkpt>
      <trkpt lat="45.68409" lon="3.03424">
        <ele>924.20001220703</ele>
        <time>2012-02-25T14:14:53.000Z</time>
      </trkpt>
      <trkpt lat="45.68406" lon="3.0345">
        <ele>923.79998779297</ele>
        <time>2012-02-25T14:15:10.000Z</time>
      </trkpt>
      <trkpt lat="45.68405" lon="3.03456">
        <ele>923.79998779297</ele>
        <time>2012-02-25T14:15:15.000Z</time>
      </trkpt>
      <trkpt lat="45.68406" lon="3.03461">
        <ele>923.59997558594</ele>
        <time>2012-02-25T14:15:22.000Z</time>
      </trkpt>
      <trkpt lat="45.68403" lon="3.03477">
        <ele>923.40002441406</ele>
        <time>2012-02-25T14:15:42.000Z</time>
      </trkpt>
      <trkpt lat="45.68403" lon="3.03481">
        <ele>923.20001220703</ele>
        <time>2012-02-25T14:15:48.000Z</time>
      </trkpt>
      <trkpt lat="45.68403" lon="3.03483">
        <ele>923.20001220703</ele>
        <time>2012-02-25T14:15:49.000Z</time>
      </trkpt>
      <trkpt lat="45.68405" lon="3.0349">
        <ele>923</ele>
        <time>2012-02-25T14:15:54.000Z</time>
      </trkpt>
      <trkpt lat="45.68405" lon="3.03491">
        <ele>923</ele>
        <time>2012-02-25T14:15:55.000Z</time>
      </trkpt>
      <trkpt lat="45.68404" lon="3.03496">
        <ele>922.79998779297</ele>
        <time>2012-02-25T14:16:00.000Z</time>
      </trkpt>
      <trkpt lat="45.68402" lon="3.03502">
        <ele>922.79998779297</ele>
        <time>2012-02-25T14:16:04.000Z</time>
      </trkpt>
      <trkpt lat="45.68403" lon="3.03512">
        <ele>922.79998779297</ele>
        <time>2012-02-25T14:16:11.000Z</time>
      </trkpt>
      <trkpt lat="45.68402" lon="3.03513">
        <ele>922.79998779297</ele>
        <time>2012-02-25T14:16:12.000Z</time>
      </trkpt>
      <trkpt lat="45.68404" lon="3.03518">
        <ele>922.79998779297</ele>
        <time>2012-02-25T14:16:16.000Z</time>
      </trkpt>
      <trkpt lat="45.68403" lon="3.03524">
        <ele>922.79998779297</ele>
        <time>2012-02-25T14:16:20.000Z</time>
      </trkpt>
      <trkpt lat="45.68403" lon="3.03534">
        <ele>922.79998779297</ele>
        <time>2012-02-25T14:16:27.000Z</time>
      </trkpt>
      <trkpt lat="45.68402" lon="3.03535">
        <ele>922.79998779297</ele>
        <time>2012-02-25T14:16:28.000Z</time>
      </trkpt>
      <trkpt lat="45.684" lon="3.03547">
        <ele>923</ele>
        <time>2012-02-25T14:16:34.000Z</time>
      </trkpt>
      <trkpt lat="45.684" lon="3.03556">
        <ele>923</ele>
        <time>2012-02-25T14:16:39.000Z</time>
      </trkpt>
      <trkpt lat="45.68401" lon="3.0356">
        <ele>923</ele>
        <time>2012-02-25T14:16:44.000Z</time>
      </trkpt>
      <trkpt lat="45.68401" lon="3.03571">
        <ele>923</ele>
        <time>2012-02-25T14:16:56.000Z</time>
      </trkpt>
      <trkpt lat="45.68401" lon="3.03579">
        <ele>923</ele>
        <time>2012-02-25T14:17:01.000Z</time>
      </trkpt>
      <trkpt lat="45.68399" lon="3.03595">
        <ele>922.59997558594</ele>
        <time>2012-02-25T14:17:10.000Z</time>
      </trkpt>
      <trkpt lat="45.68399" lon="3.03598">
        <ele>922.59997558594</ele>
        <time>2012-02-25T14:17:12.000Z</time>
      </trkpt>
      <trkpt lat="45.684" lon="3.036">
        <ele>922.40002441406</ele>
        <time>2012-02-25T14:17:14.000Z</time>
      </trkpt>
      <trkpt lat="45.68398" lon="3.03611">
        <ele>922</ele>
        <time>2012-02-25T14:17:21.000Z</time>
      </trkpt>
      <trkpt lat="45.68396" lon="3.03618">
        <ele>921.79998779297</ele>
        <time>2012-02-25T14:17:26.000Z</time>
      </trkpt>
      <trkpt lat="45.68396" lon="3.0362">
        <ele>921.79998779297</ele>
        <time>2012-02-25T14:17:27.000Z</time>
      </trkpt>
      <trkpt lat="45.68396" lon="3.03621">
        <ele>921.79998779297</ele>
        <time>2012-02-25T14:17:28.000Z</time>
      </trkpt>
      <trkpt lat="45.68396" lon="3.03626">
        <ele>921.59997558594</ele>
        <time>2012-02-25T14:17:33.000Z</time>
      </trkpt>
      <trkpt lat="45.68396" lon="3.03633">
        <ele>921.20001220703</ele>
        <time>2012-02-25T14:17:38.000Z</time>
      </trkpt>
      <trkpt lat="45.68396" lon="3.0364">
        <ele>921</ele>
        <time>2012-02-25T14:17:45.000Z</time>
      </trkpt>
      <trkpt lat="45.68396" lon="3.03646">
        <ele>920.79998779297</ele>
        <time>2012-02-25T14:17:52.000Z</time>
      </trkpt>
      <trkpt lat="45.68396" lon="3.03652">
        <ele>920.59997558594</ele>
        <time>2012-02-25T14:17:57.000Z</time>
      </trkpt>
      <trkpt lat="45.68395" lon="3.03658">
        <ele>920.40002441406</ele>
        <time>2012-02-25T14:18:03.000Z</time>
      </trkpt>
      <trkpt lat="45.68392" lon="3.03677">
        <ele>919.79998779297</ele>
        <time>2012-02-25T14:18:16.000Z</time>
      </trkpt>
      <trkpt lat="45.68391" lon="3.03681">
        <ele>919.59997558594</ele>
        <time>2012-02-25T14:18:19.000Z</time>
      </trkpt>
      <trkpt lat="45.68389" lon="3.03693">
        <ele>919.20001220703</ele>
        <time>2012-02-25T14:18:26.000Z</time>
      </trkpt>
      <trkpt lat="45.68388" lon="3.03695">
        <ele>919.20001220703</ele>
        <time>2012-02-25T14:18:28.000Z</time>
      </trkpt>
      <trkpt lat="45.68387" lon="3.03705">
        <ele>918.79998779297</ele>
        <time>2012-02-25T14:18:34.000Z</time>
      </trkpt>
      <trkpt lat="45.68387" lon="3.03707">
        <ele>918.59997558594</ele>
        <time>2012-02-25T14:18:35.000Z</time>
      </trkpt>
      <trkpt lat="45.68387" lon="3.03712">
        <ele>918.40002441406</ele>
        <time>2012-02-25T14:18:39.000Z</time>
      </trkpt>
      <trkpt lat="45.68387" lon="3.03717">
        <ele>918.20001220703</ele>
        <time>2012-02-25T14:18:42.000Z</time>
      </trkpt>
      <trkpt lat="45.68388" lon="3.03719">
        <ele>918</ele>
        <time>2012-02-25T14:18:44.000Z</time>
      </trkpt>
      <trkpt lat="45.68388" lon="3.03724">
        <ele>917.79998779297</ele>
        <time>2012-02-25T14:18:48.000Z</time>
      </trkpt>
      <trkpt lat="45.68389" lon="3.0373">
        <ele>917.59997558594</ele>
        <time>2012-02-25T14:18:53.000Z</time>
      </trkpt>
      <trkpt lat="45.68389" lon="3.03732">
        <ele>917.40002441406</ele>
        <time>2012-02-25T14:18:54.000Z</time>
      </trkpt>
      <trkpt lat="45.68389" lon="3.03734">
        <ele>917.40002441406</ele>
        <time>2012-02-25T14:18:56.000Z</time>
      </trkpt>
      <trkpt lat="45.68389" lon="3.03735">
        <ele>917.20001220703</ele>
        <time>2012-02-25T14:18:57.000Z</time>
      </trkpt>
      <trkpt lat="45.68389" lon="3.03739">
        <ele>917.20001220703</ele>
        <time>2012-02-25T14:18:59.000Z</time>
      </trkpt>
      <trkpt lat="45.68388" lon="3.03752">
        <ele>916.59997558594</ele>
        <time>2012-02-25T14:19:07.000Z</time>
      </trkpt>
      <trkpt lat="45.68388" lon="3.03754">
        <ele>916.40002441406</ele>
        <time>2012-02-25T14:19:08.000Z</time>
      </trkpt>
      <trkpt lat="45.68388" lon="3.03755">
        <ele>916.40002441406</ele>
        <time>2012-02-25T14:19:10.000Z</time>
      </trkpt>
      <trkpt lat="45.68387" lon="3.03761">
        <ele>916</ele>
        <time>2012-02-25T14:19:13.000Z</time>
      </trkpt>
      <trkpt lat="45.68388" lon="3.03765">
        <ele>915.79998779297</ele>
        <time>2012-02-25T14:19:17.000Z</time>
      </trkpt>
      <trkpt lat="45.68389" lon="3.03774">
        <ele>915.20001220703</ele>
        <time>2012-02-25T14:19:22.000Z</time>
      </trkpt>
      <trkpt lat="45.68389" lon="3.03783">
        <ele>914.59997558594</ele>
        <time>2012-02-25T14:19:28.000Z</time>
      </trkpt>
      <trkpt lat="45.68389" lon="3.03785">
        <ele>914.59997558594</ele>
        <time>2012-02-25T14:19:29.000Z</time>
      </trkpt>
      <trkpt lat="45.68389" lon="3.03792">
        <ele>914.20001220703</ele>
        <time>2012-02-25T14:19:36.000Z</time>
      </trkpt>
      <trkpt lat="45.6839" lon="3.03803">
        <ele>913.40002441406</ele>
        <time>2012-02-25T14:19:42.000Z</time>
      </trkpt>
      <trkpt lat="45.68389" lon="3.0381">
        <ele>913</ele>
        <time>2012-02-25T14:19:46.000Z</time>
      </trkpt>
      <trkpt lat="45.68389" lon="3.03813">
        <ele>912.79998779297</ele>
        <time>2012-02-25T14:19:49.000Z</time>
      </trkpt>
      <trkpt lat="45.68391" lon="3.03823">
        <ele>912.20001220703</ele>
        <time>2012-02-25T14:19:56.000Z</time>
      </trkpt>
      <trkpt lat="45.68393" lon="3.03827">
        <ele>911.79998779297</ele>
        <time>2012-02-25T14:20:00.000Z</time>
      </trkpt>
      <trkpt lat="45.68394" lon="3.03828">
        <ele>911.59997558594</ele>
        <time>2012-02-25T14:20:02.000Z</time>
      </trkpt>
      <trkpt lat="45.68394" lon="3.03833">
        <ele>911.40002441406</ele>
        <time>2012-02-25T14:20:06.000Z</time>
      </trkpt>
      <trkpt lat="45.68395" lon="3.03837">
        <ele>911</ele>
        <time>2012-02-25T14:20:09.000Z</time>
      </trkpt>
      <trkpt lat="45.68393" lon="3.03847">
        <ele>910.59997558594</ele>
        <time>2012-02-25T14:20:15.000Z</time>
      </trkpt>
      <trkpt lat="45.68393" lon="3.03849">
        <ele>910.40002441406</ele>
        <time>2012-02-25T14:20:16.000Z</time>
      </trkpt>
      <trkpt lat="45.68392" lon="3.03852">
        <ele>910.20001220703</ele>
        <time>2012-02-25T14:20:18.000Z</time>
      </trkpt>
      <trkpt lat="45.68391" lon="3.03863">
        <ele>909.59997558594</ele>
        <time>2012-02-25T14:20:25.000Z</time>
      </trkpt>
      <trkpt lat="45.68389" lon="3.03869">
        <ele>909.40002441406</ele>
        <time>2012-02-25T14:20:28.000Z</time>
      </trkpt>
      <trkpt lat="45.68388" lon="3.03872">
        <ele>909.20001220703</ele>
        <time>2012-02-25T14:20:30.000Z</time>
      </trkpt>
      <trkpt lat="45.68389" lon="3.03884">
        <ele>908.40002441406</ele>
        <time>2012-02-25T14:20:36.000Z</time>
      </trkpt>
      <trkpt lat="45.6839" lon="3.03887">
        <ele>908.20001220703</ele>
        <time>2012-02-25T14:20:38.000Z</time>
      </trkpt>
      <trkpt lat="45.68392" lon="3.03888">
        <ele>908</ele>
        <time>2012-02-25T14:20:40.000Z</time>
      </trkpt>
      <trkpt lat="45.68393" lon="3.03889">
        <ele>907.79998779297</ele>
        <time>2012-02-25T14:20:43.000Z</time>
      </trkpt>
      <trkpt lat="45.684" lon="3.03891">
        <ele>907.20001220703</ele>
        <time>2012-02-25T14:20:51.000Z</time>
      </trkpt>
      <trkpt lat="45.68402" lon="3.03891">
        <ele>907</ele>
        <time>2012-02-25T14:20:54.000Z</time>
      </trkpt>
      <trkpt lat="45.68406" lon="3.03892">
        <ele>906.59997558594</ele>
        <time>2012-02-25T14:21:01.000Z</time>
      </trkpt>
      <trkpt lat="45.68411" lon="3.03893">
        <ele>906.20001220703</ele>
        <time>2012-02-25T14:21:08.000Z</time>
      </trkpt>
      <trkpt lat="45.68415" lon="3.03894">
        <ele>905.79998779297</ele>
        <time>2012-02-25T14:21:14.000Z</time>
      </trkpt>
      <trkpt lat="45.68422" lon="3.03896">
        <ele>904.79998779297</ele>
        <time>2012-02-25T14:21:26.000Z</time>
      </trkpt>
      <trkpt lat="45.68428" lon="3.03896">
        <ele>904.20001220703</ele>
        <time>2012-02-25T14:21:32.000Z</time>
      </trkpt>
      <trkpt lat="45.6843" lon="3.03895">
        <ele>904</ele>
        <time>2012-02-25T14:21:34.000Z</time>
      </trkpt>
      <trkpt lat="45.68435" lon="3.03894">
        <ele>903.40002441406</ele>
        <time>2012-02-25T14:21:39.000Z</time>
      </trkpt>
      <trkpt lat="45.68438" lon="3.03895">
        <ele>903</ele>
        <time>2012-02-25T14:21:43.000Z</time>
      </trkpt>
      <trkpt lat="45.68442" lon="3.03896">
        <ele>902.59997558594</ele>
        <time>2012-02-25T14:21:49.000Z</time>
      </trkpt>
      <trkpt lat="45.68448" lon="3.03896">
        <ele>901.79998779297</ele>
        <time>2012-02-25T14:22:01.000Z</time>
      </trkpt>
      <trkpt lat="45.6845" lon="3.03897">
        <ele>901.59997558594</ele>
        <time>2012-02-25T14:22:04.000Z</time>
      </trkpt>
      <trkpt lat="45.68458" lon="3.03896">
        <ele>900.59997558594</ele>
        <time>2012-02-25T14:22:14.000Z</time>
      </trkpt>
      <trkpt lat="45.68461" lon="3.03896">
        <ele>900.40002441406</ele>
        <time>2012-02-25T14:22:19.000Z</time>
      </trkpt>
      <trkpt lat="45.68466" lon="3.03896">
        <ele>899.79998779297</ele>
        <time>2012-02-25T14:22:25.000Z</time>
      </trkpt>
      <trkpt lat="45.68469" lon="3.03895">
        <ele>899.40002441406</ele>
        <time>2012-02-25T14:22:33.000Z</time>
      </trkpt>
      <trkpt lat="45.68476" lon="3.03891">
        <ele>898.79998779297</ele>
        <time>2012-02-25T14:22:39.000Z</time>
      </trkpt>
      <trkpt lat="45.68479" lon="3.03888">
        <ele>898.59997558594</ele>
        <time>2012-02-25T14:22:42.000Z</time>
      </trkpt>
      <trkpt lat="45.68485" lon="3.03883">
        <ele>898.20001220703</ele>
        <time>2012-02-25T14:22:48.000Z</time>
      </trkpt>
      <trkpt lat="45.68489" lon="3.03875">
        <ele>898</ele>
        <time>2012-02-25T14:22:56.000Z</time>
      </trkpt>
      <trkpt lat="45.68489" lon="3.03875">
        <ele>897.79998779297</ele>
        <time>2012-02-25T14:22:57.000Z</time>
      </trkpt>
      <trkpt lat="45.68493" lon="3.03873">
        <ele>897.40002441406</ele>
        <time>2012-02-25T14:23:08.000Z</time>
      </trkpt>
      <trkpt lat="45.68495" lon="3.03862">
        <ele>897.59997558594</ele>
        <time>2012-02-25T14:23:18.000Z</time>
      </trkpt>
      <trkpt lat="45.68498" lon="3.03854">
        <ele>897.59997558594</ele>
        <time>2012-02-25T14:23:25.000Z</time>
      </trkpt>
      <trkpt lat="45.68501" lon="3.03847">
        <ele>897.20001220703</ele>
        <time>2012-02-25T14:23:33.000Z</time>
      </trkpt>
      <trkpt lat="45.68503" lon="3.03843">
        <ele>897</ele>
        <time>2012-02-25T14:23:38.000Z</time>
      </trkpt>
      <trkpt lat="45.68504" lon="3.03838">
        <ele>896.79998779297</ele>
        <time>2012-02-25T14:23:43.000Z</time>
      </trkpt>
      <trkpt lat="45.68507" lon="3.03833">
        <ele>896.20001220703</ele>
        <time>2012-02-25T14:23:49.000Z</time>
      </trkpt>
      <trkpt lat="45.6851" lon="3.03824">
        <ele>896</ele>
        <time>2012-02-25T14:23:56.000Z</time>
      </trkpt>
      <trkpt lat="45.68511" lon="3.03822">
        <ele>895.79998779297</ele>
        <time>2012-02-25T14:23:58.000Z</time>
      </trkpt>
      <trkpt lat="45.68512" lon="3.03817">
        <ele>895.59997558594</ele>
        <time>2012-02-25T14:24:02.000Z</time>
      </trkpt>
      <trkpt lat="45.68514" lon="3.03807">
        <ele>895.59997558594</ele>
        <time>2012-02-25T14:24:09.000Z</time>
      </trkpt>
      <trkpt lat="45.68518" lon="3.03798">
        <ele>895.20001220703</ele>
        <time>2012-02-25T14:24:16.000Z</time>
      </trkpt>
      <trkpt lat="45.68518" lon="3.03797">
        <ele>895.20001220703</ele>
        <time>2012-02-25T14:24:17.000Z</time>
      </trkpt>
      <trkpt lat="45.6852" lon="3.03791">
        <ele>894.79998779297</ele>
        <time>2012-02-25T14:24:23.000Z</time>
      </trkpt>
      <trkpt lat="45.68521" lon="3.03788">
        <ele>894.79998779297</ele>
        <time>2012-02-25T14:24:25.000Z</time>
      </trkpt>
      <trkpt lat="45.68523" lon="3.0378">
        <ele>894.59997558594</ele>
        <time>2012-02-25T14:24:33.000Z</time>
      </trkpt>
      <trkpt lat="45.68524" lon="3.03778">
        <ele>894.59997558594</ele>
        <time>2012-02-25T14:24:34.000Z</time>
      </trkpt>
      <trkpt lat="45.68527" lon="3.03769">
        <ele>893.79998779297</ele>
        <time>2012-02-25T14:24:43.000Z</time>
      </trkpt>
      <trkpt lat="45.6853" lon="3.03764">
        <ele>893.40002441406</ele>
        <time>2012-02-25T14:24:48.000Z</time>
      </trkpt>
      <trkpt lat="45.68531" lon="3.03752">
        <ele>893.59997558594</ele>
        <time>2012-02-25T14:24:57.000Z</time>
      </trkpt>
      <trkpt lat="45.68532" lon="3.0375">
        <ele>893.59997558594</ele>
        <time>2012-02-25T14:24:59.000Z</time>
      </trkpt>
      <trkpt lat="45.68534" lon="3.03737">
        <ele>893.40002441406</ele>
        <time>2012-02-25T14:25:09.000Z</time>
      </trkpt>
      <trkpt lat="45.68534" lon="3.03727">
        <ele>893.79998779297</ele>
        <time>2012-02-25T14:25:17.000Z</time>
      </trkpt>
      <trkpt lat="45.68534" lon="3.03726">
        <ele>894</ele>
        <time>2012-02-25T14:25:18.000Z</time>
      </trkpt>
      <trkpt lat="45.68534" lon="3.03716">
        <ele>894.20001220703</ele>
        <time>2012-02-25T14:25:27.000Z</time>
      </trkpt>
      <trkpt lat="45.68534" lon="3.03714">
        <ele>894.20001220703</ele>
        <time>2012-02-25T14:25:28.000Z</time>
      </trkpt>
      <trkpt lat="45.68534" lon="3.03707">
        <ele>894.59997558594</ele>
        <time>2012-02-25T14:25:35.000Z</time>
      </trkpt>
      <trkpt lat="45.68534" lon="3.03699">
        <ele>894.79998779297</ele>
        <time>2012-02-25T14:25:42.000Z</time>
      </trkpt>
      <trkpt lat="45.68535" lon="3.03694">
        <ele>895</ele>
        <time>2012-02-25T14:25:47.000Z</time>
      </trkpt>
      <trkpt lat="45.68535" lon="3.03689">
        <ele>895</ele>
        <time>2012-02-25T14:25:53.000Z</time>
      </trkpt>
      <trkpt lat="45.68536" lon="3.03684">
        <ele>894.79998779297</ele>
        <time>2012-02-25T14:25:59.000Z</time>
      </trkpt>
      <trkpt lat="45.68536" lon="3.03677">
        <ele>895.20001220703</ele>
        <time>2012-02-25T14:26:04.000Z</time>
      </trkpt>
      <trkpt lat="45.68538" lon="3.03673">
        <ele>895</ele>
        <time>2012-02-25T14:26:09.000Z</time>
      </trkpt>
      <trkpt lat="45.68538" lon="3.0367">
        <ele>894.79998779297</ele>
        <time>2012-02-25T14:26:11.000Z</time>
      </trkpt>
      <trkpt lat="45.68539" lon="3.03664">
        <ele>894.79998779297</ele>
        <time>2012-02-25T14:26:16.000Z</time>
      </trkpt>
      <trkpt lat="45.68539" lon="3.03661">
        <ele>894.79998779297</ele>
        <time>2012-02-25T14:26:18.000Z</time>
      </trkpt>
      <trkpt lat="45.68539" lon="3.03657">
        <ele>895</ele>
        <time>2012-02-25T14:26:21.000Z</time>
      </trkpt>
      <trkpt lat="45.68541" lon="3.03651">
        <ele>894.40002441406</ele>
        <time>2012-02-25T14:26:27.000Z</time>
      </trkpt>
      <trkpt lat="45.6854" lon="3.03642">
        <ele>894.79998779297</ele>
        <time>2012-02-25T14:26:33.000Z</time>
      </trkpt>
      <trkpt lat="45.6854" lon="3.03641">
        <ele>894.79998779297</ele>
        <time>2012-02-25T14:26:34.000Z</time>
      </trkpt>
      <trkpt lat="45.6854" lon="3.03634">
        <ele>895</ele>
        <time>2012-02-25T14:26:40.000Z</time>
      </trkpt>
      <trkpt lat="45.6854" lon="3.03629">
        <ele>894.79998779297</ele>
        <time>2012-02-25T14:26:45.000Z</time>
      </trkpt>
      <trkpt lat="45.68541" lon="3.03624">
        <ele>894.79998779297</ele>
        <time>2012-02-25T14:26:49.000Z</time>
      </trkpt>
      <trkpt lat="45.68541" lon="3.03619">
        <ele>894.79998779297</ele>
        <time>2012-02-25T14:26:53.000Z</time>
      </trkpt>
      <trkpt lat="45.68541" lon="3.03615">
        <ele>894.79998779297</ele>
        <time>2012-02-25T14:26:57.000Z</time>
      </trkpt>
      <trkpt lat="45.68541" lon="3.03609">
        <ele>895</ele>
        <time>2012-02-25T14:27:02.000Z</time>
      </trkpt>
      <trkpt lat="45.6854" lon="3.03602">
        <ele>895.20001220703</ele>
        <time>2012-02-25T14:27:08.000Z</time>
      </trkpt>
      <trkpt lat="45.6854" lon="3.03601">
        <ele>895.20001220703</ele>
        <time>2012-02-25T14:27:09.000Z</time>
      </trkpt>
      <trkpt lat="45.68541" lon="3.03594">
        <ele>895.20001220703</ele>
        <time>2012-02-25T14:27:15.000Z</time>
      </trkpt>
      <trkpt lat="45.68542" lon="3.03589">
        <ele>895</ele>
        <time>2012-02-25T14:27:20.000Z</time>
      </trkpt>
      <trkpt lat="45.68541" lon="3.03586">
        <ele>895</ele>
        <time>2012-02-25T14:27:22.000Z</time>
      </trkpt>
      <trkpt lat="45.68542" lon="3.03579">
        <ele>895.20001220703</ele>
        <time>2012-02-25T14:27:27.000Z</time>
      </trkpt>
      <trkpt lat="45.68542" lon="3.03571">
        <ele>895.40002441406</ele>
        <time>2012-02-25T14:27:33.000Z</time>
      </trkpt>
      <trkpt lat="45.68541" lon="3.03568">
        <ele>895.79998779297</ele>
        <time>2012-02-25T14:27:36.000Z</time>
      </trkpt>
      <trkpt lat="45.68542" lon="3.03561">
        <ele>896</ele>
        <time>2012-02-25T14:27:40.000Z</time>
      </trkpt>
      <trkpt lat="45.68542" lon="3.0356">
        <ele>896</ele>
        <time>2012-02-25T14:27:41.000Z</time>
      </trkpt>
      <trkpt lat="45.68542" lon="3.03559">
        <ele>896.20001220703</ele>
        <time>2012-02-25T14:27:42.000Z</time>
      </trkpt>
      <trkpt lat="45.6854" lon="3.03552">
        <ele>896.79998779297</ele>
        <time>2012-02-25T14:27:46.000Z</time>
      </trkpt>
      <trkpt lat="45.6854" lon="3.03546">
        <ele>897.20001220703</ele>
        <time>2012-02-25T14:27:49.000Z</time>
      </trkpt>
      <trkpt lat="45.6854" lon="3.03536">
        <ele>897.79998779297</ele>
        <time>2012-02-25T14:27:55.000Z</time>
      </trkpt>
      <trkpt lat="45.6854" lon="3.03528">
        <ele>898.20001220703</ele>
        <time>2012-02-25T14:28:00.000Z</time>
      </trkpt>
      <trkpt lat="45.6854" lon="3.03521">
        <ele>898.40002441406</ele>
        <time>2012-02-25T14:28:05.000Z</time>
      </trkpt>
      <trkpt lat="45.68541" lon="3.03514">
        <ele>898.40002441406</ele>
        <time>2012-02-25T14:28:10.000Z</time>
      </trkpt>
      <trkpt lat="45.68542" lon="3.03513">
        <ele>898.40002441406</ele>
        <time>2012-02-25T14:28:12.000Z</time>
      </trkpt>
      <trkpt lat="45.68545" lon="3.03504">
        <ele>898</ele>
        <time>2012-02-25T14:28:18.000Z</time>
      </trkpt>
      <trkpt lat="45.68546" lon="3.03499">
        <ele>898</ele>
        <time>2012-02-25T14:28:22.000Z</time>
      </trkpt>
      <trkpt lat="45.68547" lon="3.03495">
        <ele>898.20001220703</ele>
        <time>2012-02-25T14:28:25.000Z</time>
      </trkpt>
      <trkpt lat="45.68547" lon="3.03491">
        <ele>898.40002441406</ele>
        <time>2012-02-25T14:28:28.000Z</time>
      </trkpt>
      <trkpt lat="45.68546" lon="3.03486">
        <ele>899</ele>
        <time>2012-02-25T14:28:32.000Z</time>
      </trkpt>
      <trkpt lat="45.68547" lon="3.03479">
        <ele>899.59997558594</ele>
        <time>2012-02-25T14:28:38.000Z</time>
      </trkpt>
      <trkpt lat="45.68548" lon="3.03471">
        <ele>900</ele>
        <time>2012-02-25T14:28:45.000Z</time>
      </trkpt>
      <trkpt lat="45.68548" lon="3.03468">
        <ele>900</ele>
        <time>2012-02-25T14:28:47.000Z</time>
      </trkpt>
      <trkpt lat="45.68549" lon="3.0346">
        <ele>900.59997558594</ele>
        <time>2012-02-25T14:28:53.000Z</time>
      </trkpt>
      <trkpt lat="45.68549" lon="3.03458">
        <ele>900.79998779297</ele>
        <time>2012-02-25T14:28:55.000Z</time>
      </trkpt>
      <trkpt lat="45.68551" lon="3.03448">
        <ele>901.20001220703</ele>
        <time>2012-02-25T14:29:03.000Z</time>
      </trkpt>
      <trkpt lat="45.68551" lon="3.03446">
        <ele>901.20001220703</ele>
        <time>2012-02-25T14:29:05.000Z</time>
      </trkpt>
      <trkpt lat="45.68554" lon="3.0344">
        <ele>901.20001220703</ele>
        <time>2012-02-25T14:29:11.000Z</time>
      </trkpt>
      <trkpt lat="45.68559" lon="3.03428">
        <ele>901.20001220703</ele>
        <time>2012-02-25T14:29:21.000Z</time>
      </trkpt>
      <trkpt lat="45.68559" lon="3.03427">
        <ele>901.20001220703</ele>
        <time>2012-02-25T14:29:22.000Z</time>
      </trkpt>
      <trkpt lat="45.68561" lon="3.03425">
        <ele>901</ele>
        <time>2012-02-25T14:29:25.000Z</time>
      </trkpt>
      <trkpt lat="45.68563" lon="3.03419">
        <ele>901.20001220703</ele>
        <time>2012-02-25T14:29:31.000Z</time>
      </trkpt>
      <trkpt lat="45.68565" lon="3.03414">
        <ele>901.40002441406</ele>
        <time>2012-02-25T14:29:37.000Z</time>
      </trkpt>
      <trkpt lat="45.68567" lon="3.03411">
        <ele>901.59997558594</ele>
        <time>2012-02-25T14:29:42.000Z</time>
      </trkpt>
      <trkpt lat="45.68571" lon="3.03406">
        <ele>901.59997558594</ele>
        <time>2012-02-25T14:29:48.000Z</time>
      </trkpt>
      <trkpt lat="45.68575" lon="3.03402">
        <ele>901.59997558594</ele>
        <time>2012-02-25T14:29:55.000Z</time>
      </trkpt>
      <trkpt lat="45.68578" lon="3.03399">
        <ele>901.59997558594</ele>
        <time>2012-02-25T14:30:00.000Z</time>
      </trkpt>
      <trkpt lat="45.68581" lon="3.03395">
        <ele>901.59997558594</ele>
        <time>2012-02-25T14:30:05.000Z</time>
      </trkpt>
      <trkpt lat="45.68585" lon="3.03393">
        <ele>901.40002441406</ele>
        <time>2012-02-25T14:30:10.000Z</time>
      </trkpt>
      <trkpt lat="45.68586" lon="3.03392">
        <ele>901.40002441406</ele>
        <time>2012-02-25T14:30:11.000Z</time>
      </trkpt>
      <trkpt lat="45.68591" lon="3.03387">
        <ele>901.40002441406</ele>
        <time>2012-02-25T14:30:16.000Z</time>
      </trkpt>
      <trkpt lat="45.68595" lon="3.03382">
        <ele>901.79998779297</ele>
        <time>2012-02-25T14:30:22.000Z</time>
      </trkpt>
      <trkpt lat="45.68596" lon="3.03381">
        <ele>901.79998779297</ele>
        <time>2012-02-25T14:30:23.000Z</time>
      </trkpt>
      <trkpt lat="45.68603" lon="3.03377">
        <ele>901.59997558594</ele>
        <time>2012-02-25T14:30:30.000Z</time>
      </trkpt>
      <trkpt lat="45.68607" lon="3.03374">
        <ele>901.59997558594</ele>
        <time>2012-02-25T14:30:34.000Z</time>
      </trkpt>
      <trkpt lat="45.68609" lon="3.03372">
        <ele>901.40002441406</ele>
        <time>2012-02-25T14:30:36.000Z</time>
      </trkpt>
      <trkpt lat="45.68616" lon="3.03368">
        <ele>901.20001220703</ele>
        <time>2012-02-25T14:30:43.000Z</time>
      </trkpt>
      <trkpt lat="45.6862" lon="3.03364">
        <ele>901.20001220703</ele>
        <time>2012-02-25T14:30:48.000Z</time>
      </trkpt>
      <trkpt lat="45.68625" lon="3.0336">
        <ele>901</ele>
        <time>2012-02-25T14:30:55.000Z</time>
      </trkpt>
      <trkpt lat="45.68627" lon="3.03358">
        <ele>901.20001220703</ele>
        <time>2012-02-25T14:30:58.000Z</time>
      </trkpt>
      <trkpt lat="45.68631" lon="3.03355">
        <ele>901.20001220703</ele>
        <time>2012-02-25T14:31:03.000Z</time>
      </trkpt>
      <trkpt lat="45.68634" lon="3.03353">
        <ele>901</ele>
        <time>2012-02-25T14:31:07.000Z</time>
      </trkpt>
      <trkpt lat="45.68636" lon="3.03352">
        <ele>900.79998779297</ele>
        <time>2012-02-25T14:31:10.000Z</time>
      </trkpt>
      <trkpt lat="45.6864" lon="3.0335">
        <ele>900.59997558594</ele>
        <time>2012-02-25T14:31:14.000Z</time>
      </trkpt>
      <trkpt lat="45.68648" lon="3.03345">
        <ele>900</ele>
        <time>2012-02-25T14:31:21.000Z</time>
      </trkpt>
      <trkpt lat="45.68654" lon="3.0334">
        <ele>899.79998779297</ele>
        <time>2012-02-25T14:31:27.000Z</time>
      </trkpt>
      <trkpt lat="45.68655" lon="3.0334">
        <ele>899.79998779297</ele>
        <time>2012-02-25T14:31:28.000Z</time>
      </trkpt>
      <trkpt lat="45.68657" lon="3.03337">
        <ele>900</ele>
        <time>2012-02-25T14:31:31.000Z</time>
      </trkpt>
      <trkpt lat="45.6866" lon="3.03334">
        <ele>900</ele>
        <time>2012-02-25T14:31:36.000Z</time>
      </trkpt>
      <trkpt lat="45.68665" lon="3.03329">
        <ele>900</ele>
        <time>2012-02-25T14:31:44.000Z</time>
      </trkpt>
      <trkpt lat="45.68671" lon="3.03324">
        <ele>899.79998779297</ele>
        <time>2012-02-25T14:32:12.000Z</time>
      </trkpt>
      <trkpt lat="45.68674" lon="3.0332">
        <ele>899.79998779297</ele>
        <time>2012-02-25T14:32:20.000Z</time>
      </trkpt>
      <trkpt lat="45.68678" lon="3.03316">
        <ele>899.79998779297</ele>
        <time>2012-02-25T14:32:27.000Z</time>
      </trkpt>
      <trkpt lat="45.68684" lon="3.03306">
        <ele>900.20001220703</ele>
        <time>2012-02-25T14:32:47.000Z</time>
      </trkpt>
      <trkpt lat="45.68686" lon="3.03301">
        <ele>900.40002441406</ele>
        <time>2012-02-25T14:32:53.000Z</time>
      </trkpt>
      <trkpt lat="45.68687" lon="3.03297">
        <ele>900.79998779297</ele>
        <time>2012-02-25T14:32:59.000Z</time>
      </trkpt>
      <trkpt lat="45.68688" lon="3.03292">
        <ele>901.20001220703</ele>
        <time>2012-02-25T14:33:05.000Z</time>
      </trkpt>
      <trkpt lat="45.6869" lon="3.03287">
        <ele>901.40002441406</ele>
        <time>2012-02-25T14:33:10.000Z</time>
      </trkpt>
      <trkpt lat="45.68692" lon="3.0328">
        <ele>902.20001220703</ele>
        <time>2012-02-25T14:33:16.000Z</time>
      </trkpt>
      <trkpt lat="45.68692" lon="3.03278">
        <ele>902.20001220703</ele>
        <time>2012-02-25T14:33:17.000Z</time>
      </trkpt>
      <trkpt lat="45.68692" lon="3.03277">
        <ele>902.20001220703</ele>
        <time>2012-02-25T14:33:18.000Z</time>
      </trkpt>
      <trkpt lat="45.68696" lon="3.03267">
        <ele>902.79998779297</ele>
        <time>2012-02-25T14:33:27.000Z</time>
      </trkpt>
      <trkpt lat="45.68696" lon="3.03266">
        <ele>902.79998779297</ele>
        <time>2012-02-25T14:33:28.000Z</time>
      </trkpt>
      <trkpt lat="45.68698" lon="3.03264">
        <ele>902.79998779297</ele>
        <time>2012-02-25T14:33:31.000Z</time>
      </trkpt>
      <trkpt lat="45.687" lon="3.03253">
        <ele>903.59997558594</ele>
        <time>2012-02-25T14:33:39.000Z</time>
      </trkpt>
      <trkpt lat="45.687" lon="3.03251">
        <ele>904</ele>
        <time>2012-02-25T14:33:41.000Z</time>
      </trkpt>
      <trkpt lat="45.687" lon="3.03245">
        <ele>904.20001220703</ele>
        <time>2012-02-25T14:33:46.000Z</time>
      </trkpt>
      <trkpt lat="45.68701" lon="3.03238">
        <ele>904.40002441406</ele>
        <time>2012-02-25T14:33:50.000Z</time>
      </trkpt>
      <trkpt lat="45.68703" lon="3.03216">
        <ele>905</ele>
        <time>2012-02-25T14:34:26.000Z</time>
      </trkpt>
      <trkpt lat="45.68703" lon="3.03208">
        <ele>905.40002441406</ele>
        <time>2012-02-25T14:34:32.000Z</time>
      </trkpt>
      <trkpt lat="45.68704" lon="3.032">
        <ele>905.40002441406</ele>
        <time>2012-02-25T14:34:38.000Z</time>
      </trkpt>
      <trkpt lat="45.68704" lon="3.03199">
        <ele>905.40002441406</ele>
        <time>2012-02-25T14:34:39.000Z</time>
      </trkpt>
      <trkpt lat="45.68704" lon="3.03197">
        <ele>905.59997558594</ele>
        <time>2012-02-25T14:34:41.000Z</time>
      </trkpt>
      <trkpt lat="45.68704" lon="3.03191">
        <ele>906</ele>
        <time>2012-02-25T14:34:45.000Z</time>
      </trkpt>
      <trkpt lat="45.68704" lon="3.03185">
        <ele>906.20001220703</ele>
        <time>2012-02-25T14:34:50.000Z</time>
      </trkpt>
      <trkpt lat="45.68705" lon="3.03182">
        <ele>906.20001220703</ele>
        <time>2012-02-25T14:34:52.000Z</time>
      </trkpt>
      <trkpt lat="45.68706" lon="3.03176">
        <ele>906</ele>
        <time>2012-02-25T14:34:58.000Z</time>
      </trkpt>
      <trkpt lat="45.68709" lon="3.03169">
        <ele>905.59997558594</ele>
        <time>2012-02-25T14:35:04.000Z</time>
      </trkpt>
      <trkpt lat="45.68711" lon="3.03165">
        <ele>905.20001220703</ele>
        <time>2012-02-25T14:35:08.000Z</time>
      </trkpt>
      <trkpt lat="45.68716" lon="3.03163">
        <ele>904.20001220703</ele>
        <time>2012-02-25T14:35:13.000Z</time>
      </trkpt>
      <trkpt lat="45.68721" lon="3.03161">
        <ele>903</ele>
        <time>2012-02-25T14:35:21.000Z</time>
      </trkpt>
      <trkpt lat="45.68724" lon="3.0316">
        <ele>902.20001220703</ele>
        <time>2012-02-25T14:35:25.000Z</time>
      </trkpt>
      <trkpt lat="45.68728" lon="3.03157">
        <ele>901.40002441406</ele>
        <time>2012-02-25T14:35:30.000Z</time>
      </trkpt>
      <trkpt lat="45.68731" lon="3.03154">
        <ele>900.79998779297</ele>
        <time>2012-02-25T14:35:35.000Z</time>
      </trkpt>
      <trkpt lat="45.68733" lon="3.0315">
        <ele>900.40002441406</ele>
        <time>2012-02-25T14:35:38.000Z</time>
      </trkpt>
      <trkpt lat="45.68736" lon="3.03146">
        <ele>899.59997558594</ele>
        <time>2012-02-25T14:35:42.000Z</time>
      </trkpt>
      <trkpt lat="45.68738" lon="3.03145">
        <ele>899.40002441406</ele>
        <time>2012-02-25T14:35:44.000Z</time>
      </trkpt>
      <trkpt lat="45.6874" lon="3.03143">
        <ele>898.79998779297</ele>
        <time>2012-02-25T14:35:47.000Z</time>
      </trkpt>
      <trkpt lat="45.68746" lon="3.03139">
        <ele>897.40002441406</ele>
        <time>2012-02-25T14:35:55.000Z</time>
      </trkpt>
      <trkpt lat="45.68752" lon="3.03135">
        <ele>896.40002441406</ele>
        <time>2012-02-25T14:36:00.000Z</time>
      </trkpt>
      <trkpt lat="45.68757" lon="3.03131">
        <ele>896.59997558594</ele>
        <time>2012-02-25T14:36:06.000Z</time>
      </trkpt>
      <trkpt lat="45.68758" lon="3.03131">
        <ele>896.59997558594</ele>
        <time>2012-02-25T14:36:07.000Z</time>
      </trkpt>
      <trkpt lat="45.68763" lon="3.03128">
        <ele>896.79998779297</ele>
        <time>2012-02-25T14:36:12.000Z</time>
      </trkpt>
      <trkpt lat="45.68766" lon="3.03124">
        <ele>897</ele>
        <time>2012-02-25T14:36:17.000Z</time>
      </trkpt>
      <trkpt lat="45.68771" lon="3.03122">
        <ele>897.20001220703</ele>
        <time>2012-02-25T14:36:25.000Z</time>
      </trkpt>
      <trkpt lat="45.68775" lon="3.0312">
        <ele>897.20001220703</ele>
        <time>2012-02-25T14:36:29.000Z</time>
      </trkpt>
      <trkpt lat="45.68776" lon="3.03119">
        <ele>897.20001220703</ele>
        <time>2012-02-25T14:36:30.000Z</time>
      </trkpt>
      <trkpt lat="45.68778" lon="3.03116">
        <ele>897.40002441406</ele>
        <time>2012-02-25T14:36:35.000Z</time>
      </trkpt>
      <trkpt lat="45.68783" lon="3.03114">
        <ele>897.59997558594</ele>
        <time>2012-02-25T14:36:41.000Z</time>
      </trkpt>
      <trkpt lat="45.68788" lon="3.03111">
        <ele>898</ele>
        <time>2012-02-25T14:36:47.000Z</time>
      </trkpt>
      <trkpt lat="45.68794" lon="3.03107">
        <ele>898.40002441406</ele>
        <time>2012-02-25T14:36:52.000Z</time>
      </trkpt>
      <trkpt lat="45.68798" lon="3.03103">
        <ele>898.79998779297</ele>
        <time>2012-02-25T14:36:56.000Z</time>
      </trkpt>
      <trkpt lat="45.688" lon="3.03101">
        <ele>899</ele>
        <time>2012-02-25T14:36:59.000Z</time>
      </trkpt>
      <trkpt lat="45.68804" lon="3.03098">
        <ele>899.40002441406</ele>
        <time>2012-02-25T14:37:03.000Z</time>
      </trkpt>
      <trkpt lat="45.68806" lon="3.03098">
        <ele>899.40002441406</ele>
        <time>2012-02-25T14:37:06.000Z</time>
      </trkpt>
      <trkpt lat="45.6881" lon="3.03098">
        <ele>899.59997558594</ele>
        <time>2012-02-25T14:37:11.000Z</time>
      </trkpt>
      <trkpt lat="45.68814" lon="3.03098">
        <ele>899.59997558594</ele>
        <time>2012-02-25T14:37:17.000Z</time>
      </trkpt>
      <trkpt lat="45.68817" lon="3.031">
        <ele>899.40002441406</ele>
        <time>2012-02-25T14:37:22.000Z</time>
      </trkpt>
      <trkpt lat="45.68823" lon="3.03104">
        <ele>899.20001220703</ele>
        <time>2012-02-25T14:37:30.000Z</time>
      </trkpt>
      <trkpt lat="45.68824" lon="3.03104">
        <ele>899</ele>
        <time>2012-02-25T14:37:31.000Z</time>
      </trkpt>
      <trkpt lat="45.68825" lon="3.03105">
        <ele>899</ele>
        <time>2012-02-25T14:37:33.000Z</time>
      </trkpt>
      <trkpt lat="45.68829" lon="3.03107">
        <ele>898.79998779297</ele>
        <time>2012-02-25T14:37:38.000Z</time>
      </trkpt>
      <trkpt lat="45.6883" lon="3.03107">
        <ele>898.79998779297</ele>
        <time>2012-02-25T14:37:39.000Z</time>
      </trkpt>
      <trkpt lat="45.68831" lon="3.03108">
        <ele>898.79998779297</ele>
        <time>2012-02-25T14:37:40.000Z</time>
      </trkpt>
      <trkpt lat="45.68834" lon="3.03109">
        <ele>898.59997558594</ele>
        <time>2012-02-25T14:37:43.000Z</time>
      </trkpt>
      <trkpt lat="45.68838" lon="3.03113">
        <ele>898.59997558594</ele>
        <time>2012-02-25T14:37:48.000Z</time>
      </trkpt>
      <trkpt lat="45.68841" lon="3.03115">
        <ele>898.79998779297</ele>
        <time>2012-02-25T14:37:58.000Z</time>
      </trkpt>
      <trkpt lat="45.68846" lon="3.03116">
        <ele>899</ele>
        <time>2012-02-25T14:38:07.000Z</time>
      </trkpt>
      <trkpt lat="45.68849" lon="3.03119">
        <ele>899.20001220703</ele>
        <time>2012-02-25T14:38:15.000Z</time>
      </trkpt>
      <trkpt lat="45.68851" lon="3.0312">
        <ele>899.20001220703</ele>
        <time>2012-02-25T14:38:17.000Z</time>
      </trkpt>
      <trkpt lat="45.68856" lon="3.03126">
        <ele>899</ele>
        <time>2012-02-25T14:38:23.000Z</time>
      </trkpt>
      <trkpt lat="45.68861" lon="3.03131">
        <ele>899</ele>
        <time>2012-02-25T14:38:29.000Z</time>
      </trkpt>
      <trkpt lat="45.68865" lon="3.03133">
        <ele>899</ele>
        <time>2012-02-25T14:38:34.000Z</time>
      </trkpt>
      <trkpt lat="45.68869" lon="3.03135">
        <ele>899</ele>
        <time>2012-02-25T14:38:39.000Z</time>
      </trkpt>
      <trkpt lat="45.68873" lon="3.03136">
        <ele>899.40002441406</ele>
        <time>2012-02-25T14:38:43.000Z</time>
      </trkpt>
      <trkpt lat="45.6888" lon="3.03137">
        <ele>900.20001220703</ele>
        <time>2012-02-25T14:38:50.000Z</time>
      </trkpt>
      <trkpt lat="45.68886" lon="3.0314">
        <ele>900.40002441406</ele>
        <time>2012-02-25T14:38:56.000Z</time>
      </trkpt>
      <trkpt lat="45.68888" lon="3.03141">
        <ele>900.40002441406</ele>
        <time>2012-02-25T14:38:58.000Z</time>
      </trkpt>
      <trkpt lat="45.68893" lon="3.03148">
        <ele>900</ele>
        <time>2012-02-25T14:39:04.000Z</time>
      </trkpt>
      <trkpt lat="45.68896" lon="3.03153">
        <ele>899.79998779297</ele>
        <time>2012-02-25T14:39:09.000Z</time>
      </trkpt>
      <trkpt lat="45.68901" lon="3.0316">
        <ele>899.20001220703</ele>
        <time>2012-02-25T14:39:16.000Z</time>
      </trkpt>
      <trkpt lat="45.68903" lon="3.03165">
        <ele>898.79998779297</ele>
        <time>2012-02-25T14:39:21.000Z</time>
      </trkpt>
      <trkpt lat="45.68908" lon="3.03171">
        <ele>898.40002441406</ele>
        <time>2012-02-25T14:39:28.000Z</time>
      </trkpt>
      <trkpt lat="45.68909" lon="3.03172">
        <ele>898.40002441406</ele>
        <time>2012-02-25T14:39:29.000Z</time>
      </trkpt>
      <trkpt lat="45.68911" lon="3.03173">
        <ele>898.40002441406</ele>
        <time>2012-02-25T14:39:31.000Z</time>
      </trkpt>
      <trkpt lat="45.68915" lon="3.03176">
        <ele>898.40002441406</ele>
        <time>2012-02-25T14:39:35.000Z</time>
      </trkpt>
      <trkpt lat="45.68916" lon="3.03181">
        <ele>898</ele>
        <time>2012-02-25T14:39:38.000Z</time>
      </trkpt>
      <trkpt lat="45.68924" lon="3.03179">
        <ele>898.79998779297</ele>
        <time>2012-02-25T14:39:44.000Z</time>
      </trkpt>
      <trkpt lat="45.68927" lon="3.03179">
        <ele>899.20001220703</ele>
        <time>2012-02-25T14:39:46.000Z</time>
      </trkpt>
      <trkpt lat="45.68935" lon="3.03181">
        <ele>899.40002441406</ele>
        <time>2012-02-25T14:39:53.000Z</time>
      </trkpt>
      <trkpt lat="45.68941" lon="3.03183">
        <ele>899.59997558594</ele>
        <time>2012-02-25T14:40:00.000Z</time>
      </trkpt>
      <trkpt lat="45.68948" lon="3.03186">
        <ele>899.59997558594</ele>
        <time>2012-02-25T14:40:07.000Z</time>
      </trkpt>
      <trkpt lat="45.68949" lon="3.03187">
        <ele>899.59997558594</ele>
        <time>2012-02-25T14:40:08.000Z</time>
      </trkpt>
      <trkpt lat="45.68954" lon="3.0319">
        <ele>899.79998779297</ele>
        <time>2012-02-25T14:40:14.000Z</time>
      </trkpt>
      <trkpt lat="45.68955" lon="3.0319">
        <ele>899.79998779297</ele>
        <time>2012-02-25T14:40:15.000Z</time>
      </trkpt>
      <trkpt lat="45.68957" lon="3.0319">
        <ele>900</ele>
        <time>2012-02-25T14:40:17.000Z</time>
      </trkpt>
      <trkpt lat="45.68965" lon="3.03191">
        <ele>900.59997558594</ele>
        <time>2012-02-25T14:40:22.000Z</time>
      </trkpt>
      <trkpt lat="45.68973" lon="3.03193">
        <ele>900.79998779297</ele>
        <time>2012-02-25T14:40:28.000Z</time>
      </trkpt>
      <trkpt lat="45.68983" lon="3.03192">
        <ele>901.79998779297</ele>
        <time>2012-02-25T14:40:36.000Z</time>
      </trkpt>
      <trkpt lat="45.6899" lon="3.03186">
        <ele>903.20001220703</ele>
        <time>2012-02-25T14:40:44.000Z</time>
      </trkpt>
      <trkpt lat="45.68995" lon="3.03179">
        <ele>904.20001220703</ele>
        <time>2012-02-25T14:40:51.000Z</time>
      </trkpt>
      <trkpt lat="45.68999" lon="3.03174">
        <ele>905.20001220703</ele>
        <time>2012-02-25T14:40:56.000Z</time>
      </trkpt>
      <trkpt lat="45.69007" lon="3.03165">
        <ele>906</ele>
        <time>2012-02-25T14:41:06.000Z</time>
      </trkpt>
      <trkpt lat="45.69014" lon="3.03155">
        <ele>906.59997558594</ele>
        <time>2012-02-25T14:41:15.000Z</time>
      </trkpt>
      <trkpt lat="45.6902" lon="3.03149">
        <ele>907</ele>
        <time>2012-02-25T14:41:22.000Z</time>
      </trkpt>
      <trkpt lat="45.69025" lon="3.03141">
        <ele>907.59997558594</ele>
        <time>2012-02-25T14:41:29.000Z</time>
      </trkpt>
      <trkpt lat="45.69027" lon="3.03139">
        <ele>907.79998779297</ele>
        <time>2012-02-25T14:41:32.000Z</time>
      </trkpt>
      <trkpt lat="45.69029" lon="3.03135">
        <ele>908</ele>
        <time>2012-02-25T14:41:38.000Z</time>
      </trkpt>
      <trkpt lat="45.69033" lon="3.03113">
        <ele>910</ele>
        <time>2012-02-25T14:42:35.000Z</time>
      </trkpt>
      <trkpt lat="45.69033" lon="3.03108">
        <ele>910.40002441406</ele>
        <time>2012-02-25T14:42:42.000Z</time>
      </trkpt>
      <trkpt lat="45.69034" lon="3.03103">
        <ele>911</ele>
        <time>2012-02-25T14:42:46.000Z</time>
      </trkpt>
      <trkpt lat="45.69034" lon="3.03097">
        <ele>911.40002441406</ele>
        <time>2012-02-25T14:42:51.000Z</time>
      </trkpt>
      <trkpt lat="45.69035" lon="3.0309">
        <ele>912.20001220703</ele>
        <time>2012-02-25T14:42:58.000Z</time>
      </trkpt>
      <trkpt lat="45.69038" lon="3.03082">
        <ele>912.79998779297</ele>
        <time>2012-02-25T14:43:07.000Z</time>
      </trkpt>
      <trkpt lat="45.69042" lon="3.03074">
        <ele>913.40002441406</ele>
        <time>2012-02-25T14:43:16.000Z</time>
      </trkpt>
      <trkpt lat="45.69045" lon="3.0307">
        <ele>913.79998779297</ele>
        <time>2012-02-25T14:43:22.000Z</time>
      </trkpt>
      <trkpt lat="45.69049" lon="3.03066">
        <ele>914.20001220703</ele>
        <time>2012-02-25T14:43:28.000Z</time>
      </trkpt>
      <trkpt lat="45.69054" lon="3.03059">
        <ele>914.59997558594</ele>
        <time>2012-02-25T14:43:36.000Z</time>
      </trkpt>
      <trkpt lat="45.69059" lon="3.03054">
        <ele>915</ele>
        <time>2012-02-25T14:43:43.000Z</time>
      </trkpt>
      <trkpt lat="45.69064" lon="3.03046">
        <ele>915.79998779297</ele>
        <time>2012-02-25T14:43:52.000Z</time>
      </trkpt>
      <trkpt lat="45.69068" lon="3.03039">
        <ele>916.40002441406</ele>
        <time>2012-02-25T14:44:01.000Z</time>
      </trkpt>
      <trkpt lat="45.69071" lon="3.03032">
        <ele>917</ele>
        <time>2012-02-25T14:44:10.000Z</time>
      </trkpt>
      <trkpt lat="45.69074" lon="3.03024">
        <ele>917.79998779297</ele>
        <time>2012-02-25T14:44:29.000Z</time>
      </trkpt>
      <trkpt lat="45.69079" lon="3.03017">
        <ele>918.40002441406</ele>
        <time>2012-02-25T14:44:38.000Z</time>
      </trkpt>
      <trkpt lat="45.69084" lon="3.03008">
        <ele>919</ele>
        <time>2012-02-25T14:44:48.000Z</time>
      </trkpt>
      <trkpt lat="45.69086" lon="3.03004">
        <ele>919.59997558594</ele>
        <time>2012-02-25T14:44:54.000Z</time>
      </trkpt>
      <trkpt lat="45.69091" lon="3.02999">
        <ele>920</ele>
        <time>2012-02-25T14:45:02.000Z</time>
      </trkpt>
      <trkpt lat="45.69093" lon="3.02996">
        <ele>920.20001220703</ele>
        <time>2012-02-25T14:45:07.000Z</time>
      </trkpt>
      <trkpt lat="45.69098" lon="3.02992">
        <ele>920.79998779297</ele>
        <time>2012-02-25T14:45:15.000Z</time>
      </trkpt>
      <trkpt lat="45.69104" lon="3.02985">
        <ele>921.40002441406</ele>
        <time>2012-02-25T14:45:23.000Z</time>
      </trkpt>
      <trkpt lat="45.69113" lon="3.02978">
        <ele>922</ele>
        <time>2012-02-25T14:45:33.000Z</time>
      </trkpt>
      <trkpt lat="45.69119" lon="3.02972">
        <ele>922.59997558594</ele>
        <time>2012-02-25T14:45:40.000Z</time>
      </trkpt>
      <trkpt lat="45.69121" lon="3.02971">
        <ele>922.79998779297</ele>
        <time>2012-02-25T14:45:42.000Z</time>
      </trkpt>
      <trkpt lat="45.69125" lon="3.02966">
        <ele>923.20001220703</ele>
        <time>2012-02-25T14:45:48.000Z</time>
      </trkpt>
      <trkpt lat="45.69129" lon="3.02963">
        <ele>923.40002441406</ele>
        <time>2012-02-25T14:45:55.000Z</time>
      </trkpt>
      <trkpt lat="45.69134" lon="3.02957">
        <ele>924</ele>
        <time>2012-02-25T14:46:02.000Z</time>
      </trkpt>
      <trkpt lat="45.69137" lon="3.02952">
        <ele>924.59997558594</ele>
        <time>2012-02-25T14:46:08.000Z</time>
      </trkpt>
      <trkpt lat="45.69138" lon="3.02952">
        <ele>924.59997558594</ele>
        <time>2012-02-25T14:46:09.000Z</time>
      </trkpt>
      <trkpt lat="45.69141" lon="3.02947">
        <ele>925</ele>
        <time>2012-02-25T14:46:14.000Z</time>
      </trkpt>
      <trkpt lat="45.69144" lon="3.02941">
        <ele>925.59997558594</ele>
        <time>2012-02-25T14:46:22.000Z</time>
      </trkpt>
      <trkpt lat="45.69147" lon="3.02931">
        <ele>926.59997558594</ele>
        <time>2012-02-25T14:46:30.000Z</time>
      </trkpt>
      <trkpt lat="45.69147" lon="3.02929">
        <ele>926.79998779297</ele>
        <time>2012-02-25T14:46:32.000Z</time>
      </trkpt>
      <trkpt lat="45.69151" lon="3.02922">
        <ele>927.59997558594</ele>
        <time>2012-02-25T14:46:39.000Z</time>
      </trkpt>
      <trkpt lat="45.69155" lon="3.02913">
        <ele>928.59997558594</ele>
        <time>2012-02-25T14:46:47.000Z</time>
      </trkpt>
      <trkpt lat="45.69156" lon="3.02911">
        <ele>928.79998779297</ele>
        <time>2012-02-25T14:46:49.000Z</time>
      </trkpt>
      <trkpt lat="45.69158" lon="3.02904">
        <ele>929.59997558594</ele>
        <time>2012-02-25T14:46:55.000Z</time>
      </trkpt>
      <trkpt lat="45.69165" lon="3.0289">
        <ele>931.20001220703</ele>
        <time>2012-02-25T14:47:07.000Z</time>
      </trkpt>
      <trkpt lat="45.69171" lon="3.02878">
        <ele>932.79998779297</ele>
        <time>2012-02-25T14:47:18.000Z</time>
      </trkpt>
      <trkpt lat="45.69175" lon="3.02869">
        <ele>933.79998779297</ele>
        <time>2012-02-25T14:47:27.000Z</time>
      </trkpt>
      <trkpt lat="45.69179" lon="3.02858">
        <ele>935</ele>
        <time>2012-02-25T14:47:36.000Z</time>
      </trkpt>
      <trkpt lat="45.69182" lon="3.02848">
        <ele>936.20001220703</ele>
        <time>2012-02-25T14:47:46.000Z</time>
      </trkpt>
      <trkpt lat="45.69184" lon="3.02843">
        <ele>937</ele>
        <time>2012-02-25T14:47:51.000Z</time>
      </trkpt>
      <trkpt lat="45.69184" lon="3.0284">
        <ele>937.20001220703</ele>
        <time>2012-02-25T14:47:58.000Z</time>
      </trkpt>
      <trkpt lat="45.69185" lon="3.02838">
        <ele>937.40002441406</ele>
        <time>2012-02-25T14:48:06.000Z</time>
      </trkpt>
      <trkpt lat="45.69188" lon="3.02833">
        <ele>938</ele>
        <time>2012-02-25T14:48:12.000Z</time>
      </trkpt>
      <trkpt lat="45.69193" lon="3.02823">
        <ele>939</ele>
        <time>2012-02-25T14:48:20.000Z</time>
      </trkpt>
      <trkpt lat="45.69194" lon="3.02821">
        <ele>939.20001220703</ele>
        <time>2012-02-25T14:48:22.000Z</time>
      </trkpt>
      <trkpt lat="45.69196" lon="3.02818">
        <ele>939.59997558594</ele>
        <time>2012-02-25T14:48:26.000Z</time>
      </trkpt>
      <trkpt lat="45.69196" lon="3.02817">
        <ele>939.59997558594</ele>
        <time>2012-02-25T14:48:27.000Z</time>
      </trkpt>
      <trkpt lat="45.69199" lon="3.02815">
        <ele>939.79998779297</ele>
        <time>2012-02-25T14:48:33.000Z</time>
      </trkpt>
      <trkpt lat="45.69202" lon="3.02812">
        <ele>940.20001220703</ele>
        <time>2012-02-25T14:48:38.000Z</time>
      </trkpt>
      <trkpt lat="45.69205" lon="3.02808">
        <ele>940.40002441406</ele>
        <time>2012-02-25T14:48:42.000Z</time>
      </trkpt>
      <trkpt lat="45.6921" lon="3.02803">
        <ele>941</ele>
        <time>2012-02-25T14:48:48.000Z</time>
      </trkpt>
      <trkpt lat="45.69213" lon="3.02799">
        <ele>941.20001220703</ele>
        <time>2012-02-25T14:48:52.000Z</time>
      </trkpt>
      <trkpt lat="45.69221" lon="3.02787">
        <ele>942.20001220703</ele>
        <time>2012-02-25T14:49:04.000Z</time>
      </trkpt>
      <trkpt lat="45.69226" lon="3.02779">
        <ele>943</ele>
        <time>2012-02-25T14:49:13.000Z</time>
      </trkpt>
      <trkpt lat="45.69226" lon="3.02778">
        <ele>943</ele>
        <time>2012-02-25T14:49:14.000Z</time>
      </trkpt>
      <trkpt lat="45.6923" lon="3.02773">
        <ele>943.40002441406</ele>
        <time>2012-02-25T14:49:19.000Z</time>
      </trkpt>
      <trkpt lat="45.69234" lon="3.02766">
        <ele>944</ele>
        <time>2012-02-25T14:49:26.000Z</time>
      </trkpt>
      <trkpt lat="45.69239" lon="3.02755">
        <ele>944.79998779297</ele>
        <time>2012-02-25T14:49:34.000Z</time>
      </trkpt>
      <trkpt lat="45.6924" lon="3.02754">
        <ele>944.79998779297</ele>
        <time>2012-02-25T14:49:35.000Z</time>
      </trkpt>
      <trkpt lat="45.69245" lon="3.02747">
        <ele>945.40002441406</ele>
        <time>2012-02-25T14:49:42.000Z</time>
      </trkpt>
      <trkpt lat="45.69245" lon="3.02745">
        <ele>945.59997558594</ele>
        <time>2012-02-25T14:49:44.000Z</time>
      </trkpt>
      <trkpt lat="45.6925" lon="3.02734">
        <ele>946.40002441406</ele>
        <time>2012-02-25T14:49:52.000Z</time>
      </trkpt>
      <trkpt lat="45.69251" lon="3.02733">
        <ele>946.40002441406</ele>
        <time>2012-02-25T14:49:53.000Z</time>
      </trkpt>
      <trkpt lat="45.69254" lon="3.02725">
        <ele>946.79998779297</ele>
        <time>2012-02-25T14:49:59.000Z</time>
      </trkpt>
      <trkpt lat="45.69259" lon="3.02714">
        <ele>947.40002441406</ele>
        <time>2012-02-25T14:50:06.000Z</time>
      </trkpt>
      <trkpt lat="45.69264" lon="3.02705">
        <ele>947.79998779297</ele>
        <time>2012-02-25T14:50:12.000Z</time>
      </trkpt>
      <trkpt lat="45.69268" lon="3.02697">
        <ele>948.20001220703</ele>
        <time>2012-02-25T14:50:18.000Z</time>
      </trkpt>
      <trkpt lat="45.69273" lon="3.02685">
        <ele>948.79998779297</ele>
        <time>2012-02-25T14:50:27.000Z</time>
      </trkpt>
      <trkpt lat="45.69276" lon="3.02678">
        <ele>949.20001220703</ele>
        <time>2012-02-25T14:50:33.000Z</time>
      </trkpt>
      <trkpt lat="45.69278" lon="3.02672">
        <ele>949.40002441406</ele>
        <time>2012-02-25T14:50:37.000Z</time>
      </trkpt>
      <trkpt lat="45.69282" lon="3.02664">
        <ele>950</ele>
        <time>2012-02-25T14:50:43.000Z</time>
      </trkpt>
      <trkpt lat="45.69284" lon="3.02654">
        <ele>950.59997558594</ele>
        <time>2012-02-25T14:50:49.000Z</time>
      </trkpt>
      <trkpt lat="45.69285" lon="3.0265">
        <ele>951</ele>
        <time>2012-02-25T14:50:52.000Z</time>
      </trkpt>
      <trkpt lat="45.69287" lon="3.02639">
        <ele>951.79998779297</ele>
        <time>2012-02-25T14:50:59.000Z</time>
      </trkpt>
      <trkpt lat="45.69289" lon="3.02631">
        <ele>952.40002441406</ele>
        <time>2012-02-25T14:51:05.000Z</time>
      </trkpt>
      <trkpt lat="45.69289" lon="3.02624">
        <ele>953</ele>
        <time>2012-02-25T14:51:12.000Z</time>
      </trkpt>
      <trkpt lat="45.69294" lon="3.02615">
        <ele>953.59997558594</ele>
        <time>2012-02-25T14:51:20.000Z</time>
      </trkpt>
      <trkpt lat="45.69294" lon="3.02614">
        <ele>953.59997558594</ele>
        <time>2012-02-25T14:51:21.000Z</time>
      </trkpt>
      <trkpt lat="45.69295" lon="3.02613">
        <ele>953.59997558594</ele>
        <time>2012-02-25T14:51:22.000Z</time>
      </trkpt>
      <trkpt lat="45.693" lon="3.02605">
        <ele>954.20001220703</ele>
        <time>2012-02-25T14:51:30.000Z</time>
      </trkpt>
      <trkpt lat="45.69303" lon="3.02601">
        <ele>954.40002441406</ele>
        <time>2012-02-25T14:51:34.000Z</time>
      </trkpt>
      <trkpt lat="45.69308" lon="3.02595">
        <ele>954.79998779297</ele>
        <time>2012-02-25T14:51:40.000Z</time>
      </trkpt>
      <trkpt lat="45.69313" lon="3.02589">
        <ele>955.20001220703</ele>
        <time>2012-02-25T14:51:46.000Z</time>
      </trkpt>
      <trkpt lat="45.69316" lon="3.02584">
        <ele>955.59997558594</ele>
        <time>2012-02-25T14:51:52.000Z</time>
      </trkpt>
      <trkpt lat="45.6932" lon="3.0258">
        <ele>955.79998779297</ele>
        <time>2012-02-25T14:51:58.000Z</time>
      </trkpt>
      <trkpt lat="45.69326" lon="3.02575">
        <ele>955.79998779297</ele>
        <time>2012-02-25T14:52:04.000Z</time>
      </trkpt>
      <trkpt lat="45.6933" lon="3.02567">
        <ele>956.40002441406</ele>
        <time>2012-02-25T14:52:11.000Z</time>
      </trkpt>
      <trkpt lat="45.69331" lon="3.02564">
        <ele>956.40002441406</ele>
        <time>2012-02-25T14:52:13.000Z</time>
      </trkpt>
      <trkpt lat="45.69334" lon="3.02559">
        <ele>956.59997558594</ele>
        <time>2012-02-25T14:52:17.000Z</time>
      </trkpt>
      <trkpt lat="45.69336" lon="3.02554">
        <ele>956.79998779297</ele>
        <time>2012-02-25T14:52:21.000Z</time>
      </trkpt>
      <trkpt lat="45.69341" lon="3.02545">
        <ele>957</ele>
        <time>2012-02-25T14:52:28.000Z</time>
      </trkpt>
      <trkpt lat="45.69347" lon="3.02535">
        <ele>957.20001220703</ele>
        <time>2012-02-25T14:52:36.000Z</time>
      </trkpt>
      <trkpt lat="45.69352" lon="3.02525">
        <ele>957.59997558594</ele>
        <time>2012-02-25T14:52:44.000Z</time>
      </trkpt>
      <trkpt lat="45.69357" lon="3.02515">
        <ele>958</ele>
        <time>2012-02-25T14:52:51.000Z</time>
      </trkpt>
      <trkpt lat="45.6936" lon="3.02505">
        <ele>958.40002441406</ele>
        <time>2012-02-25T14:52:57.000Z</time>
      </trkpt>
      <trkpt lat="45.69362" lon="3.02498">
        <ele>958.79998779297</ele>
        <time>2012-02-25T14:53:02.000Z</time>
      </trkpt>
      <trkpt lat="45.69364" lon="3.02494">
        <ele>958.79998779297</ele>
        <time>2012-02-25T14:53:07.000Z</time>
      </trkpt>
      <trkpt lat="45.69366" lon="3.02483">
        <ele>959.40002441406</ele>
        <time>2012-02-25T14:53:14.000Z</time>
      </trkpt>
      <trkpt lat="45.69368" lon="3.0247">
        <ele>960.20001220703</ele>
        <time>2012-02-25T14:53:22.000Z</time>
      </trkpt>
      <trkpt lat="45.69368" lon="3.02463">
        <ele>960.79998779297</ele>
        <time>2012-02-25T14:53:29.000Z</time>
      </trkpt>
      <trkpt lat="45.69369" lon="3.02455">
        <ele>961.20001220703</ele>
        <time>2012-02-25T14:53:36.000Z</time>
      </trkpt>
      <trkpt lat="45.69371" lon="3.02444">
        <ele>961.79998779297</ele>
        <time>2012-02-25T14:53:43.000Z</time>
      </trkpt>
      <trkpt lat="45.69371" lon="3.02432">
        <ele>962.79998779297</ele>
        <time>2012-02-25T14:53:50.000Z</time>
      </trkpt>
      <trkpt lat="45.69372" lon="3.02419">
        <ele>963.59997558594</ele>
        <time>2012-02-25T14:53:59.000Z</time>
      </trkpt>
      <trkpt lat="45.69372" lon="3.02418">
        <ele>963.59997558594</ele>
        <time>2012-02-25T14:54:00.000Z</time>
      </trkpt>
      <trkpt lat="45.69371" lon="3.02411">
        <ele>964.20001220703</ele>
        <time>2012-02-25T14:54:06.000Z</time>
      </trkpt>
      <trkpt lat="45.6937" lon="3.02403">
        <ele>965</ele>
        <time>2012-02-25T14:54:16.000Z</time>
      </trkpt>
      <trkpt lat="45.6937" lon="3.02396">
        <ele>965.59997558594</ele>
        <time>2012-02-25T14:54:22.000Z</time>
      </trkpt>
      <trkpt lat="45.69371" lon="3.02386">
        <ele>966.40002441406</ele>
        <time>2012-02-25T14:54:29.000Z</time>
      </trkpt>
      <trkpt lat="45.69372" lon="3.0238">
        <ele>966.79998779297</ele>
        <time>2012-02-25T14:54:34.000Z</time>
      </trkpt>
      <trkpt lat="45.69372" lon="3.02375">
        <ele>967.20001220703</ele>
        <time>2012-02-25T14:54:37.000Z</time>
      </trkpt>
      <trkpt lat="45.69373" lon="3.02366">
        <ele>968</ele>
        <time>2012-02-25T14:54:45.000Z</time>
      </trkpt>
      <trkpt lat="45.69373" lon="3.02366">
        <ele>968</ele>
        <time>2012-02-25T14:54:46.000Z</time>
      </trkpt>
      <trkpt lat="45.69373" lon="3.02359">
        <ele>968.59997558594</ele>
        <time>2012-02-25T14:54:52.000Z</time>
      </trkpt>
      <trkpt lat="45.69373" lon="3.02351">
        <ele>969.20001220703</ele>
        <time>2012-02-25T14:54:59.000Z</time>
      </trkpt>
      <trkpt lat="45.69373" lon="3.02342">
        <ele>970</ele>
        <time>2012-02-25T14:55:07.000Z</time>
      </trkpt>
      <trkpt lat="45.69373" lon="3.02341">
        <ele>970</ele>
        <time>2012-02-25T14:55:08.000Z</time>
      </trkpt>
      <trkpt lat="45.69374" lon="3.02335">
        <ele>970.40002441406</ele>
        <time>2012-02-25T14:55:14.000Z</time>
      </trkpt>
      <trkpt lat="45.69374" lon="3.02326">
        <ele>971</ele>
        <time>2012-02-25T14:55:22.000Z</time>
      </trkpt>
      <trkpt lat="45.69374" lon="3.02316">
        <ele>971.40002441406</ele>
        <time>2012-02-25T14:55:30.000Z</time>
      </trkpt>
      <trkpt lat="45.69374" lon="3.02311">
        <ele>971.79998779297</ele>
        <time>2012-02-25T14:55:36.000Z</time>
      </trkpt>
      <trkpt lat="45.69374" lon="3.02306">
        <ele>972</ele>
        <time>2012-02-25T14:55:41.000Z</time>
      </trkpt>
      <trkpt lat="45.69375" lon="3.02302">
        <ele>972.20001220703</ele>
        <time>2012-02-25T14:55:47.000Z</time>
      </trkpt>
      <trkpt lat="45.69372" lon="3.02295">
        <ele>973</ele>
        <time>2012-02-25T14:56:08.000Z</time>
      </trkpt>
      <trkpt lat="45.6937" lon="3.02288">
        <ele>973.40002441406</ele>
        <time>2012-02-25T14:56:16.000Z</time>
      </trkpt>
      <trkpt lat="45.69369" lon="3.02282">
        <ele>974</ele>
        <time>2012-02-25T14:56:22.000Z</time>
      </trkpt>
      <trkpt lat="45.69368" lon="3.02277">
        <ele>974.40002441406</ele>
        <time>2012-02-25T14:56:27.000Z</time>
      </trkpt>
      <trkpt lat="45.69367" lon="3.02268">
        <ele>975</ele>
        <time>2012-02-25T14:56:35.000Z</time>
      </trkpt>
      <trkpt lat="45.69365" lon="3.0226">
        <ele>975.59997558594</ele>
        <time>2012-02-25T14:56:44.000Z</time>
      </trkpt>
      <trkpt lat="45.69364" lon="3.02257">
        <ele>976</ele>
        <time>2012-02-25T14:56:50.000Z</time>
      </trkpt>
      <trkpt lat="45.69364" lon="3.02252">
        <ele>976.20001220703</ele>
        <time>2012-02-25T14:57:07.000Z</time>
      </trkpt>
      <trkpt lat="45.69365" lon="3.02246">
        <ele>976.40002441406</ele>
        <time>2012-02-25T14:57:15.000Z</time>
      </trkpt>
      <trkpt lat="45.69367" lon="3.02232">
        <ele>976.79998779297</ele>
        <time>2012-02-25T14:57:24.000Z</time>
      </trkpt>
      <trkpt lat="45.69369" lon="3.02218">
        <ele>977.20001220703</ele>
        <time>2012-02-25T14:57:32.000Z</time>
      </trkpt>
      <trkpt lat="45.69371" lon="3.02202">
        <ele>977.79998779297</ele>
        <time>2012-02-25T14:57:42.000Z</time>
      </trkpt>
      <trkpt lat="45.69372" lon="3.02191">
        <ele>978.20001220703</ele>
        <time>2012-02-25T14:57:49.000Z</time>
      </trkpt>
      <trkpt lat="45.69371" lon="3.02177">
        <ele>979</ele>
        <time>2012-02-25T14:57:58.000Z</time>
      </trkpt>
      <trkpt lat="45.69371" lon="3.02172">
        <ele>979.20001220703</ele>
        <time>2012-02-25T14:58:02.000Z</time>
      </trkpt>
      <trkpt lat="45.69371" lon="3.02163">
        <ele>979.40002441406</ele>
        <time>2012-02-25T14:58:08.000Z</time>
      </trkpt>
      <trkpt lat="45.69371" lon="3.02148">
        <ele>979.79998779297</ele>
        <time>2012-02-25T14:58:18.000Z</time>
      </trkpt>
      <trkpt lat="45.6937" lon="3.02142">
        <ele>979.79998779297</ele>
        <time>2012-02-25T14:58:22.000Z</time>
      </trkpt>
      <trkpt lat="45.69367" lon="3.02135">
        <ele>980.40002441406</ele>
        <time>2012-02-25T14:58:28.000Z</time>
      </trkpt>
      <trkpt lat="45.69366" lon="3.02123">
        <ele>980.59997558594</ele>
        <time>2012-02-25T14:58:36.000Z</time>
      </trkpt>
      <trkpt lat="45.69365" lon="3.0212">
        <ele>980.79998779297</ele>
        <time>2012-02-25T14:58:38.000Z</time>
      </trkpt>
      <trkpt lat="45.69364" lon="3.02114">
        <ele>981</ele>
        <time>2012-02-25T14:58:44.000Z</time>
      </trkpt>
      <trkpt lat="45.69363" lon="3.02104">
        <ele>981.20001220703</ele>
        <time>2012-02-25T14:58:52.000Z</time>
      </trkpt>
      <trkpt lat="45.69359" lon="3.02104">
        <ele>981.59997558594</ele>
        <time>2012-02-25T14:58:58.000Z</time>
      </trkpt>
      <trkpt lat="45.69356" lon="3.02104">
        <ele>982</ele>
        <time>2012-02-25T14:59:05.000Z</time>
      </trkpt>
      <trkpt lat="45.69354" lon="3.02102">
        <ele>982.20001220703</ele>
        <time>2012-02-25T14:59:10.000Z</time>
      </trkpt>
      <trkpt lat="45.69354" lon="3.02096">
        <ele>982.40002441406</ele>
        <time>2012-02-25T14:59:16.000Z</time>
      </trkpt>
      <trkpt lat="45.69356" lon="3.02088">
        <ele>982.20001220703</ele>
        <time>2012-02-25T14:59:24.000Z</time>
      </trkpt>
      <trkpt lat="45.69355" lon="3.02082">
        <ele>982.40002441406</ele>
        <time>2012-02-25T14:59:30.000Z</time>
      </trkpt>
      <trkpt lat="45.69354" lon="3.02076">
        <ele>982.79998779297</ele>
        <time>2012-02-25T14:59:36.000Z</time>
      </trkpt>
      <trkpt lat="45.69353" lon="3.02071">
        <ele>983</ele>
        <time>2012-02-25T14:59:42.000Z</time>
      </trkpt>
      <trkpt lat="45.69352" lon="3.02065">
        <ele>983.40002441406</ele>
        <time>2012-02-25T14:59:48.000Z</time>
      </trkpt>
      <trkpt lat="45.69352" lon="3.0206">
        <ele>983.59997558594</ele>
        <time>2012-02-25T14:59:52.000Z</time>
      </trkpt>
      <trkpt lat="45.69351" lon="3.02048">
        <ele>984.20001220703</ele>
        <time>2012-02-25T15:00:01.000Z</time>
      </trkpt>
      <trkpt lat="45.69351" lon="3.02044">
        <ele>984.20001220703</ele>
        <time>2012-02-25T15:00:05.000Z</time>
      </trkpt>
      <trkpt lat="45.69352" lon="3.02034">
        <ele>984.40002441406</ele>
        <time>2012-02-25T15:00:14.000Z</time>
      </trkpt>
      <trkpt lat="45.69352" lon="3.02025">
        <ele>984.79998779297</ele>
        <time>2012-02-25T15:00:21.000Z</time>
      </trkpt>
      <trkpt lat="45.69351" lon="3.02021">
        <ele>985</ele>
        <time>2012-02-25T15:00:29.000Z</time>
      </trkpt>
      <trkpt lat="45.69352" lon="3.02019">
        <ele>985</ele>
        <time>2012-02-25T15:00:30.000Z</time>
      </trkpt>
      <trkpt lat="45.69353" lon="3.02008">
        <ele>985.40002441406</ele>
        <time>2012-02-25T15:00:37.000Z</time>
      </trkpt>
      <trkpt lat="45.69353" lon="3.02001">
        <ele>985.59997558594</ele>
        <time>2012-02-25T15:00:43.000Z</time>
      </trkpt>
      <trkpt lat="45.69353" lon="3.01998">
        <ele>985.59997558594</ele>
        <time>2012-02-25T15:00:45.000Z</time>
      </trkpt>
      <trkpt lat="45.69353" lon="3.01991">
        <ele>985.79998779297</ele>
        <time>2012-02-25T15:00:50.000Z</time>
      </trkpt>
      <trkpt lat="45.69353" lon="3.01982">
        <ele>985.79998779297</ele>
        <time>2012-02-25T15:00:56.000Z</time>
      </trkpt>
      <trkpt lat="45.69353" lon="3.01968">
        <ele>986</ele>
        <time>2012-02-25T15:01:06.000Z</time>
      </trkpt>
      <trkpt lat="45.69353" lon="3.0196">
        <ele>986.20001220703</ele>
        <time>2012-02-25T15:01:13.000Z</time>
      </trkpt>
      <trkpt lat="45.69353" lon="3.01951">
        <ele>986.20001220703</ele>
        <time>2012-02-25T15:01:20.000Z</time>
      </trkpt>
      <trkpt lat="45.69353" lon="3.01946">
        <ele>986.40002441406</ele>
        <time>2012-02-25T15:01:25.000Z</time>
      </trkpt>
      <trkpt lat="45.69352" lon="3.01935">
        <ele>986.40002441406</ele>
        <time>2012-02-25T15:01:34.000Z</time>
      </trkpt>
      <trkpt lat="45.69353" lon="3.01926">
        <ele>986.59997558594</ele>
        <time>2012-02-25T15:01:43.000Z</time>
      </trkpt>
      <trkpt lat="45.69352" lon="3.01921">
        <ele>986.59997558594</ele>
        <time>2012-02-25T15:01:50.000Z</time>
      </trkpt>
      <trkpt lat="45.69352" lon="3.01915">
        <ele>986.79998779297</ele>
        <time>2012-02-25T15:01:56.000Z</time>
      </trkpt>
      <trkpt lat="45.69353" lon="3.01908">
        <ele>987.20001220703</ele>
        <time>2012-02-25T15:02:03.000Z</time>
      </trkpt>
      <trkpt lat="45.69353" lon="3.01902">
        <ele>987.59997558594</ele>
        <time>2012-02-25T15:02:10.000Z</time>
      </trkpt>
      <trkpt lat="45.69353" lon="3.01895">
        <ele>988</ele>
        <time>2012-02-25T15:02:17.000Z</time>
      </trkpt>
      <trkpt lat="45.69353" lon="3.01885">
        <ele>988.59997558594</ele>
        <time>2012-02-25T15:02:26.000Z</time>
      </trkpt>
      <trkpt lat="45.69353" lon="3.01878">
        <ele>989</ele>
        <time>2012-02-25T15:02:32.000Z</time>
      </trkpt>
      <trkpt lat="45.69353" lon="3.01868">
        <ele>989.79998779297</ele>
        <time>2012-02-25T15:02:41.000Z</time>
      </trkpt>
      <trkpt lat="45.69352" lon="3.01863">
        <ele>990</ele>
        <time>2012-02-25T15:02:47.000Z</time>
      </trkpt>
      <trkpt lat="45.69352" lon="3.01861">
        <ele>990.20001220703</ele>
        <time>2012-02-25T15:02:54.000Z</time>
      </trkpt>
      <trkpt lat="45.69353" lon="3.01856">
        <ele>990.40002441406</ele>
        <time>2012-02-25T15:02:58.000Z</time>
      </trkpt>
      <trkpt lat="45.69353" lon="3.01851">
        <ele>990.79998779297</ele>
        <time>2012-02-25T15:03:04.000Z</time>
      </trkpt>
      <trkpt lat="45.69353" lon="3.01841">
        <ele>991.40002441406</ele>
        <time>2012-02-25T15:03:15.000Z</time>
      </trkpt>
      <trkpt lat="45.69355" lon="3.01835">
        <ele>991.59997558594</ele>
        <time>2012-02-25T15:03:21.000Z</time>
      </trkpt>
      <trkpt lat="45.69355" lon="3.01827">
        <ele>992</ele>
        <time>2012-02-25T15:03:28.000Z</time>
      </trkpt>
      <trkpt lat="45.69356" lon="3.01815">
        <ele>992.59997558594</ele>
        <time>2012-02-25T15:03:37.000Z</time>
      </trkpt>
      <trkpt lat="45.69357" lon="3.0181">
        <ele>992.79998779297</ele>
        <time>2012-02-25T15:03:42.000Z</time>
      </trkpt>
      <trkpt lat="45.69358" lon="3.01803">
        <ele>993</ele>
        <time>2012-02-25T15:03:48.000Z</time>
      </trkpt>
      <trkpt lat="45.69359" lon="3.01794">
        <ele>993.40002441406</ele>
        <time>2012-02-25T15:03:57.000Z</time>
      </trkpt>
      <trkpt lat="45.6936" lon="3.01787">
        <ele>993.79998779297</ele>
        <time>2012-02-25T15:04:05.000Z</time>
      </trkpt>
      <trkpt lat="45.69361" lon="3.01781">
        <ele>994</ele>
        <time>2012-02-25T15:04:13.000Z</time>
      </trkpt>
      <trkpt lat="45.69364" lon="3.01775">
        <ele>994</ele>
        <time>2012-02-25T15:04:28.000Z</time>
      </trkpt>
      <trkpt lat="45.69368" lon="3.01765">
        <ele>994</ele>
        <time>2012-02-25T15:04:48.000Z</time>
      </trkpt>
      <trkpt lat="45.69371" lon="3.01764">
        <ele>993.79998779297</ele>
        <time>2012-02-25T15:04:53.000Z</time>
      </trkpt>
      <trkpt lat="45.69371" lon="3.01764">
        <ele>993.79998779297</ele>
        <time>2012-02-25T15:05:17.000Z</time>
      </trkpt>
      <trkpt lat="45.6937" lon="3.01764">
        <ele>993.79998779297</ele>
        <time>2012-02-25T15:05:22.000Z</time>
      </trkpt>
      <trkpt lat="45.69373" lon="3.0176">
        <ele>993.79998779297</ele>
        <time>2012-02-25T15:05:37.000Z</time>
      </trkpt>
      <trkpt lat="45.69375" lon="3.01758">
        <ele>993.59997558594</ele>
        <time>2012-02-25T15:05:50.000Z</time>
      </trkpt>
      <trkpt lat="45.69375" lon="3.01758">
        <ele>993.59997558594</ele>
        <time>2012-02-25T15:06:06.000Z</time>
      </trkpt>
      <trkpt lat="45.69373" lon="3.01757">
        <ele>993.79998779297</ele>
        <time>2012-02-25T15:06:22.000Z</time>
      </trkpt>
      <trkpt lat="45.69372" lon="3.01757">
        <ele>994</ele>
        <time>2012-02-25T15:06:31.000Z</time>
      </trkpt>
      <trkpt lat="45.69372" lon="3.01754">
        <ele>994.20001220703</ele>
        <time>2012-02-25T15:06:43.000Z</time>
      </trkpt>
      <trkpt lat="45.69373" lon="3.01748">
        <ele>994.40002441406</ele>
        <time>2012-02-25T15:07:14.000Z</time>
      </trkpt>
      <trkpt lat="45.69371" lon="3.0175">
        <ele>994.59997558594</ele>
        <time>2012-02-25T15:07:31.000Z</time>
      </trkpt>
      <trkpt lat="45.69369" lon="3.01756">
        <ele>994.40002441406</ele>
        <time>2012-02-25T15:08:23.000Z</time>
      </trkpt>
      <trkpt lat="45.69369" lon="3.01754">
        <ele>994.59997558594</ele>
        <time>2012-02-25T15:08:30.000Z</time>
      </trkpt>
      <trkpt lat="45.69371" lon="3.01753">
        <ele>994.40002441406</ele>
        <time>2012-02-25T15:08:41.000Z</time>
      </trkpt>
      <trkpt lat="45.69372" lon="3.01755">
        <ele>994.20001220703</ele>
        <time>2012-02-25T15:08:57.000Z</time>
      </trkpt>
      <trkpt lat="45.69371" lon="3.01753">
        <ele>994.40002441406</ele>
        <time>2012-02-25T15:09:46.000Z</time>
      </trkpt>
      <trkpt lat="45.69368" lon="3.01762">
        <ele>994.20001220703</ele>
        <time>2012-02-25T15:13:12.000Z</time>
      </trkpt>
      <trkpt lat="45.69361" lon="3.01766">
        <ele>994.79998779297</ele>
        <time>2012-02-25T15:14:17.000Z</time>
      </trkpt>
      <trkpt lat="45.6936" lon="3.01766">
        <ele>994.79998779297</ele>
        <time>2012-02-25T15:14:30.000Z</time>
      </trkpt>
      <trkpt lat="45.69362" lon="3.01765">
        <ele>994.79998779297</ele>
        <time>2012-02-25T15:14:37.000Z</time>
      </trkpt>
      <trkpt lat="45.69362" lon="3.01763">
        <ele>994.79998779297</ele>
        <time>2012-02-25T15:14:45.000Z</time>
      </trkpt>
      <trkpt lat="45.69361" lon="3.01763">
        <ele>995</ele>
        <time>2012-02-25T15:14:51.000Z</time>
      </trkpt>
      <trkpt lat="45.6936" lon="3.01763">
        <ele>995.20001220703</ele>
        <time>2012-02-25T15:14:56.000Z</time>
      </trkpt>
      <trkpt lat="45.69361" lon="3.01756">
        <ele>995.40002441406</ele>
        <time>2012-02-25T15:15:06.000Z</time>
      </trkpt>
      <trkpt lat="45.69362" lon="3.01755">
        <ele>995.20001220703</ele>
        <time>2012-02-25T15:15:13.000Z</time>
      </trkpt>
      <trkpt lat="45.69362" lon="3.0175">
        <ele>995.59997558594</ele>
        <time>2012-02-25T15:15:29.000Z</time>
      </trkpt>
      <trkpt lat="45.69364" lon="3.01745">
        <ele>995.79998779297</ele>
        <time>2012-02-25T15:15:37.000Z</time>
      </trkpt>
      <trkpt lat="45.69365" lon="3.01739">
        <ele>996.20001220703</ele>
        <time>2012-02-25T15:15:43.000Z</time>
      </trkpt>
      <trkpt lat="45.69367" lon="3.01734">
        <ele>996.40002441406</ele>
        <time>2012-02-25T15:15:49.000Z</time>
      </trkpt>
      <trkpt lat="45.69367" lon="3.01728">
        <ele>997</ele>
        <time>2012-02-25T15:15:55.000Z</time>
      </trkpt>
      <trkpt lat="45.69368" lon="3.01722">
        <ele>997.40002441406</ele>
        <time>2012-02-25T15:16:02.000Z</time>
      </trkpt>
      <trkpt lat="45.69369" lon="3.01715">
        <ele>997.79998779297</ele>
        <time>2012-02-25T15:16:09.000Z</time>
      </trkpt>
      <trkpt lat="45.69369" lon="3.01712">
        <ele>998.20001220703</ele>
        <time>2012-02-25T15:16:14.000Z</time>
      </trkpt>
      <trkpt lat="45.6937" lon="3.01705">
        <ele>998.79998779297</ele>
        <time>2012-02-25T15:16:22.000Z</time>
      </trkpt>
      <trkpt lat="45.6937" lon="3.01696">
        <ele>999.59997558594</ele>
        <time>2012-02-25T15:16:32.000Z</time>
      </trkpt>
      <trkpt lat="45.69371" lon="3.01689">
        <ele>1000.200012207</ele>
        <time>2012-02-25T15:16:40.000Z</time>
      </trkpt>
      <trkpt lat="45.69372" lon="3.01683">
        <ele>1000.5999755859</ele>
        <time>2012-02-25T15:16:47.000Z</time>
      </trkpt>
      <trkpt lat="45.69374" lon="3.0168">
        <ele>1000.799987793</ele>
        <time>2012-02-25T15:17:04.000Z</time>
      </trkpt>
      <trkpt lat="45.69375" lon="3.01672">
        <ele>1001.4000244141</ele>
        <time>2012-02-25T15:17:10.000Z</time>
      </trkpt>
      <trkpt lat="45.69376" lon="3.01667">
        <ele>1002</ele>
        <time>2012-02-25T15:17:15.000Z</time>
      </trkpt>
      <trkpt lat="45.69378" lon="3.01657">
        <ele>1002.4000244141</ele>
        <time>2012-02-25T15:17:23.000Z</time>
      </trkpt>
      <trkpt lat="45.69379" lon="3.01654">
        <ele>1002.4000244141</ele>
        <time>2012-02-25T15:17:26.000Z</time>
      </trkpt>
      <trkpt lat="45.69379" lon="3.01649">
        <ele>1002.799987793</ele>
        <time>2012-02-25T15:17:30.000Z</time>
      </trkpt>
      <trkpt lat="45.6938" lon="3.01643">
        <ele>1003</ele>
        <time>2012-02-25T15:17:36.000Z</time>
      </trkpt>
      <trkpt lat="45.6938" lon="3.01642">
        <ele>1003</ele>
        <time>2012-02-25T15:17:37.000Z</time>
      </trkpt>
      <trkpt lat="45.6938" lon="3.01634">
        <ele>1003.5999755859</ele>
        <time>2012-02-25T15:17:45.000Z</time>
      </trkpt>
      <trkpt lat="45.69381" lon="3.01632">
        <ele>1003.5999755859</ele>
        <time>2012-02-25T15:17:46.000Z</time>
      </trkpt>
      <trkpt lat="45.69382" lon="3.01628">
        <ele>1003.799987793</ele>
        <time>2012-02-25T15:17:50.000Z</time>
      </trkpt>
      <trkpt lat="45.69383" lon="3.01624">
        <ele>1003.799987793</ele>
        <time>2012-02-25T15:17:53.000Z</time>
      </trkpt>
      <trkpt lat="45.69379" lon="3.0161">
        <ele>1005</ele>
        <time>2012-02-25T15:18:03.000Z</time>
      </trkpt>
      <trkpt lat="45.69375" lon="3.01601">
        <ele>1006</ele>
        <time>2012-02-25T15:18:10.000Z</time>
      </trkpt>
      <trkpt lat="45.69375" lon="3.016">
        <ele>1006</ele>
        <time>2012-02-25T15:18:11.000Z</time>
      </trkpt>
      <trkpt lat="45.69373" lon="3.01594">
        <ele>1006.5999755859</ele>
        <time>2012-02-25T15:18:16.000Z</time>
      </trkpt>
      <trkpt lat="45.69372" lon="3.01593">
        <ele>1006.799987793</ele>
        <time>2012-02-25T15:18:17.000Z</time>
      </trkpt>
      <trkpt lat="45.69372" lon="3.0159">
        <ele>1007</ele>
        <time>2012-02-25T15:18:19.000Z</time>
      </trkpt>
      <trkpt lat="45.69369" lon="3.01582">
        <ele>1007.5999755859</ele>
        <time>2012-02-25T15:18:26.000Z</time>
      </trkpt>
      <trkpt lat="45.6937" lon="3.0158">
        <ele>1007.4000244141</ele>
        <time>2012-02-25T15:18:27.000Z</time>
      </trkpt>
      <trkpt lat="45.69368" lon="3.01572">
        <ele>1007.5999755859</ele>
        <time>2012-02-25T15:18:33.000Z</time>
      </trkpt>
      <trkpt lat="45.69367" lon="3.0157">
        <ele>1007.5999755859</ele>
        <time>2012-02-25T15:18:34.000Z</time>
      </trkpt>
      <trkpt lat="45.69367" lon="3.0157">
        <ele>1007.799987793</ele>
        <time>2012-02-25T15:18:35.000Z</time>
      </trkpt>
      <trkpt lat="45.69366" lon="3.01567">
        <ele>1007.799987793</ele>
        <time>2012-02-25T15:18:37.000Z</time>
      </trkpt>
      <trkpt lat="45.69365" lon="3.01564">
        <ele>1007.799987793</ele>
        <time>2012-02-25T15:18:41.000Z</time>
      </trkpt>
      <trkpt lat="45.69364" lon="3.01558">
        <ele>1008</ele>
        <time>2012-02-25T15:18:47.000Z</time>
      </trkpt>
      <trkpt lat="45.69362" lon="3.01548">
        <ele>1008</ele>
        <time>2012-02-25T15:19:00.000Z</time>
      </trkpt>
      <trkpt lat="45.69359" lon="3.01542">
        <ele>1008.4000244141</ele>
        <time>2012-02-25T15:19:06.000Z</time>
      </trkpt>
      <trkpt lat="45.69359" lon="3.0154">
        <ele>1008.4000244141</ele>
        <time>2012-02-25T15:19:07.000Z</time>
      </trkpt>
      <trkpt lat="45.69358" lon="3.01537">
        <ele>1008.5999755859</ele>
        <time>2012-02-25T15:19:10.000Z</time>
      </trkpt>
      <trkpt lat="45.69357" lon="3.01534">
        <ele>1008.5999755859</ele>
        <time>2012-02-25T15:19:14.000Z</time>
      </trkpt>
      <trkpt lat="45.69356" lon="3.01526">
        <ele>1008.799987793</ele>
        <time>2012-02-25T15:19:20.000Z</time>
      </trkpt>
      <trkpt lat="45.69353" lon="3.01522">
        <ele>1009</ele>
        <time>2012-02-25T15:19:23.000Z</time>
      </trkpt>
      <trkpt lat="45.69351" lon="3.01518">
        <ele>1009.4000244141</ele>
        <time>2012-02-25T15:19:26.000Z</time>
      </trkpt>
      <trkpt lat="45.69349" lon="3.01516">
        <ele>1009.5999755859</ele>
        <time>2012-02-25T15:19:28.000Z</time>
      </trkpt>
      <trkpt lat="45.69345" lon="3.01506">
        <ele>1010.4000244141</ele>
        <time>2012-02-25T15:19:35.000Z</time>
      </trkpt>
      <trkpt lat="45.69344" lon="3.01504">
        <ele>1010.4000244141</ele>
        <time>2012-02-25T15:19:36.000Z</time>
      </trkpt>
      <trkpt lat="45.69343" lon="3.01501">
        <ele>1010.5999755859</ele>
        <time>2012-02-25T15:19:38.000Z</time>
      </trkpt>
      <trkpt lat="45.69341" lon="3.01494">
        <ele>1011</ele>
        <time>2012-02-25T15:19:43.000Z</time>
      </trkpt>
      <trkpt lat="45.6934" lon="3.01491">
        <ele>1011</ele>
        <time>2012-02-25T15:19:45.000Z</time>
      </trkpt>
      <trkpt lat="45.6934" lon="3.0149">
        <ele>1011</ele>
        <time>2012-02-25T15:19:46.000Z</time>
      </trkpt>
      <trkpt lat="45.69338" lon="3.01483">
        <ele>1011.200012207</ele>
        <time>2012-02-25T15:19:51.000Z</time>
      </trkpt>
      <trkpt lat="45.69337" lon="3.01477">
        <ele>1011.4000244141</ele>
        <time>2012-02-25T15:19:56.000Z</time>
      </trkpt>
      <trkpt lat="45.69336" lon="3.01471">
        <ele>1011.5999755859</ele>
        <time>2012-02-25T15:20:01.000Z</time>
      </trkpt>
      <trkpt lat="45.69332" lon="3.01461">
        <ele>1012.200012207</ele>
        <time>2012-02-25T15:20:08.000Z</time>
      </trkpt>
      <trkpt lat="45.69334" lon="3.01449">
        <ele>1012</ele>
        <time>2012-02-25T15:20:25.000Z</time>
      </trkpt>
      <trkpt lat="45.69333" lon="3.01446">
        <ele>1012</ele>
        <time>2012-02-25T15:20:27.000Z</time>
      </trkpt>
      <trkpt lat="45.69333" lon="3.01442">
        <ele>1012</ele>
        <time>2012-02-25T15:20:30.000Z</time>
      </trkpt>
      <trkpt lat="45.69331" lon="3.01431">
        <ele>1012.4000244141</ele>
        <time>2012-02-25T15:20:38.000Z</time>
      </trkpt>
      <trkpt lat="45.6933" lon="3.0143">
        <ele>1012.4000244141</ele>
        <time>2012-02-25T15:20:39.000Z</time>
      </trkpt>
      <trkpt lat="45.69329" lon="3.01428">
        <ele>1012.5999755859</ele>
        <time>2012-02-25T15:20:41.000Z</time>
      </trkpt>
      <trkpt lat="45.69328" lon="3.01425">
        <ele>1012.799987793</ele>
        <time>2012-02-25T15:20:44.000Z</time>
      </trkpt>
      <trkpt lat="45.69326" lon="3.0142">
        <ele>1013</ele>
        <time>2012-02-25T15:20:47.000Z</time>
      </trkpt>
      <trkpt lat="45.69325" lon="3.01417">
        <ele>1013.200012207</ele>
        <time>2012-02-25T15:20:49.000Z</time>
      </trkpt>
      <trkpt lat="45.69324" lon="3.01408">
        <ele>1013.799987793</ele>
        <time>2012-02-25T15:20:55.000Z</time>
      </trkpt>
      <trkpt lat="45.69323" lon="3.01403">
        <ele>1014.200012207</ele>
        <time>2012-02-25T15:20:59.000Z</time>
      </trkpt>
      <trkpt lat="45.69324" lon="3.014">
        <ele>1014.200012207</ele>
        <time>2012-02-25T15:21:01.000Z</time>
      </trkpt>
      <trkpt lat="45.69323" lon="3.01395">
        <ele>1014.5999755859</ele>
        <time>2012-02-25T15:21:05.000Z</time>
      </trkpt>
      <trkpt lat="45.69322" lon="3.01386">
        <ele>1015.200012207</ele>
        <time>2012-02-25T15:21:11.000Z</time>
      </trkpt>
      <trkpt lat="45.69321" lon="3.01381">
        <ele>1015.5999755859</ele>
        <time>2012-02-25T15:21:15.000Z</time>
      </trkpt>
      <trkpt lat="45.6932" lon="3.01374">
        <ele>1016.200012207</ele>
        <time>2012-02-25T15:21:21.000Z</time>
      </trkpt>
      <trkpt lat="45.6932" lon="3.01373">
        <ele>1016.200012207</ele>
        <time>2012-02-25T15:21:22.000Z</time>
      </trkpt>
      <trkpt lat="45.69319" lon="3.01371">
        <ele>1016.4000244141</ele>
        <time>2012-02-25T15:21:24.000Z</time>
      </trkpt>
      <trkpt lat="45.6932" lon="3.01364">
        <ele>1016.5999755859</ele>
        <time>2012-02-25T15:21:31.000Z</time>
      </trkpt>
      <trkpt lat="45.6932" lon="3.01357">
        <ele>1017</ele>
        <time>2012-02-25T15:21:37.000Z</time>
      </trkpt>
      <trkpt lat="45.69319" lon="3.0135">
        <ele>1017.5999755859</ele>
        <time>2012-02-25T15:21:44.000Z</time>
      </trkpt>
      <trkpt lat="45.69317" lon="3.01344">
        <ele>1018</ele>
        <time>2012-02-25T15:21:51.000Z</time>
      </trkpt>
      <trkpt lat="45.69318" lon="3.0134">
        <ele>1018.200012207</ele>
        <time>2012-02-25T15:21:55.000Z</time>
      </trkpt>
      <trkpt lat="45.69317" lon="3.01334">
        <ele>1018.5999755859</ele>
        <time>2012-02-25T15:22:00.000Z</time>
      </trkpt>
      <trkpt lat="45.69317" lon="3.01329">
        <ele>1018.799987793</ele>
        <time>2012-02-25T15:22:05.000Z</time>
      </trkpt>
      <trkpt lat="45.69317" lon="3.01324">
        <ele>1019.200012207</ele>
        <time>2012-02-25T15:22:11.000Z</time>
      </trkpt>
      <trkpt lat="45.69314" lon="3.01304">
        <ele>1020.799987793</ele>
        <time>2012-02-25T15:22:29.000Z</time>
      </trkpt>
      <trkpt lat="45.69314" lon="3.01302">
        <ele>1020.799987793</ele>
        <time>2012-02-25T15:22:30.000Z</time>
      </trkpt>
      <trkpt lat="45.69315" lon="3.01302">
        <ele>1020.799987793</ele>
        <time>2012-02-25T15:22:31.000Z</time>
      </trkpt>
      <trkpt lat="45.69317" lon="3.01296">
        <ele>1021</ele>
        <time>2012-02-25T15:22:35.000Z</time>
      </trkpt>
      <trkpt lat="45.69319" lon="3.01289">
        <ele>1021.4000244141</ele>
        <time>2012-02-25T15:22:42.000Z</time>
      </trkpt>
      <trkpt lat="45.6932" lon="3.01279">
        <ele>1022</ele>
        <time>2012-02-25T15:22:50.000Z</time>
      </trkpt>
      <trkpt lat="45.69324" lon="3.01271">
        <ele>1022.200012207</ele>
        <time>2012-02-25T15:22:59.000Z</time>
      </trkpt>
      <trkpt lat="45.69326" lon="3.01263">
        <ele>1022.5999755859</ele>
        <time>2012-02-25T15:23:05.000Z</time>
      </trkpt>
      <trkpt lat="45.69328" lon="3.01254">
        <ele>1023.200012207</ele>
        <time>2012-02-25T15:23:15.000Z</time>
      </trkpt>
      <trkpt lat="45.69331" lon="3.01246">
        <ele>1023.5999755859</ele>
        <time>2012-02-25T15:23:23.000Z</time>
      </trkpt>
      <trkpt lat="45.69332" lon="3.01239">
        <ele>1024</ele>
        <time>2012-02-25T15:23:30.000Z</time>
      </trkpt>
      <trkpt lat="45.69331" lon="3.01232">
        <ele>1024.5999755859</ele>
        <time>2012-02-25T15:23:37.000Z</time>
      </trkpt>
      <trkpt lat="45.69329" lon="3.01222">
        <ele>1025.5999755859</ele>
        <time>2012-02-25T15:23:58.000Z</time>
      </trkpt>
      <trkpt lat="45.69331" lon="3.01219">
        <ele>1025.8000488281</ele>
        <time>2012-02-25T15:24:08.000Z</time>
      </trkpt>
      <trkpt lat="45.69333" lon="3.01216">
        <ele>1026</ele>
        <time>2012-02-25T15:24:13.000Z</time>
      </trkpt>
      <trkpt lat="45.69335" lon="3.01212">
        <ele>1026</ele>
        <time>2012-02-25T15:24:20.000Z</time>
      </trkpt>
      <trkpt lat="45.69338" lon="3.01204">
        <ele>1026.1999511719</ele>
        <time>2012-02-25T15:24:28.000Z</time>
      </trkpt>
      <trkpt lat="45.69338" lon="3.01199">
        <ele>1026.5999755859</ele>
        <time>2012-02-25T15:24:34.000Z</time>
      </trkpt>
      <trkpt lat="45.69339" lon="3.01193">
        <ele>1027</ele>
        <time>2012-02-25T15:24:40.000Z</time>
      </trkpt>
      <trkpt lat="45.69339" lon="3.01187">
        <ele>1027.5999755859</ele>
        <time>2012-02-25T15:24:46.000Z</time>
      </trkpt>
      <trkpt lat="45.69339" lon="3.01182">
        <ele>1028</ele>
        <time>2012-02-25T15:24:52.000Z</time>
      </trkpt>
      <trkpt lat="45.69341" lon="3.01176">
        <ele>1028.1999511719</ele>
        <time>2012-02-25T15:24:58.000Z</time>
      </trkpt>
      <trkpt lat="45.69342" lon="3.01171">
        <ele>1028.5999755859</ele>
        <time>2012-02-25T15:25:04.000Z</time>
      </trkpt>
      <trkpt lat="45.69343" lon="3.01162">
        <ele>1029</ele>
        <time>2012-02-25T15:25:12.000Z</time>
      </trkpt>
      <trkpt lat="45.69344" lon="3.01156">
        <ele>1029.1999511719</ele>
        <time>2012-02-25T15:25:17.000Z</time>
      </trkpt>
      <trkpt lat="45.69345" lon="3.01154">
        <ele>1029.1999511719</ele>
        <time>2012-02-25T15:25:19.000Z</time>
      </trkpt>
      <trkpt lat="45.69347" lon="3.01147">
        <ele>1029.4000244141</ele>
        <time>2012-02-25T15:25:25.000Z</time>
      </trkpt>
      <trkpt lat="45.69347" lon="3.01142">
        <ele>1029.5999755859</ele>
        <time>2012-02-25T15:25:29.000Z</time>
      </trkpt>
      <trkpt lat="45.69348" lon="3.01135">
        <ele>1029.8000488281</ele>
        <time>2012-02-25T15:25:35.000Z</time>
      </trkpt>
      <trkpt lat="45.6935" lon="3.01127">
        <ele>1030</ele>
        <time>2012-02-25T15:25:42.000Z</time>
      </trkpt>
      <trkpt lat="45.6935" lon="3.01126">
        <ele>1030.1999511719</ele>
        <time>2012-02-25T15:25:43.000Z</time>
      </trkpt>
      <trkpt lat="45.69348" lon="3.01119">
        <ele>1030.8000488281</ele>
        <time>2012-02-25T15:25:48.000Z</time>
      </trkpt>
      <trkpt lat="45.69348" lon="3.01109">
        <ele>1031.4000244141</ele>
        <time>2012-02-25T15:25:55.000Z</time>
      </trkpt>
      <trkpt lat="45.69346" lon="3.01102">
        <ele>1032</ele>
        <time>2012-02-25T15:26:00.000Z</time>
      </trkpt>
      <trkpt lat="45.69346" lon="3.011">
        <ele>1032.1999511719</ele>
        <time>2012-02-25T15:26:02.000Z</time>
      </trkpt>
      <trkpt lat="45.69347" lon="3.01098">
        <ele>1032.1999511719</ele>
        <time>2012-02-25T15:26:04.000Z</time>
      </trkpt>
      <trkpt lat="45.69344" lon="3.01087">
        <ele>1033.1999511719</ele>
        <time>2012-02-25T15:26:12.000Z</time>
      </trkpt>
      <trkpt lat="45.69342" lon="3.01079">
        <ele>1033.5999755859</ele>
        <time>2012-02-25T15:26:17.000Z</time>
      </trkpt>
      <trkpt lat="45.69342" lon="3.01077">
        <ele>1033.5999755859</ele>
        <time>2012-02-25T15:26:19.000Z</time>
      </trkpt>
      <trkpt lat="45.69342" lon="3.01074">
        <ele>1033.5999755859</ele>
        <time>2012-02-25T15:26:21.000Z</time>
      </trkpt>
      <trkpt lat="45.69342" lon="3.01062">
        <ele>1033.4000244141</ele>
        <time>2012-02-25T15:26:29.000Z</time>
      </trkpt>
      <trkpt lat="45.69342" lon="3.01061">
        <ele>1033.4000244141</ele>
        <time>2012-02-25T15:26:30.000Z</time>
      </trkpt>
      <trkpt lat="45.69342" lon="3.01059">
        <ele>1033.4000244141</ele>
        <time>2012-02-25T15:26:32.000Z</time>
      </trkpt>
      <trkpt lat="45.69343" lon="3.01051">
        <ele>1033</ele>
        <time>2012-02-25T15:26:39.000Z</time>
      </trkpt>
      <trkpt lat="45.69342" lon="3.01041">
        <ele>1033</ele>
        <time>2012-02-25T15:26:52.000Z</time>
      </trkpt>
      <trkpt lat="45.69343" lon="3.01036">
        <ele>1032.8000488281</ele>
        <time>2012-02-25T15:26:57.000Z</time>
      </trkpt>
      <trkpt lat="45.69343" lon="3.01034">
        <ele>1032.5999755859</ele>
        <time>2012-02-25T15:26:59.000Z</time>
      </trkpt>
      <trkpt lat="45.69342" lon="3.01027">
        <ele>1032.8000488281</ele>
        <time>2012-02-25T15:27:06.000Z</time>
      </trkpt>
      <trkpt lat="45.6934" lon="3.01022">
        <ele>1033</ele>
        <time>2012-02-25T15:27:11.000Z</time>
      </trkpt>
      <trkpt lat="45.69338" lon="3.01018">
        <ele>1033.4000244141</ele>
        <time>2012-02-25T15:27:15.000Z</time>
      </trkpt>
      <trkpt lat="45.69336" lon="3.01014">
        <ele>1033.8000488281</ele>
        <time>2012-02-25T15:27:19.000Z</time>
      </trkpt>
      <trkpt lat="45.69333" lon="3.0101">
        <ele>1034.1999511719</ele>
        <time>2012-02-25T15:27:25.000Z</time>
      </trkpt>
      <trkpt lat="45.69328" lon="3.01005">
        <ele>1034.4000244141</ele>
        <time>2012-02-25T15:27:38.000Z</time>
      </trkpt>
      <trkpt lat="45.69324" lon="3.01">
        <ele>1034.4000244141</ele>
        <time>2012-02-25T15:27:46.000Z</time>
      </trkpt>
      <trkpt lat="45.69321" lon="3.00995">
        <ele>1034</ele>
        <time>2012-02-25T15:27:53.000Z</time>
      </trkpt>
      <trkpt lat="45.69317" lon="3.00989">
        <ele>1033.4000244141</ele>
        <time>2012-02-25T15:28:01.000Z</time>
      </trkpt>
      <trkpt lat="45.69316" lon="3.00987">
        <ele>1033.1999511719</ele>
        <time>2012-02-25T15:28:06.000Z</time>
      </trkpt>
      <trkpt lat="45.69312" lon="3.00981">
        <ele>1032.5999755859</ele>
        <time>2012-02-25T15:28:15.000Z</time>
      </trkpt>
      <trkpt lat="45.69309" lon="3.00977">
        <ele>1032.4000244141</ele>
        <time>2012-02-25T15:28:20.000Z</time>
      </trkpt>
      <trkpt lat="45.69305" lon="3.00973">
        <ele>1032.1999511719</ele>
        <time>2012-02-25T15:28:25.000Z</time>
      </trkpt>
      <trkpt lat="45.69304" lon="3.00972">
        <ele>1032.1999511719</ele>
        <time>2012-02-25T15:28:26.000Z</time>
      </trkpt>
      <trkpt lat="45.69301" lon="3.00969">
        <ele>1032</ele>
        <time>2012-02-25T15:28:29.000Z</time>
      </trkpt>
      <trkpt lat="45.69299" lon="3.00967">
        <ele>1032</ele>
        <time>2012-02-25T15:28:31.000Z</time>
      </trkpt>
      <trkpt lat="45.69295" lon="3.00961">
        <ele>1031.8000488281</ele>
        <time>2012-02-25T15:28:36.000Z</time>
      </trkpt>
      <trkpt lat="45.69291" lon="3.00957">
        <ele>1031.5999755859</ele>
        <time>2012-02-25T15:28:44.000Z</time>
      </trkpt>
      <trkpt lat="45.69288" lon="3.00953">
        <ele>1031.5999755859</ele>
        <time>2012-02-25T15:28:49.000Z</time>
      </trkpt>
      <trkpt lat="45.69285" lon="3.00946">
        <ele>1031.1999511719</ele>
        <time>2012-02-25T15:28:59.000Z</time>
      </trkpt>
      <trkpt lat="45.69283" lon="3.00941">
        <ele>1030.8000488281</ele>
        <time>2012-02-25T15:29:04.000Z</time>
      </trkpt>
      <trkpt lat="45.69281" lon="3.00936">
        <ele>1030.5999755859</ele>
        <time>2012-02-25T15:29:09.000Z</time>
      </trkpt>
      <trkpt lat="45.6928" lon="3.00929">
        <ele>1030.1999511719</ele>
        <time>2012-02-25T15:29:16.000Z</time>
      </trkpt>
      <trkpt lat="45.6928" lon="3.00924">
        <ele>1029.5999755859</ele>
        <time>2012-02-25T15:29:21.000Z</time>
      </trkpt>
      <trkpt lat="45.69279" lon="3.0092">
        <ele>1029.4000244141</ele>
        <time>2012-02-25T15:29:24.000Z</time>
      </trkpt>
      <trkpt lat="45.69277" lon="3.00909">
        <ele>1029</ele>
        <time>2012-02-25T15:29:32.000Z</time>
      </trkpt>
      <trkpt lat="45.69277" lon="3.00908">
        <ele>1028.8000488281</ele>
        <time>2012-02-25T15:29:33.000Z</time>
      </trkpt>
      <trkpt lat="45.69277" lon="3.00906">
        <ele>1028.8000488281</ele>
        <time>2012-02-25T15:29:34.000Z</time>
      </trkpt>
      <trkpt lat="45.69276" lon="3.009">
        <ele>1028.5999755859</ele>
        <time>2012-02-25T15:29:39.000Z</time>
      </trkpt>
      <trkpt lat="45.69276" lon="3.00898">
        <ele>1028.5999755859</ele>
        <time>2012-02-25T15:29:40.000Z</time>
      </trkpt>
      <trkpt lat="45.69277" lon="3.00891">
        <ele>1028</ele>
        <time>2012-02-25T15:29:46.000Z</time>
      </trkpt>
      <trkpt lat="45.69277" lon="3.00886">
        <ele>1027.8000488281</ele>
        <time>2012-02-25T15:29:50.000Z</time>
      </trkpt>
      <trkpt lat="45.69275" lon="3.00874">
        <ele>1027.4000244141</ele>
        <time>2012-02-25T15:30:02.000Z</time>
      </trkpt>
      <trkpt lat="45.69276" lon="3.00867">
        <ele>1026.8000488281</ele>
        <time>2012-02-25T15:30:09.000Z</time>
      </trkpt>
      <trkpt lat="45.69276" lon="3.00862">
        <ele>1026.4000244141</ele>
        <time>2012-02-25T15:30:15.000Z</time>
      </trkpt>
      <trkpt lat="45.69279" lon="3.00857">
        <ele>1025.8000488281</ele>
        <time>2012-02-25T15:30:21.000Z</time>
      </trkpt>
      <trkpt lat="45.69281" lon="3.00853">
        <ele>1025.4000244141</ele>
        <time>2012-02-25T15:30:26.000Z</time>
      </trkpt>
      <trkpt lat="45.69283" lon="3.00841">
        <ele>1024.4000244141</ele>
        <time>2012-02-25T15:30:43.000Z</time>
      </trkpt>
      <trkpt lat="45.69284" lon="3.00835">
        <ele>1024</ele>
        <time>2012-02-25T15:30:49.000Z</time>
      </trkpt>
      <trkpt lat="45.69287" lon="3.00827">
        <ele>1023.4000244141</ele>
        <time>2012-02-25T15:30:57.000Z</time>
      </trkpt>
      <trkpt lat="45.69289" lon="3.00822">
        <ele>1022.799987793</ele>
        <time>2012-02-25T15:31:04.000Z</time>
      </trkpt>
      <trkpt lat="45.69289" lon="3.00815">
        <ele>1022.5999755859</ele>
        <time>2012-02-25T15:31:12.000Z</time>
      </trkpt>
      <trkpt lat="45.69288" lon="3.00803">
        <ele>1022.200012207</ele>
        <time>2012-02-25T15:31:22.000Z</time>
      </trkpt>
      <trkpt lat="45.69288" lon="3.00798">
        <ele>1022</ele>
        <time>2012-02-25T15:31:26.000Z</time>
      </trkpt>
      <trkpt lat="45.69288" lon="3.00794">
        <ele>1022</ele>
        <time>2012-02-25T15:31:28.000Z</time>
      </trkpt>
      <trkpt lat="45.69289" lon="3.00775">
        <ele>1021.200012207</ele>
        <time>2012-02-25T15:31:41.000Z</time>
      </trkpt>
      <trkpt lat="45.6929" lon="3.0076">
        <ele>1020.4000244141</ele>
        <time>2012-02-25T15:31:55.000Z</time>
      </trkpt>
      <trkpt lat="45.69292" lon="3.00741">
        <ele>1019.200012207</ele>
        <time>2012-02-25T15:32:14.000Z</time>
      </trkpt>
      <trkpt lat="45.69294" lon="3.00724">
        <ele>1017.5999755859</ele>
        <time>2012-02-25T15:32:31.000Z</time>
      </trkpt>
      <trkpt lat="45.69297" lon="3.00711">
        <ele>1016.4000244141</ele>
        <time>2012-02-25T15:32:44.000Z</time>
      </trkpt>
      <trkpt lat="45.69298" lon="3.00706">
        <ele>1016</ele>
        <time>2012-02-25T15:32:49.000Z</time>
      </trkpt>
      <trkpt lat="45.693" lon="3.00701">
        <ele>1015.4000244141</ele>
        <time>2012-02-25T15:32:52.000Z</time>
      </trkpt>
      <trkpt lat="45.69301" lon="3.00696">
        <ele>1015</ele>
        <time>2012-02-25T15:32:56.000Z</time>
      </trkpt>
      <trkpt lat="45.69305" lon="3.00685">
        <ele>1013.799987793</ele>
        <time>2012-02-25T15:33:07.000Z</time>
      </trkpt>
      <trkpt lat="45.69306" lon="3.00681">
        <ele>1013.4000244141</ele>
        <time>2012-02-25T15:33:10.000Z</time>
      </trkpt>
      <trkpt lat="45.69306" lon="3.00676">
        <ele>1013</ele>
        <time>2012-02-25T15:33:14.000Z</time>
      </trkpt>
      <trkpt lat="45.69307" lon="3.00674">
        <ele>1012.799987793</ele>
        <time>2012-02-25T15:33:16.000Z</time>
      </trkpt>
      <trkpt lat="45.69308" lon="3.0067">
        <ele>1012.4000244141</ele>
        <time>2012-02-25T15:33:21.000Z</time>
      </trkpt>
      <trkpt lat="45.69313" lon="3.00658">
        <ele>1010.799987793</ele>
        <time>2012-02-25T15:33:34.000Z</time>
      </trkpt>
      <trkpt lat="45.69314" lon="3.00649">
        <ele>1009.4000244141</ele>
        <time>2012-02-25T15:33:47.000Z</time>
      </trkpt>
      <trkpt lat="45.69313" lon="3.0064">
        <ele>1008.4000244141</ele>
        <time>2012-02-25T15:33:53.000Z</time>
      </trkpt>
      <trkpt lat="45.69301" lon="3.00609">
        <ele>1004</ele>
        <time>2012-02-25T15:34:40.000Z</time>
      </trkpt>
      <trkpt lat="45.693" lon="3.00594">
        <ele>1001.799987793</ele>
        <time>2012-02-25T15:35:05.000Z</time>
      </trkpt>
      <trkpt lat="45.69299" lon="3.00576">
        <ele>998.79998779297</ele>
        <time>2012-02-25T15:35:41.000Z</time>
      </trkpt>
      <trkpt lat="45.693" lon="3.00562">
        <ele>996.59997558594</ele>
        <time>2012-02-25T15:36:02.000Z</time>
      </trkpt>
      <trkpt lat="45.69299" lon="3.00556">
        <ele>995.59997558594</ele>
        <time>2012-02-25T15:36:08.000Z</time>
      </trkpt>
      <trkpt lat="45.69296" lon="3.00552">
        <ele>994.79998779297</ele>
        <time>2012-02-25T15:36:12.000Z</time>
      </trkpt>
      <trkpt lat="45.69296" lon="3.0055">
        <ele>994.40002441406</ele>
        <time>2012-02-25T15:36:14.000Z</time>
      </trkpt>
      <trkpt lat="45.69295" lon="3.00545">
        <ele>993.59997558594</ele>
        <time>2012-02-25T15:36:20.000Z</time>
      </trkpt>
      <trkpt lat="45.6929" lon="3.00537">
        <ele>991.79998779297</ele>
        <time>2012-02-25T15:36:27.000Z</time>
      </trkpt>
      <trkpt lat="45.69287" lon="3.00531">
        <ele>990.59997558594</ele>
        <time>2012-02-25T15:36:33.000Z</time>
      </trkpt>
      <trkpt lat="45.69285" lon="3.00526">
        <ele>989.59997558594</ele>
        <time>2012-02-25T15:36:40.000Z</time>
      </trkpt>
      <trkpt lat="45.69284" lon="3.00521">
        <ele>988.79998779297</ele>
        <time>2012-02-25T15:36:47.000Z</time>
      </trkpt>
      <trkpt lat="45.69283" lon="3.00517">
        <ele>987.79998779297</ele>
        <time>2012-02-25T15:36:54.000Z</time>
      </trkpt>
      <trkpt lat="45.69282" lon="3.00513">
        <ele>987.20001220703</ele>
        <time>2012-02-25T15:37:00.000Z</time>
      </trkpt>
      <trkpt lat="45.69282" lon="3.00508">
        <ele>986.20001220703</ele>
        <time>2012-02-25T15:37:07.000Z</time>
      </trkpt>
      <trkpt lat="45.69282" lon="3.00503">
        <ele>985.20001220703</ele>
        <time>2012-02-25T15:37:12.000Z</time>
      </trkpt>
      <trkpt lat="45.69281" lon="3.00499">
        <ele>984.40002441406</ele>
        <time>2012-02-25T15:37:18.000Z</time>
      </trkpt>
      <trkpt lat="45.69282" lon="3.00494">
        <ele>983.59997558594</ele>
        <time>2012-02-25T15:37:24.000Z</time>
      </trkpt>
      <trkpt lat="45.6928" lon="3.00485">
        <ele>982.20001220703</ele>
        <time>2012-02-25T15:37:41.000Z</time>
      </trkpt>
      <trkpt lat="45.6928" lon="3.00479">
        <ele>981.20001220703</ele>
        <time>2012-02-25T15:37:45.000Z</time>
      </trkpt>
      <trkpt lat="45.69281" lon="3.00477">
        <ele>980.79998779297</ele>
        <time>2012-02-25T15:37:47.000Z</time>
      </trkpt>
      <trkpt lat="45.69281" lon="3.00475">
        <ele>980.59997558594</ele>
        <time>2012-02-25T15:37:51.000Z</time>
      </trkpt>
      <trkpt lat="45.69281" lon="3.00467">
        <ele>979.20001220703</ele>
        <time>2012-02-25T15:37:55.000Z</time>
      </trkpt>
      <trkpt lat="45.69282" lon="3.00462">
        <ele>978.59997558594</ele>
        <time>2012-02-25T15:37:58.000Z</time>
      </trkpt>
      <trkpt lat="45.69286" lon="3.0045">
        <ele>976.79998779297</ele>
        <time>2012-02-25T15:38:07.000Z</time>
      </trkpt>
      <trkpt lat="45.69286" lon="3.00446">
        <ele>976</ele>
        <time>2012-02-25T15:38:11.000Z</time>
      </trkpt>
      <trkpt lat="45.69286" lon="3.00444">
        <ele>975.79998779297</ele>
        <time>2012-02-25T15:38:13.000Z</time>
      </trkpt>
      <trkpt lat="45.69285" lon="3.00438">
        <ele>974.79998779297</ele>
        <time>2012-02-25T15:38:20.000Z</time>
      </trkpt>
      <trkpt lat="45.69286" lon="3.00433">
        <ele>974</ele>
        <time>2012-02-25T15:38:27.000Z</time>
      </trkpt>
      <trkpt lat="45.69288" lon="3.00429">
        <ele>973.40002441406</ele>
        <time>2012-02-25T15:38:32.000Z</time>
      </trkpt>
      <trkpt lat="45.69289" lon="3.00425">
        <ele>972.79998779297</ele>
        <time>2012-02-25T15:38:37.000Z</time>
      </trkpt>
      <trkpt lat="45.6929" lon="3.0042">
        <ele>972</ele>
        <time>2012-02-25T15:38:44.000Z</time>
      </trkpt>
      <trkpt lat="45.69289" lon="3.00415">
        <ele>971.20001220703</ele>
        <time>2012-02-25T15:38:49.000Z</time>
      </trkpt>
      <trkpt lat="45.69289" lon="3.00406">
        <ele>970.40002441406</ele>
        <time>2012-02-25T15:38:56.000Z</time>
      </trkpt>
      <trkpt lat="45.6929" lon="3.00401">
        <ele>970</ele>
        <time>2012-02-25T15:39:03.000Z</time>
      </trkpt>
      <trkpt lat="45.69292" lon="3.00398">
        <ele>969.79998779297</ele>
        <time>2012-02-25T15:39:46.000Z</time>
      </trkpt>
      <trkpt lat="45.69288" lon="3.00398">
        <ele>969.79998779297</ele>
        <time>2012-02-25T15:39:51.000Z</time>
      </trkpt>
      <trkpt lat="45.69284" lon="3.00401">
        <ele>969.79998779297</ele>
        <time>2012-02-25T15:39:57.000Z</time>
      </trkpt>
      <trkpt lat="45.6928" lon="3.00406">
        <ele>970.20001220703</ele>
        <time>2012-02-25T15:40:05.000Z</time>
      </trkpt>
      <trkpt lat="45.69277" lon="3.0041">
        <ele>970.40002441406</ele>
        <time>2012-02-25T15:40:11.000Z</time>
      </trkpt>
      <trkpt lat="45.69273" lon="3.00414">
        <ele>970.59997558594</ele>
        <time>2012-02-25T15:40:20.000Z</time>
      </trkpt>
      <trkpt lat="45.69269" lon="3.00419">
        <ele>971</ele>
        <time>2012-02-25T15:40:26.000Z</time>
      </trkpt>
      <trkpt lat="45.69266" lon="3.00422">
        <ele>971.40002441406</ele>
        <time>2012-02-25T15:40:33.000Z</time>
      </trkpt>
      <trkpt lat="45.69264" lon="3.00425">
        <ele>971.79998779297</ele>
        <time>2012-02-25T15:40:39.000Z</time>
      </trkpt>
      <trkpt lat="45.6926" lon="3.0043">
        <ele>972.20001220703</ele>
        <time>2012-02-25T15:40:46.000Z</time>
      </trkpt>
      <trkpt lat="45.69256" lon="3.00434">
        <ele>972.79998779297</ele>
        <time>2012-02-25T15:40:52.000Z</time>
      </trkpt>
      <trkpt lat="45.69254" lon="3.00436">
        <ele>973</ele>
        <time>2012-02-25T15:40:56.000Z</time>
      </trkpt>
      <trkpt lat="45.69247" lon="3.00444">
        <ele>973.59997558594</ele>
        <time>2012-02-25T15:41:03.000Z</time>
      </trkpt>
      <trkpt lat="45.69245" lon="3.00447">
        <ele>973.59997558594</ele>
        <time>2012-02-25T15:41:06.000Z</time>
      </trkpt>
      <trkpt lat="45.69241" lon="3.00449">
        <ele>973.59997558594</ele>
        <time>2012-02-25T15:41:10.000Z</time>
      </trkpt>
      <trkpt lat="45.69233" lon="3.00456">
        <ele>973.59997558594</ele>
        <time>2012-02-25T15:41:18.000Z</time>
      </trkpt>
      <trkpt lat="45.69229" lon="3.00461">
        <ele>973.79998779297</ele>
        <time>2012-02-25T15:41:24.000Z</time>
      </trkpt>
      <trkpt lat="45.69222" lon="3.00466">
        <ele>973.59997558594</ele>
        <time>2012-02-25T15:41:29.000Z</time>
      </trkpt>
      <trkpt lat="45.69221" lon="3.00467">
        <ele>973.59997558594</ele>
        <time>2012-02-25T15:41:31.000Z</time>
      </trkpt>
      <trkpt lat="45.69214" lon="3.00471">
        <ele>973.20001220703</ele>
        <time>2012-02-25T15:41:38.000Z</time>
      </trkpt>
      <trkpt lat="45.69213" lon="3.00472">
        <ele>973.20001220703</ele>
        <time>2012-02-25T15:41:39.000Z</time>
      </trkpt>
      <trkpt lat="45.69207" lon="3.00478">
        <ele>973.20001220703</ele>
        <time>2012-02-25T15:41:46.000Z</time>
      </trkpt>
      <trkpt lat="45.69202" lon="3.00482">
        <ele>973.20001220703</ele>
        <time>2012-02-25T15:41:51.000Z</time>
      </trkpt>
      <trkpt lat="45.69196" lon="3.00485">
        <ele>972.79998779297</ele>
        <time>2012-02-25T15:41:56.000Z</time>
      </trkpt>
      <trkpt lat="45.69195" lon="3.00486">
        <ele>972.79998779297</ele>
        <time>2012-02-25T15:41:58.000Z</time>
      </trkpt>
      <trkpt lat="45.6919" lon="3.00491">
        <ele>972.79998779297</ele>
        <time>2012-02-25T15:42:04.000Z</time>
      </trkpt>
      <trkpt lat="45.69185" lon="3.00493">
        <ele>972.40002441406</ele>
        <time>2012-02-25T15:42:10.000Z</time>
      </trkpt>
      <trkpt lat="45.69182" lon="3.00496">
        <ele>972.40002441406</ele>
        <time>2012-02-25T15:42:15.000Z</time>
      </trkpt>
      <trkpt lat="45.6918" lon="3.00497">
        <ele>972.40002441406</ele>
        <time>2012-02-25T15:42:16.000Z</time>
      </trkpt>
      <trkpt lat="45.69177" lon="3.005">
        <ele>972.40002441406</ele>
        <time>2012-02-25T15:42:21.000Z</time>
      </trkpt>
      <trkpt lat="45.69171" lon="3.00503">
        <ele>972</ele>
        <time>2012-02-25T15:42:30.000Z</time>
      </trkpt>
      <trkpt lat="45.69167" lon="3.00504">
        <ele>971.79998779297</ele>
        <time>2012-02-25T15:42:34.000Z</time>
      </trkpt>
      <trkpt lat="45.69163" lon="3.00508">
        <ele>972.20001220703</ele>
        <time>2012-02-25T15:42:39.000Z</time>
      </trkpt>
      <trkpt lat="45.6916" lon="3.00509">
        <ele>972.20001220703</ele>
        <time>2012-02-25T15:42:40.000Z</time>
      </trkpt>
      <trkpt lat="45.69156" lon="3.00512">
        <ele>972.59997558594</ele>
        <time>2012-02-25T15:42:45.000Z</time>
      </trkpt>
      <trkpt lat="45.69155" lon="3.00513">
        <ele>972.79998779297</ele>
        <time>2012-02-25T15:42:48.000Z</time>
      </trkpt>
      <trkpt lat="45.69149" lon="3.00518">
        <ele>973.40002441406</ele>
        <time>2012-02-25T15:42:58.000Z</time>
      </trkpt>
      <trkpt lat="45.69143" lon="3.00522">
        <ele>973.79998779297</ele>
        <time>2012-02-25T15:43:04.000Z</time>
      </trkpt>
      <trkpt lat="45.69138" lon="3.00525">
        <ele>974</ele>
        <time>2012-02-25T15:43:10.000Z</time>
      </trkpt>
      <trkpt lat="45.69137" lon="3.00525">
        <ele>974</ele>
        <time>2012-02-25T15:43:12.000Z</time>
      </trkpt>
      <trkpt lat="45.69134" lon="3.00529">
        <ele>974.40002441406</ele>
        <time>2012-02-25T15:43:16.000Z</time>
      </trkpt>
      <trkpt lat="45.6913" lon="3.00532">
        <ele>975</ele>
        <time>2012-02-25T15:43:22.000Z</time>
      </trkpt>
      <trkpt lat="45.69127" lon="3.00535">
        <ele>975.20001220703</ele>
        <time>2012-02-25T15:43:28.000Z</time>
      </trkpt>
      <trkpt lat="45.69124" lon="3.00537">
        <ele>975.59997558594</ele>
        <time>2012-02-25T15:43:31.000Z</time>
      </trkpt>
      <trkpt lat="45.69115" lon="3.00542">
        <ele>975.79998779297</ele>
        <time>2012-02-25T15:43:40.000Z</time>
      </trkpt>
      <trkpt lat="45.69109" lon="3.00544">
        <ele>976</ele>
        <time>2012-02-25T15:43:48.000Z</time>
      </trkpt>
      <trkpt lat="45.69108" lon="3.00544">
        <ele>976</ele>
        <time>2012-02-25T15:43:49.000Z</time>
      </trkpt>
      <trkpt lat="45.69106" lon="3.00545">
        <ele>976</ele>
        <time>2012-02-25T15:43:52.000Z</time>
      </trkpt>
      <trkpt lat="45.69098" lon="3.00544">
        <ele>975.40002441406</ele>
        <time>2012-02-25T15:43:58.000Z</time>
      </trkpt>
      <trkpt lat="45.69092" lon="3.00543">
        <ele>975.20001220703</ele>
        <time>2012-02-25T15:44:04.000Z</time>
      </trkpt>
      <trkpt lat="45.69091" lon="3.00543">
        <ele>975</ele>
        <time>2012-02-25T15:44:06.000Z</time>
      </trkpt>
      <trkpt lat="45.69087" lon="3.00543">
        <ele>974.79998779297</ele>
        <time>2012-02-25T15:44:10.000Z</time>
      </trkpt>
      <trkpt lat="45.69086" lon="3.00543">
        <ele>974.79998779297</ele>
        <time>2012-02-25T15:44:11.000Z</time>
      </trkpt>
      <trkpt lat="45.69081" lon="3.00543">
        <ele>974.79998779297</ele>
        <time>2012-02-25T15:44:18.000Z</time>
      </trkpt>
      <trkpt lat="45.69076" lon="3.00543">
        <ele>975.20001220703</ele>
        <time>2012-02-25T15:44:22.000Z</time>
      </trkpt>
      <trkpt lat="45.69075" lon="3.00543">
        <ele>975.20001220703</ele>
        <time>2012-02-25T15:44:25.000Z</time>
      </trkpt>
      <trkpt lat="45.69071" lon="3.00543">
        <ele>975.59997558594</ele>
        <time>2012-02-25T15:44:31.000Z</time>
      </trkpt>
      <trkpt lat="45.69066" lon="3.00542">
        <ele>975.59997558594</ele>
        <time>2012-02-25T15:44:38.000Z</time>
      </trkpt>
      <trkpt lat="45.69065" lon="3.00543">
        <ele>975.79998779297</ele>
        <time>2012-02-25T15:44:39.000Z</time>
      </trkpt>
      <trkpt lat="45.69062" lon="3.00546">
        <ele>976.40002441406</ele>
        <time>2012-02-25T15:44:43.000Z</time>
      </trkpt>
      <trkpt lat="45.69057" lon="3.00546">
        <ele>976.79998779297</ele>
        <time>2012-02-25T15:44:46.000Z</time>
      </trkpt>
      <trkpt lat="45.69055" lon="3.00547">
        <ele>977.20001220703</ele>
        <time>2012-02-25T15:44:50.000Z</time>
      </trkpt>
      <trkpt lat="45.69048" lon="3.00548">
        <ele>977.59997558594</ele>
        <time>2012-02-25T15:44:57.000Z</time>
      </trkpt>
      <trkpt lat="45.69041" lon="3.00545">
        <ele>977.59997558594</ele>
        <time>2012-02-25T15:45:02.000Z</time>
      </trkpt>
      <trkpt lat="45.69039" lon="3.00544">
        <ele>977.59997558594</ele>
        <time>2012-02-25T15:45:04.000Z</time>
      </trkpt>
      <trkpt lat="45.6903" lon="3.00541">
        <ele>977.59997558594</ele>
        <time>2012-02-25T15:45:12.000Z</time>
      </trkpt>
      <trkpt lat="45.69024" lon="3.00538">
        <ele>977.40002441406</ele>
        <time>2012-02-25T15:45:18.000Z</time>
      </trkpt>
      <trkpt lat="45.69022" lon="3.00538">
        <ele>977.59997558594</ele>
        <time>2012-02-25T15:45:20.000Z</time>
      </trkpt>
      <trkpt lat="45.69017" lon="3.00537">
        <ele>977.59997558594</ele>
        <time>2012-02-25T15:45:26.000Z</time>
      </trkpt>
      <trkpt lat="45.69013" lon="3.00536">
        <ele>977.59997558594</ele>
        <time>2012-02-25T15:45:29.000Z</time>
      </trkpt>
      <trkpt lat="45.6901" lon="3.00535">
        <ele>977.79998779297</ele>
        <time>2012-02-25T15:45:33.000Z</time>
      </trkpt>
      <trkpt lat="45.69004" lon="3.00536">
        <ele>978.20001220703</ele>
        <time>2012-02-25T15:45:39.000Z</time>
      </trkpt>
      <trkpt lat="45.68997" lon="3.00535">
        <ele>978.40002441406</ele>
        <time>2012-02-25T15:45:47.000Z</time>
      </trkpt>
      <trkpt lat="45.68996" lon="3.00535">
        <ele>978.40002441406</ele>
        <time>2012-02-25T15:45:48.000Z</time>
      </trkpt>
      <trkpt lat="45.68988" lon="3.00536">
        <ele>979</ele>
        <time>2012-02-25T15:45:56.000Z</time>
      </trkpt>
      <trkpt lat="45.68978" lon="3.00536">
        <ele>979.59997558594</ele>
        <time>2012-02-25T15:46:08.000Z</time>
      </trkpt>
      <trkpt lat="45.68975" lon="3.00535">
        <ele>979.40002441406</ele>
        <time>2012-02-25T15:46:10.000Z</time>
      </trkpt>
      <trkpt lat="45.68964" lon="3.00534">
        <ele>979.79998779297</ele>
        <time>2012-02-25T15:46:21.000Z</time>
      </trkpt>
      <trkpt lat="45.6896" lon="3.00536">
        <ele>980.59997558594</ele>
        <time>2012-02-25T15:46:26.000Z</time>
      </trkpt>
      <trkpt lat="45.68956" lon="3.00537">
        <ele>980.79998779297</ele>
        <time>2012-02-25T15:46:30.000Z</time>
      </trkpt>
      <trkpt lat="45.68953" lon="3.00538">
        <ele>981.40002441406</ele>
        <time>2012-02-25T15:46:34.000Z</time>
      </trkpt>
      <trkpt lat="45.68946" lon="3.0054">
        <ele>982</ele>
        <time>2012-02-25T15:46:40.000Z</time>
      </trkpt>
      <trkpt lat="45.6894" lon="3.00543">
        <ele>983</ele>
        <time>2012-02-25T15:46:46.000Z</time>
      </trkpt>
      <trkpt lat="45.68939" lon="3.00543">
        <ele>983.20001220703</ele>
        <time>2012-02-25T15:46:48.000Z</time>
      </trkpt>
      <trkpt lat="45.68931" lon="3.00546">
        <ele>984.20001220703</ele>
        <time>2012-02-25T15:46:55.000Z</time>
      </trkpt>
      <trkpt lat="45.68929" lon="3.00546">
        <ele>984.40002441406</ele>
        <time>2012-02-25T15:46:56.000Z</time>
      </trkpt>
      <trkpt lat="45.68923" lon="3.0055">
        <ele>985.59997558594</ele>
        <time>2012-02-25T15:47:03.000Z</time>
      </trkpt>
      <trkpt lat="45.68914" lon="3.00554">
        <ele>986.79998779297</ele>
        <time>2012-02-25T15:47:11.000Z</time>
      </trkpt>
      <trkpt lat="45.68907" lon="3.00557">
        <ele>987</ele>
        <time>2012-02-25T15:47:19.000Z</time>
      </trkpt>
      <trkpt lat="45.68903" lon="3.00559">
        <ele>987.20001220703</ele>
        <time>2012-02-25T15:47:22.000Z</time>
      </trkpt>
      <trkpt lat="45.68901" lon="3.0056">
        <ele>987.20001220703</ele>
        <time>2012-02-25T15:47:25.000Z</time>
      </trkpt>
      <trkpt lat="45.68893" lon="3.00563">
        <ele>987.59997558594</ele>
        <time>2012-02-25T15:47:31.000Z</time>
      </trkpt>
      <trkpt lat="45.68885" lon="3.00566">
        <ele>987.79998779297</ele>
        <time>2012-02-25T15:47:39.000Z</time>
      </trkpt>
      <trkpt lat="45.68879" lon="3.0057">
        <ele>988.40002441406</ele>
        <time>2012-02-25T15:47:45.000Z</time>
      </trkpt>
      <trkpt lat="45.68874" lon="3.00572">
        <ele>988.59997558594</ele>
        <time>2012-02-25T15:47:49.000Z</time>
      </trkpt>
      <trkpt lat="45.68862" lon="3.00578">
        <ele>989.40002441406</ele>
        <time>2012-02-25T15:48:00.000Z</time>
      </trkpt>
      <trkpt lat="45.68855" lon="3.00581">
        <ele>989.79998779297</ele>
        <time>2012-02-25T15:48:06.000Z</time>
      </trkpt>
      <trkpt lat="45.6885" lon="3.00581">
        <ele>989.40002441406</ele>
        <time>2012-02-25T15:48:10.000Z</time>
      </trkpt>
      <trkpt lat="45.68847" lon="3.00583">
        <ele>989.79998779297</ele>
        <time>2012-02-25T15:48:14.000Z</time>
      </trkpt>
      <trkpt lat="45.68839" lon="3.00586">
        <ele>990</ele>
        <time>2012-02-25T15:48:21.000Z</time>
      </trkpt>
      <trkpt lat="45.68838" lon="3.00587">
        <ele>990</ele>
        <time>2012-02-25T15:48:22.000Z</time>
      </trkpt>
      <trkpt lat="45.68836" lon="3.00587">
        <ele>990</ele>
        <time>2012-02-25T15:48:25.000Z</time>
      </trkpt>
      <trkpt lat="45.6883" lon="3.00593">
        <ele>990.59997558594</ele>
        <time>2012-02-25T15:48:31.000Z</time>
      </trkpt>
      <trkpt lat="45.68829" lon="3.00593">
        <ele>990.40002441406</ele>
        <time>2012-02-25T15:48:33.000Z</time>
      </trkpt>
      <trkpt lat="45.68819" lon="3.00598">
        <ele>990</ele>
        <time>2012-02-25T15:48:41.000Z</time>
      </trkpt>
      <trkpt lat="45.68811" lon="3.00602">
        <ele>989.40002441406</ele>
        <time>2012-02-25T15:48:49.000Z</time>
      </trkpt>
      <trkpt lat="45.68807" lon="3.00604">
        <ele>989</ele>
        <time>2012-02-25T15:48:54.000Z</time>
      </trkpt>
      <trkpt lat="45.68804" lon="3.00604">
        <ele>988.79998779297</ele>
        <time>2012-02-25T15:48:56.000Z</time>
      </trkpt>
      <trkpt lat="45.688" lon="3.00605">
        <ele>988.20001220703</ele>
        <time>2012-02-25T15:49:01.000Z</time>
      </trkpt>
      <trkpt lat="45.68792" lon="3.00609">
        <ele>987.79998779297</ele>
        <time>2012-02-25T15:49:09.000Z</time>
      </trkpt>
      <trkpt lat="45.68789" lon="3.0061">
        <ele>987.59997558594</ele>
        <time>2012-02-25T15:49:11.000Z</time>
      </trkpt>
      <trkpt lat="45.68783" lon="3.00614">
        <ele>987.40002441406</ele>
        <time>2012-02-25T15:49:17.000Z</time>
      </trkpt>
      <trkpt lat="45.68776" lon="3.00618">
        <ele>987</ele>
        <time>2012-02-25T15:49:25.000Z</time>
      </trkpt>
      <trkpt lat="45.68772" lon="3.0062">
        <ele>986.79998779297</ele>
        <time>2012-02-25T15:49:28.000Z</time>
      </trkpt>
      <trkpt lat="45.68764" lon="3.00624">
        <ele>986.20001220703</ele>
        <time>2012-02-25T15:49:36.000Z</time>
      </trkpt>
      <trkpt lat="45.68759" lon="3.00626">
        <ele>985.79998779297</ele>
        <time>2012-02-25T15:49:40.000Z</time>
      </trkpt>
      <trkpt lat="45.68751" lon="3.00632">
        <ele>985.59997558594</ele>
        <time>2012-02-25T15:49:49.000Z</time>
      </trkpt>
      <trkpt lat="45.68743" lon="3.00636">
        <ele>985.20001220703</ele>
        <time>2012-02-25T15:49:56.000Z</time>
      </trkpt>
      <trkpt lat="45.68737" lon="3.00641">
        <ele>985.20001220703</ele>
        <time>2012-02-25T15:50:01.000Z</time>
      </trkpt>
      <trkpt lat="45.6873" lon="3.00645">
        <ele>984.79998779297</ele>
        <time>2012-02-25T15:50:08.000Z</time>
      </trkpt>
      <trkpt lat="45.68718" lon="3.00652">
        <ele>984.20001220703</ele>
        <time>2012-02-25T15:50:18.000Z</time>
      </trkpt>
      <trkpt lat="45.68709" lon="3.00658">
        <ele>983.79998779297</ele>
        <time>2012-02-25T15:50:26.000Z</time>
      </trkpt>
      <trkpt lat="45.68699" lon="3.00664">
        <ele>983.20001220703</ele>
        <time>2012-02-25T15:50:36.000Z</time>
      </trkpt>
      <trkpt lat="45.6869" lon="3.00668">
        <ele>982.40002441406</ele>
        <time>2012-02-25T15:50:45.000Z</time>
      </trkpt>
      <trkpt lat="45.68682" lon="3.00672">
        <ele>981.59997558594</ele>
        <time>2012-02-25T15:50:52.000Z</time>
      </trkpt>
      <trkpt lat="45.68675" lon="3.00674">
        <ele>980.79998779297</ele>
        <time>2012-02-25T15:50:58.000Z</time>
      </trkpt>
      <trkpt lat="45.6867" lon="3.00677">
        <ele>980.40002441406</ele>
        <time>2012-02-25T15:51:04.000Z</time>
      </trkpt>
      <trkpt lat="45.68662" lon="3.00684">
        <ele>980.79998779297</ele>
        <time>2012-02-25T15:51:12.000Z</time>
      </trkpt>
      <trkpt lat="45.68655" lon="3.00684">
        <ele>980.59997558594</ele>
        <time>2012-02-25T15:51:18.000Z</time>
      </trkpt>
      <trkpt lat="45.68651" lon="3.00686">
        <ele>981</ele>
        <time>2012-02-25T15:51:22.000Z</time>
      </trkpt>
      <trkpt lat="45.68645" lon="3.00686">
        <ele>981</ele>
        <time>2012-02-25T15:51:28.000Z</time>
      </trkpt>
      <trkpt lat="45.68643" lon="3.00687">
        <ele>981</ele>
        <time>2012-02-25T15:51:37.000Z</time>
      </trkpt>
      <trkpt lat="45.68636" lon="3.00692">
        <ele>981.59997558594</ele>
        <time>2012-02-25T15:51:59.000Z</time>
      </trkpt>
      <trkpt lat="45.68633" lon="3.00695">
        <ele>982</ele>
        <time>2012-02-25T15:52:02.000Z</time>
      </trkpt>
      <trkpt lat="45.68628" lon="3.00695">
        <ele>982</ele>
        <time>2012-02-25T15:52:10.000Z</time>
      </trkpt>
      <trkpt lat="45.6862" lon="3.00698">
        <ele>982.20001220703</ele>
        <time>2012-02-25T15:52:24.000Z</time>
      </trkpt>
      <trkpt lat="45.68619" lon="3.00698">
        <ele>982.40002441406</ele>
        <time>2012-02-25T15:52:25.000Z</time>
      </trkpt>
      <trkpt lat="45.68618" lon="3.00699">
        <ele>982.40002441406</ele>
        <time>2012-02-25T15:52:26.000Z</time>
      </trkpt>
      <trkpt lat="45.68614" lon="3.00697">
        <ele>982</ele>
        <time>2012-02-25T15:52:32.000Z</time>
      </trkpt>
      <trkpt lat="45.68611" lon="3.00697">
        <ele>982</ele>
        <time>2012-02-25T15:52:35.000Z</time>
      </trkpt>
      <trkpt lat="45.68604" lon="3.00695">
        <ele>981.40002441406</ele>
        <time>2012-02-25T15:52:42.000Z</time>
      </trkpt>
      <trkpt lat="45.68598" lon="3.00693">
        <ele>981</ele>
        <time>2012-02-25T15:52:46.000Z</time>
      </trkpt>
      <trkpt lat="45.68597" lon="3.00692">
        <ele>981</ele>
        <time>2012-02-25T15:52:48.000Z</time>
      </trkpt>
      <trkpt lat="45.68592" lon="3.00693">
        <ele>981</ele>
        <time>2012-02-25T15:52:58.000Z</time>
      </trkpt>
      <trkpt lat="45.68585" lon="3.0069">
        <ele>980.40002441406</ele>
        <time>2012-02-25T15:53:03.000Z</time>
      </trkpt>
      <trkpt lat="45.68579" lon="3.00687">
        <ele>980.59997558594</ele>
        <time>2012-02-25T15:53:10.000Z</time>
      </trkpt>
      <trkpt lat="45.68575" lon="3.00683">
        <ele>980.59997558594</ele>
        <time>2012-02-25T15:53:15.000Z</time>
      </trkpt>
      <trkpt lat="45.68574" lon="3.00683">
        <ele>980.59997558594</ele>
        <time>2012-02-25T15:53:16.000Z</time>
      </trkpt>
      <trkpt lat="45.68568" lon="3.00679">
        <ele>981</ele>
        <time>2012-02-25T15:53:24.000Z</time>
      </trkpt>
      <trkpt lat="45.68567" lon="3.00678">
        <ele>981</ele>
        <time>2012-02-25T15:53:25.000Z</time>
      </trkpt>
      <trkpt lat="45.68563" lon="3.00675">
        <ele>981.20001220703</ele>
        <time>2012-02-25T15:53:31.000Z</time>
      </trkpt>
      <trkpt lat="45.68559" lon="3.0067">
        <ele>981.20001220703</ele>
        <time>2012-02-25T15:53:37.000Z</time>
      </trkpt>
      <trkpt lat="45.68555" lon="3.00667">
        <ele>981.59997558594</ele>
        <time>2012-02-25T15:53:42.000Z</time>
      </trkpt>
      <trkpt lat="45.68549" lon="3.00662">
        <ele>981.40002441406</ele>
        <time>2012-02-25T15:53:49.000Z</time>
      </trkpt>
      <trkpt lat="45.68542" lon="3.00656">
        <ele>981.20001220703</ele>
        <time>2012-02-25T15:53:58.000Z</time>
      </trkpt>
      <trkpt lat="45.68542" lon="3.00655">
        <ele>981.20001220703</ele>
        <time>2012-02-25T15:53:59.000Z</time>
      </trkpt>
      <trkpt lat="45.68537" lon="3.00649">
        <ele>981</ele>
        <time>2012-02-25T15:54:06.000Z</time>
      </trkpt>
      <trkpt lat="45.68536" lon="3.00649">
        <ele>980.79998779297</ele>
        <time>2012-02-25T15:54:07.000Z</time>
      </trkpt>
      <trkpt lat="45.68532" lon="3.00644">
        <ele>980.59997558594</ele>
        <time>2012-02-25T15:54:14.000Z</time>
      </trkpt>
      <trkpt lat="45.68526" lon="3.00638">
        <ele>980.40002441406</ele>
        <time>2012-02-25T15:54:21.000Z</time>
      </trkpt>
      <trkpt lat="45.68524" lon="3.00636">
        <ele>980.20001220703</ele>
        <time>2012-02-25T15:54:24.000Z</time>
      </trkpt>
      <trkpt lat="45.68522" lon="3.00633">
        <ele>979.79998779297</ele>
        <time>2012-02-25T15:54:28.000Z</time>
      </trkpt>
      <trkpt lat="45.6852" lon="3.00628">
        <ele>979.40002441406</ele>
        <time>2012-02-25T15:54:36.000Z</time>
      </trkpt>
      <trkpt lat="45.68516" lon="3.00623">
        <ele>978.79998779297</ele>
        <time>2012-02-25T15:55:04.000Z</time>
      </trkpt>
      <trkpt lat="45.68515" lon="3.00624">
        <ele>979</ele>
        <time>2012-02-25T15:55:14.000Z</time>
      </trkpt>
      <trkpt lat="45.68512" lon="3.00624">
        <ele>979.59997558594</ele>
        <time>2012-02-25T15:55:20.000Z</time>
      </trkpt>
      <trkpt lat="45.68505" lon="3.00619">
        <ele>979.59997558594</ele>
        <time>2012-02-25T15:55:27.000Z</time>
      </trkpt>
      <trkpt lat="45.68497" lon="3.00616">
        <ele>979.40002441406</ele>
        <time>2012-02-25T15:55:35.000Z</time>
      </trkpt>
      <trkpt lat="45.68495" lon="3.00615">
        <ele>979.20001220703</ele>
        <time>2012-02-25T15:55:37.000Z</time>
      </trkpt>
      <trkpt lat="45.68488" lon="3.00615">
        <ele>979</ele>
        <time>2012-02-25T15:55:45.000Z</time>
      </trkpt>
      <trkpt lat="45.68487" lon="3.00615">
        <ele>978.79998779297</ele>
        <time>2012-02-25T15:55:46.000Z</time>
      </trkpt>
      <trkpt lat="45.6848" lon="3.00616">
        <ele>978.59997558594</ele>
        <time>2012-02-25T15:55:53.000Z</time>
      </trkpt>
      <trkpt lat="45.68476" lon="3.00616">
        <ele>978.59997558594</ele>
        <time>2012-02-25T15:55:59.000Z</time>
      </trkpt>
      <trkpt lat="45.6847" lon="3.00615">
        <ele>978.20001220703</ele>
        <time>2012-02-25T15:56:08.000Z</time>
      </trkpt>
      <trkpt lat="45.6846" lon="3.00617">
        <ele>977.79998779297</ele>
        <time>2012-02-25T15:56:16.000Z</time>
      </trkpt>
      <trkpt lat="45.68456" lon="3.00616">
        <ele>977.40002441406</ele>
        <time>2012-02-25T15:56:20.000Z</time>
      </trkpt>
      <trkpt lat="45.68446" lon="3.00617">
        <ele>977</ele>
        <time>2012-02-25T15:56:28.000Z</time>
      </trkpt>
      <trkpt lat="45.68445" lon="3.00616">
        <ele>977</ele>
        <time>2012-02-25T15:56:30.000Z</time>
      </trkpt>
      <trkpt lat="45.68436" lon="3.0061">
        <ele>976</ele>
        <time>2012-02-25T15:56:39.000Z</time>
      </trkpt>
      <trkpt lat="45.68429" lon="3.00602">
        <ele>975.20001220703</ele>
        <time>2012-02-25T15:56:46.000Z</time>
      </trkpt>
      <trkpt lat="45.68427" lon="3.006">
        <ele>975</ele>
        <time>2012-02-25T15:56:48.000Z</time>
      </trkpt>
      <trkpt lat="45.6842" lon="3.00592">
        <ele>974.40002441406</ele>
        <time>2012-02-25T15:56:56.000Z</time>
      </trkpt>
      <trkpt lat="45.68414" lon="3.00585">
        <ele>974</ele>
        <time>2012-02-25T15:57:02.000Z</time>
      </trkpt>
      <trkpt lat="45.6841" lon="3.00579">
        <ele>973.59997558594</ele>
        <time>2012-02-25T15:57:09.000Z</time>
      </trkpt>
      <trkpt lat="45.68404" lon="3.00571">
        <ele>973.40002441406</ele>
        <time>2012-02-25T15:57:16.000Z</time>
      </trkpt>
      <trkpt lat="45.68396" lon="3.00563">
        <ele>973.40002441406</ele>
        <time>2012-02-25T15:57:26.000Z</time>
      </trkpt>
      <trkpt lat="45.6839" lon="3.00558">
        <ele>973.20001220703</ele>
        <time>2012-02-25T15:57:33.000Z</time>
      </trkpt>
      <trkpt lat="45.68389" lon="3.00558">
        <ele>973.20001220703</ele>
        <time>2012-02-25T15:57:42.000Z</time>
      </trkpt>
      <trkpt lat="45.68386" lon="3.00556">
        <ele>973.20001220703</ele>
        <time>2012-02-25T15:57:46.000Z</time>
      </trkpt>
      <trkpt lat="45.68381" lon="3.00554">
        <ele>973</ele>
        <time>2012-02-25T15:57:52.000Z</time>
      </trkpt>
      <trkpt lat="45.68377" lon="3.00553">
        <ele>973</ele>
        <time>2012-02-25T15:57:56.000Z</time>
      </trkpt>
      <trkpt lat="45.68369" lon="3.0055">
        <ele>972.79998779297</ele>
        <time>2012-02-25T15:58:04.000Z</time>
      </trkpt>
      <trkpt lat="45.68359" lon="3.00547">
        <ele>972.79998779297</ele>
        <time>2012-02-25T15:58:13.000Z</time>
      </trkpt>
      <trkpt lat="45.68348" lon="3.00544">
        <ele>972.59997558594</ele>
        <time>2012-02-25T15:58:23.000Z</time>
      </trkpt>
      <trkpt lat="45.68341" lon="3.0054">
        <ele>972.79998779297</ele>
        <time>2012-02-25T15:58:30.000Z</time>
      </trkpt>
      <trkpt lat="45.6833" lon="3.00535">
        <ele>972.59997558594</ele>
        <time>2012-02-25T15:58:39.000Z</time>
      </trkpt>
      <trkpt lat="45.68323" lon="3.00532">
        <ele>972.20001220703</ele>
        <time>2012-02-25T15:58:46.000Z</time>
      </trkpt>
      <trkpt lat="45.68313" lon="3.00528">
        <ele>971.59997558594</ele>
        <time>2012-02-25T15:58:54.000Z</time>
      </trkpt>
      <trkpt lat="45.68305" lon="3.00523">
        <ele>971.20001220703</ele>
        <time>2012-02-25T15:59:01.000Z</time>
      </trkpt>
      <trkpt lat="45.68302" lon="3.00522">
        <ele>971</ele>
        <time>2012-02-25T15:59:04.000Z</time>
      </trkpt>
      <trkpt lat="45.68289" lon="3.00517">
        <ele>970.20001220703</ele>
        <time>2012-02-25T15:59:15.000Z</time>
      </trkpt>
      <trkpt lat="45.68279" lon="3.00514">
        <ele>969.59997558594</ele>
        <time>2012-02-25T15:59:24.000Z</time>
      </trkpt>
      <trkpt lat="45.68267" lon="3.00509">
        <ele>968.79998779297</ele>
        <time>2012-02-25T15:59:33.000Z</time>
      </trkpt>
      <trkpt lat="45.68258" lon="3.00506">
        <ele>968.40002441406</ele>
        <time>2012-02-25T15:59:40.000Z</time>
      </trkpt>
      <trkpt lat="45.68249" lon="3.00503">
        <ele>967.79998779297</ele>
        <time>2012-02-25T15:59:46.000Z</time>
      </trkpt>
      <trkpt lat="45.68236" lon="3.00499">
        <ele>966.40002441406</ele>
        <time>2012-02-25T15:59:56.000Z</time>
      </trkpt>
      <trkpt lat="45.68225" lon="3.00498">
        <ele>965.20001220703</ele>
        <time>2012-02-25T16:00:06.000Z</time>
      </trkpt>
      <trkpt lat="45.68215" lon="3.00497">
        <ele>964.20001220703</ele>
        <time>2012-02-25T16:00:14.000Z</time>
      </trkpt>
      <trkpt lat="45.68203" lon="3.00493">
        <ele>962.79998779297</ele>
        <time>2012-02-25T16:00:24.000Z</time>
      </trkpt>
      <trkpt lat="45.68196" lon="3.00488">
        <ele>962</ele>
        <time>2012-02-25T16:00:31.000Z</time>
      </trkpt>
      <trkpt lat="45.68188" lon="3.0048">
        <ele>961</ele>
        <time>2012-02-25T16:00:39.000Z</time>
      </trkpt>
      <trkpt lat="45.68183" lon="3.00474">
        <ele>960.40002441406</ele>
        <time>2012-02-25T16:00:45.000Z</time>
      </trkpt>
      <trkpt lat="45.6818" lon="3.00469">
        <ele>960</ele>
        <time>2012-02-25T16:00:49.000Z</time>
      </trkpt>
      <trkpt lat="45.6817" lon="3.00463">
        <ele>959</ele>
        <time>2012-02-25T16:00:58.000Z</time>
      </trkpt>
      <trkpt lat="45.68162" lon="3.00457">
        <ele>958</ele>
        <time>2012-02-25T16:01:06.000Z</time>
      </trkpt>
      <trkpt lat="45.68153" lon="3.0045">
        <ele>957</ele>
        <time>2012-02-25T16:01:15.000Z</time>
      </trkpt>
      <trkpt lat="45.68142" lon="3.00445">
        <ele>956</ele>
        <time>2012-02-25T16:01:24.000Z</time>
      </trkpt>
      <trkpt lat="45.6813" lon="3.00441">
        <ele>954.59997558594</ele>
        <time>2012-02-25T16:01:34.000Z</time>
      </trkpt>
      <trkpt lat="45.68127" lon="3.00439">
        <ele>954.20001220703</ele>
        <time>2012-02-25T16:01:39.000Z</time>
      </trkpt>
      <trkpt lat="45.68117" lon="3.00434">
        <ele>953.20001220703</ele>
        <time>2012-02-25T16:01:46.000Z</time>
      </trkpt>
      <trkpt lat="45.68108" lon="3.0043">
        <ele>952</ele>
        <time>2012-02-25T16:01:55.000Z</time>
      </trkpt>
      <trkpt lat="45.68099" lon="3.00424">
        <ele>951</ele>
        <time>2012-02-25T16:02:03.000Z</time>
      </trkpt>
      <trkpt lat="45.68089" lon="3.00418">
        <ele>949.59997558594</ele>
        <time>2012-02-25T16:02:13.000Z</time>
      </trkpt>
      <trkpt lat="45.68083" lon="3.00416">
        <ele>949</ele>
        <time>2012-02-25T16:02:20.000Z</time>
      </trkpt>
      <trkpt lat="45.68072" lon="3.00409">
        <ele>947.40002441406</ele>
        <time>2012-02-25T16:02:30.000Z</time>
      </trkpt>
      <trkpt lat="45.68073" lon="3.00407">
        <ele>947.59997558594</ele>
        <time>2012-02-25T16:02:42.000Z</time>
      </trkpt>
      <trkpt lat="45.68073" lon="3.00412">
        <ele>947.79998779297</ele>
        <time>2012-02-25T16:03:14.000Z</time>
      </trkpt>
      <trkpt lat="45.68069" lon="3.00414">
        <ele>947.40002441406</ele>
        <time>2012-02-25T16:03:34.000Z</time>
      </trkpt>
      <trkpt lat="45.68062" lon="3.00408">
        <ele>946.40002441406</ele>
        <time>2012-02-25T16:03:42.000Z</time>
      </trkpt>
      <trkpt lat="45.68053" lon="3.004">
        <ele>945.20001220703</ele>
        <time>2012-02-25T16:03:51.000Z</time>
      </trkpt>
      <trkpt lat="45.68046" lon="3.00394">
        <ele>944.20001220703</ele>
        <time>2012-02-25T16:03:58.000Z</time>
      </trkpt>
      <trkpt lat="45.68041" lon="3.00389">
        <ele>943.40002441406</ele>
        <time>2012-02-25T16:04:04.000Z</time>
      </trkpt>
      <trkpt lat="45.68032" lon="3.00381">
        <ele>942.20001220703</ele>
        <time>2012-02-25T16:04:14.000Z</time>
      </trkpt>
      <trkpt lat="45.68028" lon="3.00379">
        <ele>941.59997558594</ele>
        <time>2012-02-25T16:04:19.000Z</time>
      </trkpt>
      <trkpt lat="45.68021" lon="3.00374">
        <ele>940.59997558594</ele>
        <time>2012-02-25T16:04:27.000Z</time>
      </trkpt>
      <trkpt lat="45.68012" lon="3.00368">
        <ele>939.59997558594</ele>
        <time>2012-02-25T16:04:36.000Z</time>
      </trkpt>
      <trkpt lat="45.68007" lon="3.00365">
        <ele>938.79998779297</ele>
        <time>2012-02-25T16:04:41.000Z</time>
      </trkpt>
      <trkpt lat="45.67998" lon="3.00363">
        <ele>937.79998779297</ele>
        <time>2012-02-25T16:04:49.000Z</time>
      </trkpt>
      <trkpt lat="45.67991" lon="3.00364">
        <ele>937.20001220703</ele>
        <time>2012-02-25T16:04:56.000Z</time>
      </trkpt>
      <trkpt lat="45.67984" lon="3.00366">
        <ele>936.59997558594</ele>
        <time>2012-02-25T16:05:03.000Z</time>
      </trkpt>
      <trkpt lat="45.67978" lon="3.00368">
        <ele>936</ele>
        <time>2012-02-25T16:05:09.000Z</time>
      </trkpt>
      <trkpt lat="45.6797" lon="3.00372">
        <ele>935.40002441406</ele>
        <time>2012-02-25T16:05:17.000Z</time>
      </trkpt>
      <trkpt lat="45.67962" lon="3.00374">
        <ele>934.59997558594</ele>
        <time>2012-02-25T16:05:25.000Z</time>
      </trkpt>
      <trkpt lat="45.67957" lon="3.00374">
        <ele>934</ele>
        <time>2012-02-25T16:05:31.000Z</time>
      </trkpt>
      <trkpt lat="45.67953" lon="3.00374">
        <ele>933.59997558594</ele>
        <time>2012-02-25T16:05:35.000Z</time>
      </trkpt>
      <trkpt lat="45.67943" lon="3.00371">
        <ele>932.59997558594</ele>
        <time>2012-02-25T16:05:44.000Z</time>
      </trkpt>
      <trkpt lat="45.67937" lon="3.00369">
        <ele>931.79998779297</ele>
        <time>2012-02-25T16:05:50.000Z</time>
      </trkpt>
      <trkpt lat="45.6793" lon="3.00366">
        <ele>931</ele>
        <time>2012-02-25T16:05:58.000Z</time>
      </trkpt>
      <trkpt lat="45.67923" lon="3.00363">
        <ele>930</ele>
        <time>2012-02-25T16:06:05.000Z</time>
      </trkpt>
      <trkpt lat="45.67912" lon="3.00358">
        <ele>928.59997558594</ele>
        <time>2012-02-25T16:06:14.000Z</time>
      </trkpt>
      <trkpt lat="45.67901" lon="3.00351">
        <ele>927</ele>
        <time>2012-02-25T16:06:24.000Z</time>
      </trkpt>
      <trkpt lat="45.6789" lon="3.00345">
        <ele>925.59997558594</ele>
        <time>2012-02-25T16:06:33.000Z</time>
      </trkpt>
      <trkpt lat="45.67883" lon="3.00339">
        <ele>924.59997558594</ele>
        <time>2012-02-25T16:06:41.000Z</time>
      </trkpt>
      <trkpt lat="45.67875" lon="3.00334">
        <ele>923.40002441406</ele>
        <time>2012-02-25T16:06:49.000Z</time>
      </trkpt>
      <trkpt lat="45.67868" lon="3.00326">
        <ele>922.40002441406</ele>
        <time>2012-02-25T16:06:56.000Z</time>
      </trkpt>
      <trkpt lat="45.67865" lon="3.00324">
        <ele>922</ele>
        <time>2012-02-25T16:06:58.000Z</time>
      </trkpt>
      <trkpt lat="45.6786" lon="3.00314">
        <ele>921</ele>
        <time>2012-02-25T16:07:05.000Z</time>
      </trkpt>
      <trkpt lat="45.67853" lon="3.00306">
        <ele>919.79998779297</ele>
        <time>2012-02-25T16:07:13.000Z</time>
      </trkpt>
      <trkpt lat="45.67843" lon="3.003">
        <ele>918.40002441406</ele>
        <time>2012-02-25T16:07:23.000Z</time>
      </trkpt>
      <trkpt lat="45.67841" lon="3.003">
        <ele>918.20001220703</ele>
        <time>2012-02-25T16:07:27.000Z</time>
      </trkpt>
      <trkpt lat="45.67835" lon="3.00297">
        <ele>917.40002441406</ele>
        <time>2012-02-25T16:07:33.000Z</time>
      </trkpt>
      <trkpt lat="45.67832" lon="3.00295">
        <ele>917</ele>
        <time>2012-02-25T16:07:35.000Z</time>
      </trkpt>
      <trkpt lat="45.67824" lon="3.00292">
        <ele>916</ele>
        <time>2012-02-25T16:07:43.000Z</time>
      </trkpt>
      <trkpt lat="45.67817" lon="3.00288">
        <ele>915.20001220703</ele>
        <time>2012-02-25T16:07:49.000Z</time>
      </trkpt>
      <trkpt lat="45.67809" lon="3.00283">
        <ele>914</ele>
        <time>2012-02-25T16:07:57.000Z</time>
      </trkpt>
      <trkpt lat="45.67799" lon="3.00279">
        <ele>912.79998779297</ele>
        <time>2012-02-25T16:08:06.000Z</time>
      </trkpt>
      <trkpt lat="45.67788" lon="3.00278">
        <ele>911.59997558594</ele>
        <time>2012-02-25T16:08:14.000Z</time>
      </trkpt>
      <trkpt lat="45.67778" lon="3.00276">
        <ele>910.59997558594</ele>
        <time>2012-02-25T16:08:22.000Z</time>
      </trkpt>
      <trkpt lat="45.67771" lon="3.00272">
        <ele>909.59997558594</ele>
        <time>2012-02-25T16:08:29.000Z</time>
      </trkpt>
      <trkpt lat="45.6776" lon="3.00267">
        <ele>908.40002441406</ele>
        <time>2012-02-25T16:08:38.000Z</time>
      </trkpt>
      <trkpt lat="45.67749" lon="3.0026">
        <ele>907.20001220703</ele>
        <time>2012-02-25T16:08:49.000Z</time>
      </trkpt>
      <trkpt lat="45.67742" lon="3.00256">
        <ele>906.20001220703</ele>
        <time>2012-02-25T16:08:56.000Z</time>
      </trkpt>
      <trkpt lat="45.67738" lon="3.00256">
        <ele>905.79998779297</ele>
        <time>2012-02-25T16:09:03.000Z</time>
      </trkpt>
      <trkpt lat="45.67738" lon="3.00257">
        <ele>905.59997558594</ele>
        <time>2012-02-25T16:09:29.000Z</time>
      </trkpt>
      <trkpt lat="45.67738" lon="3.00259">
        <ele>905.79998779297</ele>
        <time>2012-02-25T16:09:41.000Z</time>
      </trkpt>
      <trkpt lat="45.67735" lon="3.00257">
        <ele>905.40002441406</ele>
        <time>2012-02-25T16:09:49.000Z</time>
      </trkpt>
      <trkpt lat="45.67734" lon="3.00257">
        <ele>905.20001220703</ele>
        <time>2012-02-25T16:10:24.000Z</time>
      </trkpt>
      <trkpt lat="45.67735" lon="3.00253">
        <ele>905.20001220703</ele>
        <time>2012-02-25T16:10:55.000Z</time>
      </trkpt>
      <trkpt lat="45.67736" lon="3.00243">
        <ele>905</ele>
        <time>2012-02-25T16:11:05.000Z</time>
      </trkpt>
      <trkpt lat="45.67737" lon="3.00232">
        <ele>904.59997558594</ele>
        <time>2012-02-25T16:11:15.000Z</time>
      </trkpt>
      <trkpt lat="45.67737" lon="3.00222">
        <ele>904.20001220703</ele>
        <time>2012-02-25T16:11:23.000Z</time>
      </trkpt>
      <trkpt lat="45.67737" lon="3.00212">
        <ele>903.79998779297</ele>
        <time>2012-02-25T16:11:31.000Z</time>
      </trkpt>
      <trkpt lat="45.67736" lon="3.00202">
        <ele>903.20001220703</ele>
        <time>2012-02-25T16:11:39.000Z</time>
      </trkpt>
      <trkpt lat="45.67736" lon="3.00191">
        <ele>902.79998779297</ele>
        <time>2012-02-25T16:11:46.000Z</time>
      </trkpt>
      <trkpt lat="45.67736" lon="3.0019">
        <ele>902.59997558594</ele>
        <time>2012-02-25T16:11:48.000Z</time>
      </trkpt>
      <trkpt lat="45.67736" lon="3.00185">
        <ele>902.59997558594</ele>
        <time>2012-02-25T16:11:51.000Z</time>
      </trkpt>
      <trkpt lat="45.67737" lon="3.00171">
        <ele>902</ele>
        <time>2012-02-25T16:12:00.000Z</time>
      </trkpt>
      <trkpt lat="45.67738" lon="3.00161">
        <ele>901.59997558594</ele>
        <time>2012-02-25T16:12:06.000Z</time>
      </trkpt>
      <trkpt lat="45.67738" lon="3.00152">
        <ele>901.40002441406</ele>
        <time>2012-02-25T16:12:12.000Z</time>
      </trkpt>
      <trkpt lat="45.67738" lon="3.00143">
        <ele>901.20001220703</ele>
        <time>2012-02-25T16:12:19.000Z</time>
      </trkpt>
      <trkpt lat="45.67739" lon="3.00137">
        <ele>901.20001220703</ele>
        <time>2012-02-25T16:12:23.000Z</time>
      </trkpt>
      <trkpt lat="45.67738" lon="3.00128">
        <ele>900.79998779297</ele>
        <time>2012-02-25T16:12:29.000Z</time>
      </trkpt>
      <trkpt lat="45.67737" lon="3.00123">
        <ele>900.59997558594</ele>
        <time>2012-02-25T16:12:32.000Z</time>
      </trkpt>
      <trkpt lat="45.67735" lon="3.00117">
        <ele>900.20001220703</ele>
        <time>2012-02-25T16:12:36.000Z</time>
      </trkpt>
      <trkpt lat="45.67733" lon="3.00111">
        <ele>899.79998779297</ele>
        <time>2012-02-25T16:12:41.000Z</time>
      </trkpt>
      <trkpt lat="45.67731" lon="3.00097">
        <ele>899.40002441406</ele>
        <time>2012-02-25T16:12:48.000Z</time>
      </trkpt>
      <trkpt lat="45.6773" lon="3.00081">
        <ele>898.79998779297</ele>
        <time>2012-02-25T16:12:57.000Z</time>
      </trkpt>
      <trkpt lat="45.6773" lon="3.0008">
        <ele>898.79998779297</ele>
        <time>2012-02-25T16:12:58.000Z</time>
      </trkpt>
      <trkpt lat="45.67727" lon="3.00072">
        <ele>898.59997558594</ele>
        <time>2012-02-25T16:13:03.000Z</time>
      </trkpt>
      <trkpt lat="45.67727" lon="3.00053">
        <ele>898.79998779297</ele>
        <time>2012-02-25T16:13:13.000Z</time>
      </trkpt>
      <trkpt lat="45.67727" lon="3.00031">
        <ele>899</ele>
        <time>2012-02-25T16:13:24.000Z</time>
      </trkpt>
      <trkpt lat="45.67728" lon="3.00013">
        <ele>899.40002441406</ele>
        <time>2012-02-25T16:13:33.000Z</time>
      </trkpt>
      <trkpt lat="45.6773" lon="3">
        <ele>900</ele>
        <time>2012-02-25T16:13:41.000Z</time>
      </trkpt>
      <trkpt lat="45.67733" lon="2.99986">
        <ele>900.40002441406</ele>
        <time>2012-02-25T16:13:49.000Z</time>
      </trkpt>
      <trkpt lat="45.67735" lon="2.9997">
        <ele>901</ele>
        <time>2012-02-25T16:13:59.000Z</time>
      </trkpt>
      <trkpt lat="45.67737" lon="2.99959">
        <ele>901.40002441406</ele>
        <time>2012-02-25T16:14:06.000Z</time>
      </trkpt>
      <trkpt lat="45.67738" lon="2.99952">
        <ele>897.79998779297</ele>
        <time>2012-02-25T16:14:09.000Z</time>
      </trkpt>
      <trkpt lat="45.67739" lon="2.9994">
        <ele>896.79998779297</ele>
        <time>2012-02-25T16:14:16.000Z</time>
      </trkpt>
      <trkpt lat="45.67739" lon="2.99932">
        <ele>896.40002441406</ele>
        <time>2012-02-25T16:14:21.000Z</time>
      </trkpt>
      <trkpt lat="45.6774" lon="2.99931">
        <ele>896.20001220703</ele>
        <time>2012-02-25T16:14:23.000Z</time>
      </trkpt>
      <trkpt lat="45.67743" lon="2.99921">
        <ele>896.20001220703</ele>
        <time>2012-02-25T16:14:29.000Z</time>
      </trkpt>
      <trkpt lat="45.67746" lon="2.99909">
        <ele>895.40002441406</ele>
        <time>2012-02-25T16:14:36.000Z</time>
      </trkpt>
      <trkpt lat="45.67748" lon="2.99903">
        <ele>895.20001220703</ele>
        <time>2012-02-25T16:14:39.000Z</time>
      </trkpt>
      <trkpt lat="45.67754" lon="2.9989">
        <ele>894.59997558594</ele>
        <time>2012-02-25T16:14:48.000Z</time>
      </trkpt>
      <trkpt lat="45.67758" lon="2.9988">
        <ele>894</ele>
        <time>2012-02-25T16:14:55.000Z</time>
      </trkpt>
      <trkpt lat="45.67772" lon="2.99849">
        <ele>891.20001220703</ele>
        <time>2012-02-25T16:15:15.000Z</time>
      </trkpt>
      <trkpt lat="45.67775" lon="2.99842">
        <ele>890.59997558594</ele>
        <time>2012-02-25T16:15:20.000Z</time>
      </trkpt>
      <trkpt lat="45.67779" lon="2.99832">
        <ele>889.59997558594</ele>
        <time>2012-02-25T16:15:26.000Z</time>
      </trkpt>
      <trkpt lat="45.67779" lon="2.99831">
        <ele>889.40002441406</ele>
        <time>2012-02-25T16:15:27.000Z</time>
      </trkpt>
      <trkpt lat="45.6778" lon="2.99818">
        <ele>887.79998779297</ele>
        <time>2012-02-25T16:15:36.000Z</time>
      </trkpt>
      <trkpt lat="45.67774" lon="2.99814">
        <ele>887</ele>
        <time>2012-02-25T16:15:45.000Z</time>
      </trkpt>
      <trkpt lat="45.67772" lon="2.99814">
        <ele>886.79998779297</ele>
        <time>2012-02-25T16:15:47.000Z</time>
      </trkpt>
      <trkpt lat="45.67762" lon="2.99812">
        <ele>886</ele>
        <time>2012-02-25T16:15:56.000Z</time>
      </trkpt>
      <trkpt lat="45.67753" lon="2.9981">
        <ele>885.40002441406</ele>
        <time>2012-02-25T16:16:04.000Z</time>
      </trkpt>
      <trkpt lat="45.67746" lon="2.99809">
        <ele>884.59997558594</ele>
        <time>2012-02-25T16:16:11.000Z</time>
      </trkpt>
      <trkpt lat="45.67736" lon="2.99807">
        <ele>883.59997558594</ele>
        <time>2012-02-25T16:16:19.000Z</time>
      </trkpt>
      <trkpt lat="45.6773" lon="2.99807">
        <ele>883</ele>
        <time>2012-02-25T16:16:26.000Z</time>
      </trkpt>
      <trkpt lat="45.67722" lon="2.99806">
        <ele>882.20001220703</ele>
        <time>2012-02-25T16:16:34.000Z</time>
      </trkpt>
      <trkpt lat="45.67721" lon="2.99806">
        <ele>882.20001220703</ele>
        <time>2012-02-25T16:16:35.000Z</time>
      </trkpt>
      <trkpt lat="45.67718" lon="2.99806">
        <ele>881.79998779297</ele>
        <time>2012-02-25T16:16:40.000Z</time>
      </trkpt>
      <trkpt lat="45.67713" lon="2.99807">
        <ele>881.59997558594</ele>
        <time>2012-02-25T16:16:46.000Z</time>
      </trkpt>
      <trkpt lat="45.67705" lon="2.99811">
        <ele>881.20001220703</ele>
        <time>2012-02-25T16:16:54.000Z</time>
      </trkpt>
      <trkpt lat="45.677" lon="2.99815">
        <ele>881</ele>
        <time>2012-02-25T16:17:01.000Z</time>
      </trkpt>
      <trkpt lat="45.67689" lon="2.99822">
        <ele>880.59997558594</ele>
        <time>2012-02-25T16:17:11.000Z</time>
      </trkpt>
      <trkpt lat="45.67684" lon="2.99824">
        <ele>880.20001220703</ele>
        <time>2012-02-25T16:17:17.000Z</time>
      </trkpt>
      <trkpt lat="45.6768" lon="2.99825">
        <ele>879.79998779297</ele>
        <time>2012-02-25T16:17:28.000Z</time>
      </trkpt>
      <trkpt lat="45.67676" lon="2.99829">
        <ele>879.59997558594</ele>
        <time>2012-02-25T16:17:34.000Z</time>
      </trkpt>
      <trkpt lat="45.67671" lon="2.99833">
        <ele>879.40002441406</ele>
        <time>2012-02-25T16:17:41.000Z</time>
      </trkpt>
      <trkpt lat="45.67664" lon="2.99839">
        <ele>879</ele>
        <time>2012-02-25T16:17:49.000Z</time>
      </trkpt>
      <trkpt lat="45.67655" lon="2.99849">
        <ele>878.40002441406</ele>
        <time>2012-02-25T16:17:58.000Z</time>
      </trkpt>
      <trkpt lat="45.67647" lon="2.99858">
        <ele>877.79998779297</ele>
        <time>2012-02-25T16:18:06.000Z</time>
      </trkpt>
      <trkpt lat="45.67641" lon="2.99866">
        <ele>877.40002441406</ele>
        <time>2012-02-25T16:18:14.000Z</time>
      </trkpt>
      <trkpt lat="45.67635" lon="2.99874">
        <ele>876.79998779297</ele>
        <time>2012-02-25T16:18:21.000Z</time>
      </trkpt>
      <trkpt lat="45.67634" lon="2.99875">
        <ele>876.79998779297</ele>
        <time>2012-02-25T16:18:22.000Z</time>
      </trkpt>
      <trkpt lat="45.6763" lon="2.9988">
        <ele>876.40002441406</ele>
        <time>2012-02-25T16:18:27.000Z</time>
      </trkpt>
      <trkpt lat="45.67626" lon="2.99884">
        <ele>876</ele>
        <time>2012-02-25T16:18:31.000Z</time>
      </trkpt>
      <trkpt lat="45.67621" lon="2.99892">
        <ele>875.59997558594</ele>
        <time>2012-02-25T16:18:38.000Z</time>
      </trkpt>
      <trkpt lat="45.67619" lon="2.99895">
        <ele>875.40002441406</ele>
        <time>2012-02-25T16:18:44.000Z</time>
      </trkpt>
      <trkpt lat="45.67618" lon="2.99896">
        <ele>875.20001220703</ele>
        <time>2012-02-25T16:18:45.000Z</time>
      </trkpt>
      <trkpt lat="45.67612" lon="2.99904">
        <ele>874.59997558594</ele>
        <time>2012-02-25T16:18:51.000Z</time>
      </trkpt>
      <trkpt lat="45.67605" lon="2.99912">
        <ele>873.79998779297</ele>
        <time>2012-02-25T16:18:58.000Z</time>
      </trkpt>
      <trkpt lat="45.67602" lon="2.99915">
        <ele>873.40002441406</ele>
        <time>2012-02-25T16:19:01.000Z</time>
      </trkpt>
      <trkpt lat="45.67597" lon="2.99924">
        <ele>873.20001220703</ele>
        <time>2012-02-25T16:19:07.000Z</time>
      </trkpt>
      <trkpt lat="45.67589" lon="2.99933">
        <ele>872.79998779297</ele>
        <time>2012-02-25T16:19:14.000Z</time>
      </trkpt>
      <trkpt lat="45.67581" lon="2.9994">
        <ele>872.40002441406</ele>
        <time>2012-02-25T16:19:21.000Z</time>
      </trkpt>
      <trkpt lat="45.67573" lon="2.99948">
        <ele>871.79998779297</ele>
        <time>2012-02-25T16:19:29.000Z</time>
      </trkpt>
      <trkpt lat="45.67562" lon="2.99955">
        <ele>871</ele>
        <time>2012-02-25T16:19:39.000Z</time>
      </trkpt>
      <trkpt lat="45.67552" lon="2.99961">
        <ele>870</ele>
        <time>2012-02-25T16:19:48.000Z</time>
      </trkpt>
      <trkpt lat="45.67543" lon="2.99964">
        <ele>869</ele>
        <time>2012-02-25T16:19:55.000Z</time>
      </trkpt>
      <trkpt lat="45.6754" lon="2.99966">
        <ele>868.79998779297</ele>
        <time>2012-02-25T16:19:58.000Z</time>
      </trkpt>
      <trkpt lat="45.67534" lon="2.99969">
        <ele>868</ele>
        <time>2012-02-25T16:20:02.000Z</time>
      </trkpt>
      <trkpt lat="45.67529" lon="2.99972">
        <ele>867.59997558594</ele>
        <time>2012-02-25T16:20:07.000Z</time>
      </trkpt>
      <trkpt lat="45.67519" lon="2.99979">
        <ele>866.59997558594</ele>
        <time>2012-02-25T16:20:16.000Z</time>
      </trkpt>
      <trkpt lat="45.67509" lon="2.99986">
        <ele>865.59997558594</ele>
        <time>2012-02-25T16:20:24.000Z</time>
      </trkpt>
      <trkpt lat="45.67503" lon="2.99992">
        <ele>865</ele>
        <time>2012-02-25T16:20:30.000Z</time>
      </trkpt>
      <trkpt lat="45.67494" lon="3">
        <ele>864.20001220703</ele>
        <time>2012-02-25T16:20:39.000Z</time>
      </trkpt>
      <trkpt lat="45.6749" lon="3.00004">
        <ele>863.59997558594</ele>
        <time>2012-02-25T16:20:43.000Z</time>
      </trkpt>
      <trkpt lat="45.67482" lon="3.0001">
        <ele>862.40002441406</ele>
        <time>2012-02-25T16:20:50.000Z</time>
      </trkpt>
      <trkpt lat="45.67477" lon="3.00015">
        <ele>861.59997558594</ele>
        <time>2012-02-25T16:20:55.000Z</time>
      </trkpt>
      <trkpt lat="45.67475" lon="3.00017">
        <ele>861.40002441406</ele>
        <time>2012-02-25T16:20:57.000Z</time>
      </trkpt>
      <trkpt lat="45.6747" lon="3.0002">
        <ele>860.79998779297</ele>
        <time>2012-02-25T16:21:01.000Z</time>
      </trkpt>
      <trkpt lat="45.67466" lon="3.00022">
        <ele>860</ele>
        <time>2012-02-25T16:21:06.000Z</time>
      </trkpt>
      <trkpt lat="45.67457" lon="3.00028">
        <ele>858.79998779297</ele>
        <time>2012-02-25T16:21:15.000Z</time>
      </trkpt>
      <trkpt lat="45.67451" lon="3.00035">
        <ele>858</ele>
        <time>2012-02-25T16:21:22.000Z</time>
      </trkpt>
      <trkpt lat="45.67445" lon="3.00041">
        <ele>857</ele>
        <time>2012-02-25T16:21:29.000Z</time>
      </trkpt>
      <trkpt lat="45.67437" lon="3.00045">
        <ele>859.40002441406</ele>
        <time>2012-02-25T16:21:36.000Z</time>
      </trkpt>
      <trkpt lat="45.67429" lon="3.00049">
        <ele>858.40002441406</ele>
        <time>2012-02-25T16:21:44.000Z</time>
      </trkpt>
      <trkpt lat="45.67429" lon="3.0005">
        <ele>858.40002441406</ele>
        <time>2012-02-25T16:21:45.000Z</time>
      </trkpt>
      <trkpt lat="45.6742" lon="3.00054">
        <ele>857.40002441406</ele>
        <time>2012-02-25T16:21:53.000Z</time>
      </trkpt>
      <trkpt lat="45.67415" lon="3.00057">
        <ele>857</ele>
        <time>2012-02-25T16:21:59.000Z</time>
      </trkpt>
      <trkpt lat="45.67412" lon="3.00058">
        <ele>856.79998779297</ele>
        <time>2012-02-25T16:22:01.000Z</time>
      </trkpt>
      <trkpt lat="45.67404" lon="3.00062">
        <ele>856.40002441406</ele>
        <time>2012-02-25T16:22:08.000Z</time>
      </trkpt>
      <trkpt lat="45.67399" lon="3.00064">
        <ele>855.79998779297</ele>
        <time>2012-02-25T16:22:14.000Z</time>
      </trkpt>
      <trkpt lat="45.67388" lon="3.00069">
        <ele>855</ele>
        <time>2012-02-25T16:22:24.000Z</time>
      </trkpt>
      <trkpt lat="45.67387" lon="3.0007">
        <ele>855</ele>
        <time>2012-02-25T16:22:25.000Z</time>
      </trkpt>
      <trkpt lat="45.67384" lon="3.00073">
        <ele>854.79998779297</ele>
        <time>2012-02-25T16:22:28.000Z</time>
      </trkpt>
      <trkpt lat="45.67377" lon="3.00077">
        <ele>854.20001220703</ele>
        <time>2012-02-25T16:22:35.000Z</time>
      </trkpt>
      <trkpt lat="45.67375" lon="3.0008">
        <ele>854</ele>
        <time>2012-02-25T16:22:38.000Z</time>
      </trkpt>
      <trkpt lat="45.67372" lon="3.00082">
        <ele>853.59997558594</ele>
        <time>2012-02-25T16:22:41.000Z</time>
      </trkpt>
      <trkpt lat="45.67371" lon="3.00084">
        <ele>853.59997558594</ele>
        <time>2012-02-25T16:22:43.000Z</time>
      </trkpt>
      <trkpt lat="45.67368" lon="3.00086">
        <ele>853.20001220703</ele>
        <time>2012-02-25T16:22:46.000Z</time>
      </trkpt>
      <trkpt lat="45.67362" lon="3.00092">
        <ele>852.59997558594</ele>
        <time>2012-02-25T16:22:54.000Z</time>
      </trkpt>
      <trkpt lat="45.67362" lon="3.00093">
        <ele>852.59997558594</ele>
        <time>2012-02-25T16:22:55.000Z</time>
      </trkpt>
      <trkpt lat="45.6736" lon="3.00094">
        <ele>852.40002441406</ele>
        <time>2012-02-25T16:22:57.000Z</time>
      </trkpt>
      <trkpt lat="45.67358" lon="3.00098">
        <ele>852.20001220703</ele>
        <time>2012-02-25T16:23:01.000Z</time>
      </trkpt>
      <trkpt lat="45.67356" lon="3.00102">
        <ele>852</ele>
        <time>2012-02-25T16:23:04.000Z</time>
      </trkpt>
      <trkpt lat="45.67349" lon="3.0011">
        <ele>851.20001220703</ele>
        <time>2012-02-25T16:23:13.000Z</time>
      </trkpt>
      <trkpt lat="45.67346" lon="3.00117">
        <ele>850.79998779297</ele>
        <time>2012-02-25T16:23:19.000Z</time>
      </trkpt>
      <trkpt lat="45.67344" lon="3.00123">
        <ele>850.59997558594</ele>
        <time>2012-02-25T16:23:23.000Z</time>
      </trkpt>
      <trkpt lat="45.67343" lon="3.00125">
        <ele>850.40002441406</ele>
        <time>2012-02-25T16:23:25.000Z</time>
      </trkpt>
      <trkpt lat="45.67342" lon="3.0013">
        <ele>850.40002441406</ele>
        <time>2012-02-25T16:23:29.000Z</time>
      </trkpt>
      <trkpt lat="45.67339" lon="3.00137">
        <ele>850</ele>
        <time>2012-02-25T16:23:37.000Z</time>
      </trkpt>
      <trkpt lat="45.67338" lon="3.0014">
        <ele>849.79998779297</ele>
        <time>2012-02-25T16:23:39.000Z</time>
      </trkpt>
      <trkpt lat="45.67336" lon="3.00145">
        <ele>849.59997558594</ele>
        <time>2012-02-25T16:23:48.000Z</time>
      </trkpt>
      <trkpt lat="45.67337" lon="3.00147">
        <ele>849.59997558594</ele>
        <time>2012-02-25T16:24:01.000Z</time>
      </trkpt>
      <trkpt lat="45.67337" lon="3.00153">
        <ele>849.59997558594</ele>
        <time>2012-02-25T16:24:06.000Z</time>
      </trkpt>
      <trkpt lat="45.67334" lon="3.00155">
        <ele>849.20001220703</ele>
        <time>2012-02-25T16:24:10.000Z</time>
      </trkpt>
      <trkpt lat="45.67332" lon="3.00159">
        <ele>848.79998779297</ele>
        <time>2012-02-25T16:24:17.000Z</time>
      </trkpt>
      <trkpt lat="45.67329" lon="3.00157">
        <ele>848.20001220703</ele>
        <time>2012-02-25T16:24:23.000Z</time>
      </trkpt>
      <trkpt lat="45.67329" lon="3.00164">
        <ele>848.20001220703</ele>
        <time>2012-02-25T16:24:36.000Z</time>
      </trkpt>
      <trkpt lat="45.67329" lon="3.00174">
        <ele>847.40002441406</ele>
        <time>2012-02-25T16:24:42.000Z</time>
      </trkpt>
      <trkpt lat="45.67329" lon="3.00175">
        <ele>847.20001220703</ele>
        <time>2012-02-25T16:24:43.000Z</time>
      </trkpt>
      <trkpt lat="45.67329" lon="3.00183">
        <ele>846.40002441406</ele>
        <time>2012-02-25T16:24:49.000Z</time>
      </trkpt>
      <trkpt lat="45.67329" lon="3.00184">
        <ele>846.20001220703</ele>
        <time>2012-02-25T16:24:50.000Z</time>
      </trkpt>
      <trkpt lat="45.6733" lon="3.00195">
        <ele>845.40002441406</ele>
        <time>2012-02-25T16:24:57.000Z</time>
      </trkpt>
      <trkpt lat="45.6733" lon="3.00201">
        <ele>844.59997558594</ele>
        <time>2012-02-25T16:25:01.000Z</time>
      </trkpt>
      <trkpt lat="45.6733" lon="3.00205">
        <ele>844.40002441406</ele>
        <time>2012-02-25T16:25:03.000Z</time>
      </trkpt>
      <trkpt lat="45.67329" lon="3.00213">
        <ele>843.20001220703</ele>
        <time>2012-02-25T16:25:11.000Z</time>
      </trkpt>
      <trkpt lat="45.67329" lon="3.00223">
        <ele>842.20001220703</ele>
        <time>2012-02-25T16:25:17.000Z</time>
      </trkpt>
      <trkpt lat="45.67329" lon="3.00237">
        <ele>840.59997558594</ele>
        <time>2012-02-25T16:25:25.000Z</time>
      </trkpt>
      <trkpt lat="45.67331" lon="3.00244">
        <ele>840.20001220703</ele>
        <time>2012-02-25T16:25:30.000Z</time>
      </trkpt>
      <trkpt lat="45.67333" lon="3.00256">
        <ele>839</ele>
        <time>2012-02-25T16:25:38.000Z</time>
      </trkpt>
      <trkpt lat="45.67335" lon="3.00265">
        <ele>838.40002441406</ele>
        <time>2012-02-25T16:25:44.000Z</time>
      </trkpt>
      <trkpt lat="45.67338" lon="3.00275">
        <ele>837.79998779297</ele>
        <time>2012-02-25T16:25:50.000Z</time>
      </trkpt>
      <trkpt lat="45.67343" lon="3.00292">
        <ele>836.59997558594</ele>
        <time>2012-02-25T16:26:00.000Z</time>
      </trkpt>
      <trkpt lat="45.67347" lon="3.00307">
        <ele>835.59997558594</ele>
        <time>2012-02-25T16:26:09.000Z</time>
      </trkpt>
      <trkpt lat="45.67349" lon="3.00319">
        <ele>834.59997558594</ele>
        <time>2012-02-25T16:26:17.000Z</time>
      </trkpt>
      <trkpt lat="45.6735" lon="3.0032">
        <ele>834.40002441406</ele>
        <time>2012-02-25T16:26:18.000Z</time>
      </trkpt>
      <trkpt lat="45.67351" lon="3.00326">
        <ele>834</ele>
        <time>2012-02-25T16:26:24.000Z</time>
      </trkpt>
      <trkpt lat="45.67353" lon="3.00337">
        <ele>833.40002441406</ele>
        <time>2012-02-25T16:26:33.000Z</time>
      </trkpt>
      <trkpt lat="45.67353" lon="3.00342">
        <ele>833</ele>
        <time>2012-02-25T16:26:38.000Z</time>
      </trkpt>
      <trkpt lat="45.67353" lon="3.00351">
        <ele>832</ele>
        <time>2012-02-25T16:26:45.000Z</time>
      </trkpt>
      <trkpt lat="45.67353" lon="3.00354">
        <ele>831.59997558594</ele>
        <time>2012-02-25T16:26:47.000Z</time>
      </trkpt>
      <trkpt lat="45.67353" lon="3.00359">
        <ele>831.20001220703</ele>
        <time>2012-02-25T16:26:51.000Z</time>
      </trkpt>
      <trkpt lat="45.67353" lon="3.00362">
        <ele>830.79998779297</ele>
        <time>2012-02-25T16:26:53.000Z</time>
      </trkpt>
      <trkpt lat="45.67354" lon="3.00374">
        <ele>830</ele>
        <time>2012-02-25T16:26:59.000Z</time>
      </trkpt>
      <trkpt lat="45.67353" lon="3.00379">
        <ele>829.20001220703</ele>
        <time>2012-02-25T16:27:03.000Z</time>
      </trkpt>
      <trkpt lat="45.67352" lon="3.0038">
        <ele>828.79998779297</ele>
        <time>2012-02-25T16:27:05.000Z</time>
      </trkpt>
      <trkpt lat="45.67345" lon="3.00394">
        <ele>826.40002441406</ele>
        <time>2012-02-25T16:27:13.000Z</time>
      </trkpt>
      <trkpt lat="45.6734" lon="3.00408">
        <ele>824.40002441406</ele>
        <time>2012-02-25T16:27:21.000Z</time>
      </trkpt>
      <trkpt lat="45.67339" lon="3.00409">
        <ele>824.20001220703</ele>
        <time>2012-02-25T16:27:22.000Z</time>
      </trkpt>
      <trkpt lat="45.67338" lon="3.00415">
        <ele>823.59997558594</ele>
        <time>2012-02-25T16:27:25.000Z</time>
      </trkpt>
      <trkpt lat="45.67334" lon="3.00428">
        <ele>823</ele>
        <time>2012-02-25T16:27:33.000Z</time>
      </trkpt>
      <trkpt lat="45.6733" lon="3.00441">
        <ele>822.79998779297</ele>
        <time>2012-02-25T16:27:40.000Z</time>
      </trkpt>
      <trkpt lat="45.67325" lon="3.00453">
        <ele>822.59997558594</ele>
        <time>2012-02-25T16:27:48.000Z</time>
      </trkpt>
      <trkpt lat="45.67322" lon="3.00463">
        <ele>822.40002441406</ele>
        <time>2012-02-25T16:27:55.000Z</time>
      </trkpt>
      <trkpt lat="45.67317" lon="3.00475">
        <ele>822</ele>
        <time>2012-02-25T16:28:04.000Z</time>
      </trkpt>
      <trkpt lat="45.67311" lon="3.0048">
        <ele>821.59997558594</ele>
        <time>2012-02-25T16:28:10.000Z</time>
      </trkpt>
      <trkpt lat="45.67307" lon="3.00481">
        <ele>821.20001220703</ele>
        <time>2012-02-25T16:28:15.000Z</time>
      </trkpt>
      <trkpt lat="45.67298" lon="3.00485">
        <ele>820.59997558594</ele>
        <time>2012-02-25T16:28:23.000Z</time>
      </trkpt>
      <trkpt lat="45.6729" lon="3.00487">
        <ele>820</ele>
        <time>2012-02-25T16:28:30.000Z</time>
      </trkpt>
      <trkpt lat="45.67287" lon="3.00492">
        <ele>819.79998779297</ele>
        <time>2012-02-25T16:28:37.000Z</time>
      </trkpt>
      <trkpt lat="45.67281" lon="3.00496">
        <ele>819.20001220703</ele>
        <time>2012-02-25T16:28:42.000Z</time>
      </trkpt>
      <trkpt lat="45.67279" lon="3.00497">
        <ele>819</ele>
        <time>2012-02-25T16:28:44.000Z</time>
      </trkpt>
      <trkpt lat="45.67277" lon="3.00497">
        <ele>819</ele>
        <time>2012-02-25T16:28:46.000Z</time>
      </trkpt>
      <trkpt lat="45.67274" lon="3.00495">
        <ele>818.79998779297</ele>
        <time>2012-02-25T16:28:50.000Z</time>
      </trkpt>
      <trkpt lat="45.67273" lon="3.00495">
        <ele>818.79998779297</ele>
        <time>2012-02-25T16:28:52.000Z</time>
      </trkpt>
      <trkpt lat="45.6727" lon="3.00493">
        <ele>818.59997558594</ele>
        <time>2012-02-25T16:28:57.000Z</time>
      </trkpt>
      <trkpt lat="45.67266" lon="3.00495">
        <ele>818.20001220703</ele>
        <time>2012-02-25T16:29:04.000Z</time>
      </trkpt>
      <trkpt lat="45.67262" lon="3.0049">
        <ele>818</ele>
        <time>2012-02-25T16:29:13.000Z</time>
      </trkpt>
      <trkpt lat="45.67259" lon="3.00485">
        <ele>818</ele>
        <time>2012-02-25T16:29:19.000Z</time>
      </trkpt>
      <trkpt lat="45.67254" lon="3.00476">
        <ele>817.79998779297</ele>
        <time>2012-02-25T16:29:26.000Z</time>
      </trkpt>
      <trkpt lat="45.67252" lon="3.00473">
        <ele>817.79998779297</ele>
        <time>2012-02-25T16:29:30.000Z</time>
      </trkpt>
      <trkpt lat="45.67248" lon="3.00473">
        <ele>817.59997558594</ele>
        <time>2012-02-25T16:29:37.000Z</time>
      </trkpt>
      <trkpt lat="45.67243" lon="3.00478">
        <ele>817.59997558594</ele>
        <time>2012-02-25T16:29:42.000Z</time>
      </trkpt>
      <trkpt lat="45.6724" lon="3.00481">
        <ele>817.59997558594</ele>
        <time>2012-02-25T16:29:46.000Z</time>
      </trkpt>
      <trkpt lat="45.67236" lon="3.00489">
        <ele>817.40002441406</ele>
        <time>2012-02-25T16:29:53.000Z</time>
      </trkpt>
      <trkpt lat="45.67228" lon="3.00504">
        <ele>817.20001220703</ele>
        <time>2012-02-25T16:30:04.000Z</time>
      </trkpt>
      <trkpt lat="45.67223" lon="3.00513">
        <ele>817.40002441406</ele>
        <time>2012-02-25T16:30:18.000Z</time>
      </trkpt>
      <trkpt lat="45.6722" lon="3.00517">
        <ele>817.40002441406</ele>
        <time>2012-02-25T16:30:23.000Z</time>
      </trkpt>
      <trkpt lat="45.67217" lon="3.00519">
        <ele>817.40002441406</ele>
        <time>2012-02-25T16:30:26.000Z</time>
      </trkpt>
      <trkpt lat="45.67214" lon="3.00522">
        <ele>817.40002441406</ele>
        <time>2012-02-25T16:30:30.000Z</time>
      </trkpt>
      <trkpt lat="45.67212" lon="3.00524">
        <ele>817.40002441406</ele>
        <time>2012-02-25T16:30:32.000Z</time>
      </trkpt>
      <trkpt lat="45.67206" lon="3.00529">
        <ele>817.59997558594</ele>
        <time>2012-02-25T16:30:38.000Z</time>
      </trkpt>
      <trkpt lat="45.67205" lon="3.0053">
        <ele>817.59997558594</ele>
        <time>2012-02-25T16:30:39.000Z</time>
      </trkpt>
      <trkpt lat="45.67203" lon="3.0053">
        <ele>817.59997558594</ele>
        <time>2012-02-25T16:30:41.000Z</time>
      </trkpt>
      <trkpt lat="45.67203" lon="3.00531">
        <ele>817.59997558594</ele>
        <time>2012-02-25T16:30:43.000Z</time>
      </trkpt>
      <trkpt lat="45.67194" lon="3.00537">
        <ele>817.59997558594</ele>
        <time>2012-02-25T16:30:53.000Z</time>
      </trkpt>
      <trkpt lat="45.67191" lon="3.00541">
        <ele>817.59997558594</ele>
        <time>2012-02-25T16:30:58.000Z</time>
      </trkpt>
      <trkpt lat="45.6719" lon="3.00542">
        <ele>817.40002441406</ele>
        <time>2012-02-25T16:31:00.000Z</time>
      </trkpt>
      <trkpt lat="45.67186" lon="3.00544">
        <ele>817.40002441406</ele>
        <time>2012-02-25T16:31:05.000Z</time>
      </trkpt>
      <trkpt lat="45.67186" lon="3.00545">
        <ele>817.40002441406</ele>
        <time>2012-02-25T16:31:06.000Z</time>
      </trkpt>
      <trkpt lat="45.67182" lon="3.00546">
        <ele>817.40002441406</ele>
        <time>2012-02-25T16:31:12.000Z</time>
      </trkpt>
      <trkpt lat="45.67179" lon="3.00548">
        <ele>817.40002441406</ele>
        <time>2012-02-25T16:31:18.000Z</time>
      </trkpt>
      <trkpt lat="45.67177" lon="3.00555">
        <ele>817.40002441406</ele>
        <time>2012-02-25T16:31:24.000Z</time>
      </trkpt>
      <trkpt lat="45.67173" lon="3.00562">
        <ele>817.20001220703</ele>
        <time>2012-02-25T16:31:30.000Z</time>
      </trkpt>
      <trkpt lat="45.6717" lon="3.00572">
        <ele>817.20001220703</ele>
        <time>2012-02-25T16:31:38.000Z</time>
      </trkpt>
      <trkpt lat="45.67167" lon="3.00579">
        <ele>817</ele>
        <time>2012-02-25T16:31:46.000Z</time>
      </trkpt>
      <trkpt lat="45.67165" lon="3.00588">
        <ele>817</ele>
        <time>2012-02-25T16:31:52.000Z</time>
      </trkpt>
      <trkpt lat="45.67163" lon="3.00597">
        <ele>817</ele>
        <time>2012-02-25T16:31:59.000Z</time>
      </trkpt>
      <trkpt lat="45.67163" lon="3.00598">
        <ele>817</ele>
        <time>2012-02-25T16:32:00.000Z</time>
      </trkpt>
      <trkpt lat="45.67162" lon="3.00601">
        <ele>816.79998779297</ele>
        <time>2012-02-25T16:32:02.000Z</time>
      </trkpt>
      <trkpt lat="45.67159" lon="3.00615">
        <ele>816.79998779297</ele>
        <time>2012-02-25T16:32:11.000Z</time>
      </trkpt>
      <trkpt lat="45.67159" lon="3.00615">
        <ele>816.79998779297</ele>
        <time>2012-02-25T16:32:12.000Z</time>
      </trkpt>
      <trkpt lat="45.6716" lon="3.00611">
        <ele>816.79998779297</ele>
        <time>2012-02-25T16:32:15.000Z</time>
      </trkpt>
    </trkseg>
  </trk>
</gpx>